[[{"header":{"parameterUnit":"m.s-1","parameterCategory":1,"la1":30.6,"la2":29.2853,"lo1":-89.7004,"lo2":-87.6739,"dy":0.0162,"dx":0.0183,"nx":112,"ny":82,"refTime":"2023-03-22T06:00:00:Z","depth":0,"parameterNumber":2,"parameterNumberName":"U-component_of_WINDS"},"data":[0.0,0.0,0.0,0.0,0.0,0.0,0.0,0.0,0.0,0.0,0.0,0.0,0.0,0.0,0.0,0.0,0.0,0.0,0.0,0.0,0.0,0.0,0.0,0.0,0.0,0.0,0.0,0.0,0.0,0.0,0.0,0.0,0.0,0.0,0.0,0.0,0.0,0.0,0.0,0.0,0.0,0.0,0.0,0.0,0.0,0.0,0.0,0.0,0.0,0.0,0.0,0.0,0.0,0.0,0.0,0.0,0.0,0.0,0.0,0.0,0.0,0.0,0.0,0.0,0.0,0.0,0.0,0.0,0.0,0.0,0.0,0.0,0.0,0.0,0.0,0.0,0.0,0.0,0.0,0.0,0.0,0.0,0.0,0.0,0.0,0.0,0.0,0.0,0.0,0.0,-9.4191,-9.9723,-10.6608,-11.0206,-10.8581,-10.7305,-10.4203,-9.8728,0.0,0.0,0.0,0.0,0.0,0.0,0.0,0.0,0.0,0.0,0.0,0.0,0.0,0.0,0.0,0.0,0.0,0.0,0.0,0.0,0.0,0.0,0.0,0.0,0.0,0.0,0.0,0.0,0.0,0.0,0.0,0.0,0.0,0.0,0.0,0.0,0.0,0.0,0.0,0.0,0.0,0.0,0.0,0.0,0.0,0.0,0.0,0.0,0.0,0.0,0.0,0.0,0.0,0.0,0.0,0.0,0.0,0.0,0.0,0.0,0.0,0.0,0.0,0.0,0.0,0.0,0.0,0.0,0.0,0.0,0.0,0.0,0.0,0.0,0.0,0.0,0.0,0.0,0.0,0.0,0.0,0.0,0.0,0.0,0.0,0.0,0.0,0.0,0.0,0.0,0.0,0.0,0.0,0.0,0.0,0.0,0.0,0.0,0.0,0.0,0.0,0.0,0.0,0.0,-9.6628,-10.3901,-10.8388,-11.0399,-10.9393,-10.6492,-10.3204,-9.939,0.0,0.0,0.0,0.0,0.0,0.0,0.0,0.0,0.0,0.0,0.0,0.0,0.0,0.0,0.0,0.0,0.0,0.0,0.0,0.0,0.0,0.0,0.0,0.0,0.0,0.0,0.0,0.0,0.0,0.0,0.0,0.0,0.0,0.0,0.0,0.0,0.0,0.0,0.0,0.0,0.0,0.0,0.0,0.0,0.0,0.0,0.0,0.0,0.0,0.0,0.0,0.0,0.0,0.0,0.0,0.0,0.0,0.0,0.0,0.0,0.0,0.0,0.0,0.0,0.0,0.0,0.0,0.0,0.0,0.0,0.0,0.0,0.0,0.0,0.0,0.0,0.0,0.0,0.0,0.0,0.0,0.0,0.0,0.0,0.0,0.0,0.0,0.0,0.0,0.0,0.0,0.0,0.0,0.0,0.0,0.0,0.0,0.0,0.0,0.0,0.0,0.0,0.0,-9.6744,-10.038,-10.5796,-10.9509,-11.1018,-10.9587,-10.6415,-10.2988,-9.9575,-9.6629,0.0,0.0,0.0,0.0,0.0,0.0,0.0,0.0,0.0,0.0,0.0,0.0,0.0,0.0,0.0,0.0,0.0,0.0,0.0,0.0,0.0,0.0,0.0,0.0,0.0,0.0,0.0,0.0,0.0,0.0,0.0,0.0,0.0,0.0,0.0,0.0,0.0,0.0,0.0,0.0,0.0,0.0,0.0,0.0,0.0,0.0,0.0,0.0,0.0,0.0,0.0,0.0,0.0,0.0,0.0,0.0,0.0,0.0,0.0,0.0,0.0,0.0,0.0,0.0,0.0,0.0,0.0,0.0,0.0,0.0,0.0,0.0,0.0,0.0,0.0,0.0,0.0,0.0,0.0,0.0,0.0,0.0,0.0,0.0,0.0,0.0,0.0,0.0,0.0,0.0,0.0,0.0,0.0,0.0,0.0,0.0,0.0,0.0,0.0,0.0,0.0,0.0,-9.9994,-10.3398,-10.7189,-11.0283,-11.1405,-10.9587,-10.6415,-10.3003,-9.9633,-9.6269,0.0,0.0,0.0,0.0,0.0,0.0,0.0,0.0,0.0,0.0,0.0,0.0,0.0,0.0,0.0,0.0,0.0,0.0,0.0,0.0,0.0,0.0,0.0,0.0,0.0,0.0,0.0,0.0,0.0,0.0,0.0,0.0,0.0,0.0,0.0,0.0,0.0,0.0,0.0,0.0,0.0,0.0,0.0,0.0,0.0,0.0,0.0,0.0,0.0,0.0,0.0,0.0,0.0,0.0,0.0,0.0,0.0,0.0,0.0,0.0,0.0,0.0,0.0,0.0,0.0,0.0,0.0,0.0,0.0,0.0,0.0,0.0,0.0,0.0,0.0,0.0,0.0,0.0,0.0,0.0,0.0,0.0,0.0,0.0,0.0,0.0,0.0,0.0,0.0,0.0,0.0,0.0,0.0,0.0,0.0,0.0,0.0,0.0,0.0,0.0,0.0,0.0,-10.069,-10.3784,-10.8813,-11.1018,-11.1405,-10.9587,-10.6415,-10.3003,-9.9633,-9.6269,0.0,0.0,0.0,0.0,0.0,0.0,0.0,0.0,0.0,0.0,0.0,0.0,0.0,0.0,0.0,0.0,0.0,0.0,0.0,0.0,0.0,0.0,0.0,0.0,0.0,0.0,0.0,0.0,0.0,0.0,0.0,0.0,0.0,0.0,0.0,0.0,0.0,0.0,0.0,0.0,0.0,0.0,0.0,0.0,0.0,0.0,0.0,0.0,0.0,0.0,0.0,0.0,0.0,0.0,0.0,0.0,0.0,0.0,0.0,0.0,0.0,0.0,0.0,0.0,0.0,0.0,0.0,0.0,0.0,0.0,0.0,0.0,0.0,0.0,0.0,0.0,0.0,0.0,0.0,0.0,0.0,0.0,0.0,0.0,0.0,0.0,0.0,0.0,0.0,0.0,0.0,0.0,0.0,0.0,0.0,0.0,0.0,0.0,0.0,0.0,0.0,0.0,-10.0806,-10.3901,0.0,-11.0593,-11.0786,-10.9587,-10.6415,-10.3003,-9.9633,0.0,0.0,0.0,0.0,0.0,0.0,0.0,0.0,0.0,0.0,0.0,0.0,0.0,0.0,0.0,0.0,0.0,0.0,0.0,0.0,0.0,0.0,0.0,0.0,0.0,0.0,0.0,0.0,0.0,0.0,0.0,0.0,0.0,0.0,0.0,0.0,0.0,0.0,0.0,0.0,0.0,0.0,0.0,0.0,0.0,0.0,0.0,0.0,0.0,0.0,0.0,0.0,0.0,0.0,0.0,0.0,0.0,0.0,0.0,0.0,0.0,0.0,0.0,0.0,0.0,0.0,0.0,0.0,0.0,0.0,0.0,0.0,0.0,0.0,0.0,0.0,0.0,0.0,0.0,0.0,0.0,0.0,0.0,0.0,0.0,0.0,0.0,0.0,0.0,0.0,0.0,0.0,0.0,0.0,0.0,0.0,0.0,0.0,0.0,0.0,0.0,0.0,-9.864,-10.0806,-10.3784,0.0,-11.009,-11.0322,-10.92,-10.5487,-10.209,-9.9585,0.0,0.0,0.0,0.0,0.0,0.0,0.0,0.0,0.0,0.0,0.0,0.0,0.0,0.0,0.0,0.0,0.0,0.0,0.0,0.0,0.0,0.0,0.0,0.0,0.0,0.0,0.0,0.0,0.0,0.0,0.0,0.0,0.0,0.0,0.0,0.0,0.0,0.0,0.0,0.0,0.0,0.0,0.0,0.0,0.0,0.0,0.0,0.0,0.0,0.0,0.0,0.0,0.0,0.0,0.0,0.0,0.0,0.0,0.0,0.0,0.0,0.0,0.0,0.0,0.0,0.0,0.0,0.0,0.0,0.0,0.0,0.0,0.0,0.0,0.0,0.0,0.0,0.0,0.0,0.0,0.0,0.0,0.0,0.0,0.0,0.0,0.0,0.0,0.0,0.0,0.0,0.0,0.0,0.0,0.0,0.0,0.0,0.0,0.0,0.0,0.0,0.0,-9.864,-10.0806,-10.3514,-10.7807,-10.9819,-11.009,-10.8388,-10.3591,-10.0286,0.0,0.0,0.0,0.0,0.0,0.0,0.0,0.0,0.0,0.0,0.0,0.0,0.0,0.0,0.0,0.0,0.0,0.0,0.0,0.0,0.0,0.0,0.0,0.0,0.0,0.0,0.0,0.0,0.0,0.0,0.0,0.0,0.0,0.0,0.0,0.0,0.0,0.0,0.0,0.0,0.0,0.0,0.0,0.0,0.0,0.0,0.0,0.0,0.0,0.0,0.0,0.0,0.0,0.0,0.0,0.0,0.0,0.0,0.0,0.0,0.0,0.0,0.0,0.0,0.0,0.0,0.0,0.0,0.0,0.0,0.0,0.0,0.0,0.0,0.0,0.0,0.0,0.0,0.0,0.0,0.0,0.0,0.0,0.0,0.0,0.0,0.0,0.0,0.0,0.0,0.0,0.0,0.0,0.0,0.0,0.0,0.0,0.0,0.0,0.0,0.0,0.0,0.0,-9.7866,-9.9916,-10.2585,-10.6879,-10.8388,-10.8581,-10.7498,-10.329,-10.0112,-9.8724,0.0,0.0,0.0,0.0,0.0,0.0,0.0,0.0,0.0,0.0,0.0,0.0,0.0,0.0,0.0,0.0,0.0,0.0,0.0,0.0,0.0,0.0,0.0,0.0,0.0,0.0,0.0,0.0,0.0,0.0,0.0,0.0,0.0,0.0,0.0,0.0,0.0,0.0,0.0,0.0,0.0,0.0,0.0,0.0,0.0,0.0,0.0,0.0,0.0,0.0,0.0,0.0,0.0,0.0,0.0,0.0,0.0,0.0,0.0,0.0,0.0,0.0,0.0,0.0,0.0,0.0,0.0,0.0,0.0,0.0,0.0,0.0,0.0,0.0,0.0,0.0,0.0,0.0,0.0,0.0,0.0,0.0,0.0,0.0,0.0,0.0,0.0,0.0,0.0,0.0,0.0,0.0,0.0,0.0,0.0,0.0,0.0,0.0,0.0,0.0,0.0,0.0,-9.7557,-9.9568,-10.2082,-10.6105,-10.7305,-10.7382,-10.6608,-10.2299,-9.9289,-9.8349,0.0,0.0,0.0,0.0,0.0,0.0,0.0,0.0,0.0,0.0,0.0,0.0,0.0,0.0,0.0,0.0,0.0,0.0,0.0,0.0,0.0,0.0,0.0,0.0,0.0,0.0,0.0,0.0,0.0,0.0,0.0,0.0,0.0,0.0,0.0,0.0,0.0,0.0,0.0,0.0,0.0,0.0,0.0,0.0,0.0,0.0,0.0,0.0,0.0,0.0,0.0,0.0,0.0,0.0,0.0,0.0,0.0,0.0,0.0,0.0,0.0,0.0,0.0,0.0,0.0,0.0,0.0,0.0,0.0,0.0,0.0,0.0,0.0,0.0,0.0,0.0,0.0,0.0,0.0,0.0,0.0,0.0,0.0,0.0,0.0,0.0,0.0,0.0,0.0,0.0,0.0,0.0,0.0,0.0,0.0,0.0,0.0,0.0,0.0,0.0,0.0,0.0,-9.7557,-9.9568,-10.1889,-10.5293,-10.6492,-10.6586,-10.568,-10.1075,-9.8295,-9.8194,0.0,0.0,0.0,0.0,0.0,0.0,0.0,0.0,0.0,0.0,0.0,0.0,0.0,0.0,0.0,0.0,0.0,0.0,0.0,0.0,0.0,0.0,0.0,0.0,0.0,0.0,0.0,0.0,0.0,0.0,0.0,0.0,0.0,0.0,0.0,0.0,0.0,0.0,0.0,0.0,0.0,0.0,0.0,0.0,0.0,0.0,0.0,0.0,0.0,0.0,0.0,0.0,0.0,0.0,0.0,0.0,0.0,0.0,0.0,0.0,-9.8266,0.0,0.0,0.0,0.0,0.0,0.0,0.0,0.0,0.0,0.0,0.0,0.0,0.0,0.0,0.0,0.0,0.0,0.0,0.0,0.0,0.0,0.0,0.0,0.0,0.0,0.0,0.0,0.0,0.0,0.0,0.0,0.0,0.0,0.0,0.0,0.0,0.0,0.0,0.0,0.0,0.0,-9.7557,-9.9568,-10.1889,-10.5293,-10.6518,-10.6394,-10.4884,-10.1489,-9.8815,-9.7431,-9.4696,0.0,0.0,0.0,0.0,0.0,0.0,0.0,0.0,0.0,0.0,0.0,0.0,0.0,0.0,0.0,0.0,0.0,0.0,0.0,0.0,0.0,0.0,0.0,0.0,0.0,0.0,0.0,0.0,0.0,0.0,0.0,0.0,0.0,0.0,0.0,0.0,0.0,0.0,0.0,0.0,0.0,0.0,0.0,0.0,0.0,0.0,0.0,0.0,0.0,0.0,0.0,0.0,0.0,0.0,0.0,0.0,0.0,0.0,0.0,0.0,-9.9731,0.0,0.0,0.0,0.0,0.0,0.0,0.0,0.0,0.0,0.0,0.0,0.0,0.0,0.0,0.0,0.0,0.0,0.0,0.0,0.0,0.0,0.0,0.0,0.0,0.0,0.0,0.0,0.0,0.0,0.0,0.0,0.0,0.0,0.0,0.0,0.0,0.0,0.0,0.0,0.0,-9.6976,-9.8601,-10.069,-10.4094,-10.4899,-10.4892,-10.4002,-10.0891,-9.8401,-9.7083,-9.4688,0.0,0.0,0.0,0.0,0.0,0.0,0.0,0.0,0.0,0.0,0.0,0.0,0.0,0.0,0.0,0.0,0.0,0.0,0.0,0.0,0.0,0.0,0.0,0.0,0.0,0.0,0.0,0.0,0.0,0.0,0.0,0.0,0.0,0.0,0.0,0.0,0.0,0.0,0.0,0.0,0.0,0.0,0.0,0.0,0.0,0.0,0.0,0.0,0.0,0.0,0.0,0.0,0.0,-10.2697,-10.3298,-10.4612,-10.3185,-10.3711,-10.5588,-10.341,-10.2322,-10.2021,-10.1909,0.0,0.0,0.0,0.0,0.0,0.0,0.0,0.0,0.0,0.0,0.0,0.0,0.0,0.0,0.0,0.0,0.0,0.0,0.0,0.0,0.0,0.0,0.0,0.0,-10.1386,-10.0613,-9.9723,0.0,0.0,0.0,0.0,0.0,0.0,0.0,0.0,0.0,0.0,0.0,-9.6358,-9.7673,-9.9568,-10.2817,-10.3297,-10.3297,-10.2988,-10.0214,-9.7972,-9.6771,-9.4717,-9.3081,0.0,0.0,0.0,0.0,0.0,0.0,0.0,0.0,0.0,0.0,0.0,0.0,0.0,0.0,0.0,0.0,0.0,0.0,0.0,0.0,0.0,0.0,0.0,0.0,0.0,0.0,0.0,0.0,0.0,0.0,0.0,0.0,-9.5412,-9.7177,0.0,0.0,0.0,0.0,0.0,0.0,0.0,0.0,0.0,0.0,0.0,0.0,0.0,-10.3523,-10.3598,-10.4387,-10.51,-10.5814,-10.649,-10.7278,-10.8104,-10.7203,-10.7278,-10.8292,-10.7203,0.0,-10.4575,-10.3786,0.0,0.0,0.0,0.0,0.0,0.0,0.0,0.0,0.0,0.0,0.0,0.0,0.0,0.0,0.0,0.0,0.0,0.0,0.0,0.0,0.0,0.0,-10.0999,-10.1696,-10.1812,-10.1502,0.0,-9.9181,-9.7827,-9.6976,-9.539,0.0,0.0,0.0,0.0,0.0,0.0,0.0,-9.6358,-9.8176,-10.0187,-10.2895,-10.3886,-10.3699,-10.2305,-10.0495,-9.8478,-9.6111,-9.5056,-9.3769,-9.2138,-9.2099,0.0,0.0,0.0,0.0,0.0,0.0,0.0,0.0,0.0,0.0,0.0,0.0,0.0,0.0,0.0,0.0,0.0,0.0,0.0,0.0,0.0,0.0,0.0,0.0,0.0,0.0,0.0,0.0,0.0,-9.5569,-9.6843,-9.8198,-9.9111,-9.9567,0.0,0.0,0.0,0.0,0.0,0.0,0.0,0.0,0.0,-10.4612,-10.4988,-10.5701,-10.6602,-10.7391,-10.7804,-10.7691,-10.8104,-10.8705,-10.9418,-10.8592,-10.9005,-11.0207,-10.9306,-10.8517,-10.7691,-10.5926,-10.4199,-10.2616,0.0,0.0,0.0,0.0,-10.3806,-10.4116,-10.5007,-10.5295,-10.5279,-10.5601,0.0,0.0,0.0,0.0,0.0,0.0,0.0,0.0,0.0,0.0,-10.1386,-10.1812,-10.1889,-10.1696,-10.0806,-9.9645,-9.8369,0.0,-9.539,-9.4037,-9.3611,0.0,0.0,0.0,0.0,-9.276,-9.57,-9.6706,-9.8137,-10.069,-10.1301,-10.1277,-10.0503,-9.9018,-9.7419,-9.5791,-9.4571,-9.3337,-9.2094,-9.2088,-9.211,0.0,0.0,0.0,0.0,0.0,0.0,0.0,0.0,0.0,0.0,0.0,0.0,0.0,0.0,0.0,0.0,0.0,0.0,0.0,0.0,0.0,0.0,0.0,0.0,0.0,0.0,0.0,0.0,-9.7074,-9.8504,-9.9136,-10.0698,-10.1415,0.0,0.0,0.0,0.0,0.0,0.0,-10.3486,-10.341,-10.4499,-10.7203,-10.7203,-10.7804,-10.9118,-10.9719,-10.9794,-10.9418,-10.9606,-11.0207,-11.092,-11.0094,-11.0507,-11.1897,-11.0995,-11.0507,-11.0207,-10.7916,-10.5701,-10.3894,-10.4204,-10.3683,-10.2893,-10.4101,-10.4826,-10.5194,-10.642,-10.6387,-10.612,-10.671,-10.5504,-10.3789,-10.3278,0.0,0.0,0.0,0.0,-10.1889,-10.1889,-10.1889,-10.1889,-10.1889,-10.1889,-10.158,-10.0496,-9.9762,-9.8794,0.0,-9.539,-9.3921,-9.3147,0.0,0.0,0.0,0.0,-9.2528,-9.4849,-9.5352,-9.6396,-9.8756,-9.9181,-9.9143,-9.8717,-9.7606,-9.6383,-9.5066,-9.3953,-9.2937,-9.2044,-9.2088,-9.211,-9.211,0.0,0.0,0.0,0.0,0.0,0.0,0.0,0.0,0.0,0.0,0.0,0.0,0.0,0.0,0.0,0.0,0.0,0.0,0.0,0.0,0.0,0.0,0.0,0.0,0.0,0.0,0.0,0.0,0.0,-10.0112,-10.201,0.0,0.0,0.0,0.0,-10.2509,-10.3974,-10.5288,-10.6114,-10.7616,-10.8893,-10.9831,-10.9831,-10.9907,-10.9872,-11.0019,-11.0395,-11.1183,-11.1897,-11.2723,-11.3511,-11.2723,-11.2798,-11.3511,-11.2723,-11.1897,-11.1108,-10.9381,-10.8179,-10.7195,-10.6171,-10.6094,-10.6388,-10.6503,-10.7394,-10.8481,-10.888,-10.928,-10.9611,-10.8787,-10.6699,-10.4178,-10.3398,-10.2585,0.0,0.0,-10.1889,-10.1889,-10.1889,-10.1889,-10.1889,-10.1889,-10.1889,-10.1386,-9.9723,-9.9336,-9.8794,0.0,-9.539,-9.3921,-9.3147,0.0,-9.1716,-9.1716,-9.1716,-9.2335,-9.4037,-9.5004,-9.6164,-9.7982,-9.8833,-9.8678,-9.7054,-9.6951,-9.5946,-9.3465,-9.3364,-9.3003,-9.2138,-9.211,-9.211,-9.211,-9.211,0.0,0.0,0.0,0.0,0.0,0.0,0.0,0.0,0.0,0.0,0.0,0.0,0.0,0.0,0.0,0.0,0.0,0.0,0.0,0.0,0.0,0.0,0.0,0.0,0.0,0.0,0.0,0.0,-10.3027,-10.5102,0.0,-10.4692,-10.5814,-10.6114,-10.51,-10.649,-10.7616,-10.7916,-10.9005,-11.0207,-11.1596,-11.2122,-11.291,-11.3999,-11.3999,-11.4112,-11.4488,-11.4225,-11.43,-11.4488,-11.3699,-11.3399,-11.3699,-11.3399,-11.3098,-11.2798,-11.1596,-10.9794,-10.7574,-10.7198,-10.6818,-10.6496,-10.679,-10.7295,-10.7787,-10.8623,-10.9008,-10.9122,-10.8607,-10.6607,-10.4287,-10.4094,-10.3011,-10.2005,-10.2585,-10.2701,-10.2895,-10.3398,-10.3514,-10.3398,-10.2895,-10.2701,-10.2392,-10.1193,-10.011,-9.8988,-9.7866,-9.6241,-9.4772,-9.3921,-9.3108,-9.2335,-9.1793,-9.218,-9.2953,-9.4037,-9.4965,-9.5932,-9.7131,-9.7518,-9.7209,-9.6048,-9.557,-9.4718,-9.3271,-9.2821,-9.242,-9.211,-9.211,-9.211,-9.211,-9.211,-9.211,0.0,0.0,0.0,0.0,0.0,0.0,0.0,0.0,0.0,0.0,0.0,0.0,0.0,0.0,0.0,0.0,0.0,0.0,0.0,0.0,0.0,0.0,0.0,0.0,0.0,0.0,-10.4119,-10.581,-10.8289,-10.941,-10.8108,-10.8705,-10.8893,-10.7991,-10.9005,-10.9907,-11.0395,-11.1221,-11.231,-11.3699,-11.43,-11.5088,-11.6177,-11.6177,-11.6177,-11.6177,-11.5689,-11.5389,-11.5389,-11.4788,-11.4488,-11.4488,-11.43,-11.4112,-11.4112,-11.3211,-11.1484,-10.919,-10.8893,-10.8515,-10.8228,-10.8409,-10.8701,-10.8996,-10.9615,-10.9706,-10.9283,-10.89,-10.7189,-10.5293,-10.5293,-10.4094,-10.2895,-10.3398,-10.3591,-10.3707,-10.3901,-10.4017,-10.3784,-10.3011,-10.2779,-10.2392,-10.1309,-10.011,-9.8988,-9.7866,-9.6474,-9.512,-9.3998,-9.334,-9.2721,-9.1832,-9.218,-9.2953,-9.4037,-9.4462,-9.5081,-9.6241,-9.6087,-9.5584,-9.4733,-9.4253,-9.3633,-9.2818,-9.2355,-9.211,-9.211,-9.211,-9.211,-9.211,-9.211,-9.211,-9.211,0.0,0.0,0.0,0.0,0.0,0.0,0.0,0.0,0.0,0.0,0.0,0.0,0.0,0.0,0.0,0.0,0.0,0.0,0.0,0.0,0.0,0.0,0.0,-10.0979,-10.4272,-10.7328,-10.8508,-11.1318,-11.2701,-11.1486,-11.0695,-11.0507,-11.1408,-11.1484,-11.2084,-11.3699,-11.46,-11.5389,-11.629,-11.629,-11.629,-11.629,-11.629,-11.629,-11.629,-11.629,-11.6215,-11.6215,-11.6177,-11.6177,-11.6177,-11.5314,-11.5013,-11.4901,-11.4112,-11.3286,-11.249,-11.1406,-11.1282,-11.1672,-11.1483,-11.1889,-11.2509,-11.2191,-11.1521,-11.0709,-10.9819,-10.8388,-10.6995,-10.6995,-10.5796,-10.4403,-10.4403,-10.4403,-10.4287,-10.3514,-10.3282,-10.3088,-10.2199,-10.2005,-10.1502,-9.9762,-9.9375,-9.8872,-9.7209,-9.6164,-9.5042,-9.3379,-9.307,-9.2799,-9.1909,-9.1793,0.0,-9.4037,-9.3572,-9.3727,-9.5352,-9.4772,-9.3921,-9.3108,-9.3155,-9.2806,-9.1965,-9.2005,-9.211,-9.211,-9.211,-9.211,-9.211,-9.211,-9.211,-9.211,0.0,0.0,0.0,0.0,0.0,0.0,0.0,0.0,0.0,0.0,0.0,0.0,0.0,0.0,0.0,0.0,0.0,0.0,0.0,0.0,0.0,0.0,-10.2571,-10.3089,-10.7219,-11.061,-11.173,-11.3823,-11.4796,-11.4076,-11.43,-11.46,-11.4788,-11.4901,-11.5314,-11.629,-11.6628,-11.7116,-11.798,-11.798,-11.828,-11.8918,-11.828,-11.798,-11.798,-11.7416,-11.7116,-11.7116,-11.6478,-11.6177,-11.6177,-11.5314,-11.5013,-11.4901,-11.4112,-11.3788,-11.3908,-11.3076,-11.2387,-11.2081,-11.2805,-11.3078,-11.3003,-11.2299,-11.1521,-11.0786,-11.0515,-10.8891,-10.6995,-10.6995,-10.5796,-10.4519,-10.5216,-10.5293,-10.5409,-10.5796,-10.5487,-10.479,-10.3901,-10.3282,-10.2508,-10.1386,-10.069,-9.9916,-9.8833,-9.7943,-9.6822,-9.512,-9.481,-9.4501,-9.365,-9.4037,0.0,-9.5081,-9.5506,-9.5932,-9.6396,-9.5661,-9.481,-9.3921,-9.3424,-9.2755,-9.1965,-9.196,-9.2066,-9.211,-9.211,-9.211,-9.211,-9.211,-9.211,0.0,0.0,0.0,0.0,0.0,0.0,0.0,0.0,0.0,0.0,0.0,0.0,0.0,0.0,0.0,0.0,0.0,0.0,0.0,0.0,0.0,0.0,-10.469,-10.7217,-10.8405,-11.0903,-11.3295,-11.498,-11.7378,-11.858,-11.7717,-11.8318,-11.8693,-11.828,-11.798,-11.8092,-11.8918,-11.8993,-11.9181,-11.9707,-11.9707,-12.0007,-12.0383,-12.0007,-11.9707,-11.9707,-11.8881,-11.8393,-11.8393,-11.7604,-11.7191,-11.7191,-11.6403,-11.5989,-11.5914,-11.4713,-11.4602,0.0,0.0,0.0,0.0,0.0,-11.392,-11.3803,-11.33,-11.2411,-11.1289,-11.1289,-10.9819,-10.8001,-10.7614,-10.6608,-10.5603,-10.6105,-10.6183,-10.6183,-10.5989,-10.5487,-10.4906,-10.3591,-10.3011,-10.2392,-10.1502,-10.0999,-10.0303,-9.9491,-9.864,0.0,-9.6744,-9.5971,-9.5197,-9.4307,-9.4617,-9.4965,-9.4965,-9.5081,-9.5197,-9.5197,-9.4423,-9.3688,-9.3186,-9.2791,0.0,0.0,0.0,-9.2044,-9.211,-9.211,0.0,0.0,0.0,-9.211,-9.211,0.0,0.0,0.0,-9.2459,-9.2653,0.0,0.0,0.0,0.0,0.0,0.0,0.0,0.0,0.0,0.0,0.0,0.0,0.0,0.0,0.0,0.0,-10.8814,-11.3495,-11.5427,-11.5406,-11.5978,-11.8193,-12.1307,-12.2778,-12.1622,-12.211,-12.2298,-12.1697,-12.0796,-12.0683,-12.1584,0.0,0.0,0.0,0.0,-12.1284,-12.1284,-12.1284,-12.1284,-12.1171,-12.0383,-12.0007,-11.9895,-11.9181,-11.8806,-11.8693,-11.7792,-11.7416,-11.7304,-11.5689,-11.5284,-11.5601,-11.4998,-11.4785,-11.4896,-11.4485,-11.45,-11.4693,-11.4499,0.0,0.0,-11.2024,-11.0786,-10.9316,-10.8504,-10.7691,-10.6995,-10.6995,-10.6879,-10.6492,-10.4906,-10.4403,-10.3901,-10.2392,-10.2005,-10.1696,-10.0883,-10.069,-10.0496,-9.9607,-9.8794,-9.8214,-9.8137,-9.6744,-9.539,-9.4617,-9.4501,-9.4462,-9.4346,-9.3727,-9.3224,-9.3147,0.0,0.0,-9.187,-9.181,-9.1799,-9.1875,-9.1948,-9.2055,-9.211,-9.211,-9.211,-9.211,-9.211,-9.211,-9.211,-9.211,-9.211,-9.211,-9.3003,-9.3392,0.0,0.0,0.0,0.0,0.0,0.0,0.0,0.0,0.0,0.0,0.0,0.0,0.0,0.0,0.0,-10.8814,-11.2418,-11.5798,-11.9402,-12.11,-12.1794,-12.1107,-12.2429,-12.3302,-12.3085,-12.3312,-12.3574,-12.41,-12.3387,-12.3312,-12.41,-12.2899,-12.2485,-12.3086,-12.2485,-12.2185,-12.2185,-12.2185,-12.181,-12.1171,0.0,0.0,-11.9895,-11.9707,-11.9294,-11.8693,-11.7792,-11.7416,-11.7304,-11.5689,-11.487,-11.4898,-11.5702,-11.6285,-11.6591,-11.5823,-11.561,-11.5505,-11.4113,-11.3378,-11.2797,-11.1521,-11.0322,-10.9316,-10.8504,-10.7691,0.0,-10.6995,-10.6492,-10.5912,-10.5487,-10.4403,-10.3398,-10.3011,-10.2392,-10.1889,-10.1696,-10.158,-10.1386,-10.0496,-9.9645,-9.8872,-9.8214,-9.7247,-9.6474,-9.6319,-9.628,-9.6048,-9.5352,-9.512,-9.4733,-9.4037,-9.3224,-9.276,-9.276,-9.2117,-9.1759,-9.1875,-9.1994,-9.2099,-9.211,-9.211,-9.211,-9.211,-9.211,-9.211,-9.211,-9.211,-9.211,-9.211,-9.3003,-9.3392,0.0,0.0,0.0,0.0,0.0,0.0,0.0,0.0,0.0,0.0,0.0,-10.0715,0.0,0.0,-10.952,-11.3198,-11.6504,-11.9699,-12.2485,-12.4096,-12.4611,-12.368,-12.4899,-12.5701,-12.5488,-12.579,-12.5902,-12.5489,-12.5114,-12.5001,-12.5489,-12.4288,-12.3987,-12.4814,-12.3612,-12.3199,-12.3612,-12.3199,-12.2786,-12.2373,-12.1997,-12.1397,-12.0495,-12.012,-11.9482,-11.8693,-11.8205,-11.8092,-11.7904,-11.6606,-11.5507,-11.4702,-11.5891,-11.6214,-11.6015,-11.559,-11.5418,-11.5118,-11.4306,-11.3416,-11.2488,-11.1211,-10.9896,-10.8697,-10.7885,-10.6995,-10.6299,-10.6299,-10.5719,-10.4984,-10.4597,-10.3784,-10.3088,-10.2701,-10.2199,-10.1889,-10.1889,-10.1889,-10.1812,-10.1309,-10.0496,-9.9684,-9.8833,-9.8021,-9.7286,-9.686,-9.6435,-9.5816,-9.4965,-9.4501,-9.3921,-9.3031,-9.2992,-9.2837,-9.2412,-9.1976,-9.1773,-9.1875,-9.1971,-9.2077,-9.211,-9.211,-9.211,-9.211,-9.211,-9.211,-9.211,-9.211,-9.211,-9.2148,-9.343,-9.4052,0.0,0.0,0.0,0.0,0.0,0.0,0.0,0.0,-9.9526,-10.1198,-10.2796,-10.4505,-10.6288,-11.082,-11.5018,-11.7024,-12.0405,-12.3377,-12.4974,-12.5792,-12.6192,-12.6103,-12.7285,-12.798,-12.7512,-12.819,-12.8005,-12.6691,-12.6616,-12.6616,-12.6616,-12.579,-12.5602,-12.609,-12.4814,-12.4288,-12.4889,-12.4175,-12.3875,-12.38,-12.2899,-12.1997,-12.1171,-12.0308,-11.9482,-11.8693,-11.8693,-11.8505,-11.8092,-11.73,-11.6005,-11.4702,-11.5715,-11.5586,-11.4791,-11.5093,-11.4993,-11.4809,-11.4306,-11.3223,-11.1908,-11.0709,-10.9393,-10.8078,-10.7305,-10.6415,-10.5719,-10.5719,-10.4984,-10.4017,-10.3398,-10.3088,-10.2779,-10.2082,-10.1889,-10.1889,-10.1889,-10.1889,-10.1889,-10.1889,-10.1193,-10.038,-9.9684,-9.8756,-9.7789,-9.6938,-9.6203,-9.5429,-9.4539,-9.3882,-9.3147,-9.2296,-9.2799,-9.2876,-9.2025,-9.2017,-9.2006,-9.1902,-9.1975,-9.2005,-9.2088,-9.2099,-9.211,-9.211,-9.211,-9.211,-9.211,-9.211,-9.2187,-9.2382,-9.378,-9.4518,-9.5251,-9.4711,-9.4346,-9.2895,-9.5067,-9.7933,0.0,0.0,-10.3799,-10.5396,-10.6994,-10.8925,-11.1303,-11.4015,-11.721,-12.0999,-12.3303,-12.5086,-12.6683,-12.6981,-12.7368,-12.8304,-12.8118,-12.7995,-12.8092,-12.841,-12.8493,-12.8306,-12.8306,-12.8306,-12.8306,-12.7517,-12.6691,-12.6128,-12.5902,-12.5489,-12.4889,-12.4814,-12.4776,-12.4701,-12.3199,-12.1997,-12.1171,-12.0308,-11.9482,-11.8693,-11.8693,-11.7904,-11.6478,-11.6398,-11.5613,-11.4678,-11.5304,-11.4895,-11.4104,-11.5302,-11.5818,-11.5389,-11.3223,-11.2295,-11.1714,-10.9316,-10.8504,-10.8078,-10.7305,-10.6415,-10.5719,-10.5719,-10.4597,-10.3282,-10.3204,-10.2585,-10.2005,-10.1889,-10.1889,-10.1889,-10.1889,-10.1889,-10.1889,-10.1889,-10.1193,-10.0613,-10.0496,-9.9143,-9.7789,-9.6938,-9.6706,-9.6358,-9.5468,-9.5274,-9.4888,-9.3998,-9.3998,-9.3727,-9.2915,-9.2907,-9.2638,-9.1876,-9.1912,-9.1983,-9.1994,-9.2077,-9.211,-9.211,-9.211,-9.211,-9.211,-9.211,-9.2498,-9.3275,-9.343,-9.3974,-9.3946,-9.4346,-9.5318,0.0,-9.8851,-10.1791,-10.3386,-10.5415,-10.7291,-10.8925,-11.1303,-11.3904,-11.6393,-11.9588,-12.2485,0.0,-12.6275,-12.7686,-12.7872,-12.7909,-12.7694,-12.7189,-12.7075,-12.7489,-12.8799,-12.8587,-12.8369,-12.8606,-12.8606,-12.8606,-12.8606,-12.7292,-12.6691,-12.6804,-12.5414,-12.4701,-12.4889,-12.3912,-12.3387,-12.3387,-12.2298,-12.1284,-12.0383,-12.0082,-11.9482,-11.858,-11.7679,-11.6778,-11.6213,-11.5997,-11.5086,-11.3912,-11.4911,-11.461,-11.3989,-11.5398,-11.5312,-11.419,-11.2604,-11.1792,-11.1018,-10.9007,-10.8001,-10.7498,-10.7111,-10.6415,-10.5719,-10.5719,-10.4519,-10.3204,-10.3204,-10.2585,-10.1889,-10.1889,-10.1889,-10.1889,-10.1889,-10.1889,-10.1889,-10.1889,-10.158,-10.0999,-9.9994,-9.9259,-9.833,-9.7015,-9.6358,-9.5893,-9.5545,-9.5042,-9.481,-9.4926,-9.4075,-9.3572,-9.3688,-9.2827,-9.2158,-9.1825,-9.1838,-9.1888,-9.1924,-9.1948,-9.1983,-9.2055,-9.1983,-9.2005,-9.211,-9.2582,-9.3009,-9.343,-9.4402,-9.5062,-9.3089,0.0,0.0,-9.9639,-10.2988,-10.6173,-10.7988,-10.9717,-11.1415,-11.3309,-11.6095,-11.8807,-12.0888,-12.4194,-12.6683,-12.6981,-12.8281,-12.9284,-12.9098,-12.8095,-12.6981,-12.5792,-12.5008,-12.5421,-12.7481,-12.7788,-12.81,-12.8606,-12.8606,-12.8606,-12.8606,-12.7404,-12.6916,-12.7292,-12.5114,-12.44,-12.5189,-12.3312,-12.2485,-12.2711,-12.1697,-12.0683,-11.9895,-11.9406,-11.8918,-11.828,-11.6778,-11.6102,-11.5911,-11.5804,-11.4995,-11.3685,-11.4588,-11.4522,-11.3873,-11.4818,-11.4383,-11.3107,-11.1792,-11.1018,-11.0206,-10.8504,-10.7498,-10.6995,-10.6995,-10.6415,-10.5719,-10.5719,-10.4713,-10.3514,-10.3282,-10.2701,-10.2199,-10.2005,-10.2082,-10.2315,-10.2315,-10.2392,-10.2508,-10.2315,-10.2315,-10.1812,-10.0303,-9.9839,-9.9259,-9.8021,-9.6899,-9.6125,-9.5893,-9.5313,-9.5158,-9.5777,-9.4772,-9.4075,-9.4191,-9.307,-9.2208,-9.1785,-9.2005,-9.2199,-9.2238,-9.2263,-9.23,-9.2336,-9.2067,-9.1936,-9.2055,-9.2875,-9.3419,-9.3697,-9.5184,-9.6011,0.0,0.0,-10.0608,-10.31,-10.6894,-11.0597,-11.3009,-11.4792,-11.669,-11.9105,-12.1594,-12.36,-12.4492,-12.6683,-12.8578,-12.947,-12.8912,-12.8987,-13.0584,-12.7389,-12.49,-12.4789,-12.2174,-12.1123,0.0,-12.5498,-12.75,-12.8491,-12.8606,-12.8606,-12.8606,-12.8606,-12.8118,-12.7292,-12.5715,-12.5189,-12.609,-12.3612,-12.2786,-12.3499,-12.1997,-12.0683,-11.9819,-11.8205,-11.7491,-11.7416,-11.659,-11.5802,-11.5122,-11.5615,-11.5298,-11.4588,-11.4895,-11.4522,-11.3796,-11.3505,-11.33,-11.2914,-11.0399,-10.9587,-10.9316,-10.7614,-10.6995,-10.6995,-10.6995,-10.6415,-10.5719,-10.5719,-10.51,-10.421,-10.3398,-10.3204,-10.2895,-10.2082,-10.2508,-10.3204,-10.3204,-10.3784,-10.4094,-10.3282,-10.3204,-10.2895,-10.2005,-10.1077,-10.0496,-10.0496,-9.9065,-9.7711,-9.686,-9.6744,-9.6744,-9.6744,-9.6706,-9.6009,-9.4346,-9.4153,-9.3418,-9.1793,-9.2559,-9.3064,-9.3064,-9.3129,-9.3167,-9.3167,-9.2314,-9.1888,-9.1888,-9.278,-9.3594,-9.4382,-9.5374,-9.6252,0.0,0.0,-10.5306,-10.9407,-11.2699,-11.5724,-11.8807,-12.0702,-12.2114,-12.2968,-12.2894,-12.2485,-12.1668,-12.308,-12.438,-12.4677,-12.7278,-12.947,-12.999,-12.9395,-12.7204,-12.2894,-12.2998,0.0,0.0,0.0,0.0,-12.7517,-12.7217,-12.7404,-12.8493,-12.7517,-12.6804,-12.6503,-12.4889,-12.3912,-12.3612,-12.2298,-12.1397,-12.1096,-12.0082,-11.9406,-11.8993,-11.7379,-11.6891,-11.7304,-11.5389,-11.4713,-11.501,-11.4405,-11.3911,-11.3505,-11.3427,-11.3096,-11.2695,-11.2513,-11.2488,-11.2217,-11.0206,-10.92,-10.8504,-10.7382,-10.6995,-10.6995,-10.6995,-10.6802,-10.6608,-10.6608,-10.5912,-10.5216,-10.4906,-10.4403,-10.3901,-10.3591,-10.3784,-10.4017,-10.4017,-10.421,-10.421,-10.3398,-10.3204,-10.2701,-10.1309,-10.0806,-10.038,-9.9839,-9.8794,-9.7789,-9.6899,-9.6783,-9.6783,-9.6783,-9.5777,-9.4849,-9.423,-9.3186,-9.2567,-9.2567,-9.2852,-9.302,-9.302,-9.3048,-9.2818,-9.2277,-9.1928,-9.1799,-9.1888,-9.3271,-9.4085,-9.4447,-9.5907,-9.6773,0.0,-10.4991,-11.0624,-11.5225,-11.8213,-12.0702,-12.3377,-12.4677,-12.5086,-12.4863,-12.2783,-12.0479,-11.8882,-11.8696,-11.9105,-11.9996,-12.2783,-12.5792,-12.8392,-12.7501,-12.5383,-12.23,-12.2073,-12.1093,0.0,0.0,0.0,-12.609,-12.6203,-12.6691,-12.8118,-12.7404,-12.6916,-12.6503,-12.4889,-12.3687,-12.2786,-12.1997,-12.1209,-12.0383,-11.9181,-11.8693,-11.858,-11.7003,-11.6478,-11.6816,-11.4713,-11.3887,-11.4108,-11.3574,-11.3114,-11.2628,-11.2483,-11.2382,-11.2213,-11.2088,-11.1714,-11.1018,-10.9896,-10.92,-10.8504,-10.7382,-10.6995,-10.6995,-10.6995,-10.6995,-10.6995,-10.6995,-10.6608,-10.6105,-10.5796,-10.5293,-10.479,-10.4519,-10.4597,-10.4906,-10.4906,-10.51,-10.51,-10.4287,-10.3784,-10.3204,-10.1812,-10.1309,-10.069,-9.9491,-9.9143,-9.8678,-9.7827,-9.7673,-9.7595,-9.7286,-9.6241,-9.5352,-9.4733,-9.3688,-9.3147,-9.3418,-9.3418,-9.3418,-9.3418,-9.3147,-9.2774,-9.2249,-9.1898,-9.1719,-9.1812,-9.3476,-9.429,-9.4369,-9.6139,-9.6966,-10.5168,-11.0932,-11.6196,-12.0307,-12.308,-12.5272,-12.6795,-12.6498,-12.568,-12.4677,-12.1111,-11.773,0.0,0.0,-11.3198,-11.5724,-11.643,-11.9216,-12.6386,-12.2708,-12.0294,0.0,0.0,0.0,0.0,0.0,0.0,-12.4513,0.0,-12.6315,-12.7292,-12.8118,-12.8118,-12.7292,-12.5602,-12.44,-12.3499,-12.2711,-12.1885,-12.1096,-11.9482,-11.8693,-11.858,-11.6891,-11.6177,-11.5989,-11.43,-11.3211,-11.2495,-11.2974,-11.2797,-11.2105,-11.2326,-11.2406,-11.2415,-11.2191,-11.1018,-10.9587,-10.9587,-10.9509,-10.9084,-10.7614,-10.6995,-10.6995,-10.6995,-10.6995,-10.6995,-10.6995,-10.6995,-10.6802,-10.5989,-10.5796,-10.5603,-10.4713,-10.5216,-10.5796,-10.5796,-10.6415,-10.6686,-10.5796,-10.4906,-10.4017,-10.3282,-10.2392,-10.1309,-9.9684,-10.011,-10.0303,-9.9375,-9.9259,-9.8988,-9.8176,-9.806,-9.7363,-9.5623,-9.5468,-9.5081,-9.4307,-9.423,-9.4191,-9.4191,-9.3418,-9.2992,-9.2915,-9.2102,-9.1716,-9.1754,-9.3379,-9.423,-9.4322,-9.6082,-9.6884,-11.0406,-11.601,-12.1006,-12.3296,-12.5197,-12.6498,-12.6312,-12.6089,-12.49,-12.0999,-11.643,-11.1712,0.0,0.0,0.0,-11.4015,-11.9513,0.0,-12.9284,-12.869,0.0,-12.3786,0.0,-12.2805,-12.0098,-12.0298,0.0,0.0,-12.3912,-12.4814,-12.8118,-12.7292,-12.6616,-12.6391,-12.4213,-12.2899,-12.2711,-12.1284,-12.042,-12.0195,-11.9181,-11.8393,-11.7717,-11.6703,-11.5501,-11.43,-11.3286,-11.231,-11.1596,-11.1089,-11.1203,-11.1729,-11.1213,-11.1512,-11.2191,-11.2105,-11.1405,-11.0515,-11.0515,-10.92,-10.7691,-10.7885,-10.7498,-10.6995,-10.6995,-10.6995,-10.6995,-10.6995,-10.6995,-10.6879,-10.6686,-10.6686,-10.6608,-10.6415,-10.6492,-10.6686,-10.6686,-10.6802,-10.6608,-10.4984,-10.3514,-10.2508,-10.2315,-10.1502,-10.0999,-10.1193,-10.0883,-10.011,-9.8601,-9.8949,-9.8988,-9.8176,-9.7518,-9.6706,-9.5584,-9.4888,-9.4694,-9.512,-9.4539,-9.4191,-9.4191,-9.3418,-9.2683,-9.2025,-9.1793,-9.2025,-9.2683,-9.3688,-9.4539,-9.5197,-9.6295,-9.6464,-11.5673,-12.0881,-12.5197,-12.6089,-12.7092,-12.7278,-12.5792,-12.4083,-12.1408,-11.643,-11.1229,0.0,-10.2387,0.0,0.0,0.0,0.0,0.0,-12.7984,-12.8095,-12.7204,0.0,-12.5969,0.0,-12.2414,-12.2689,-12.379,0.0,-12.4213,-12.4814,-12.7893,-12.7517,-12.6991,-12.6616,-12.4889,-12.3687,-12.2899,-12.0908,-12.0082,-12.0495,-11.9294,-11.8205,-11.7416,-11.659,-11.5276,-11.3699,0.0,-11.1822,-11.073,-11.0507,-11.0515,-11.0793,-11.0791,-11.1187,-11.1712,-11.1606,-11.1018,-11.0283,-11.0709,-10.9084,-10.7111,-10.8001,-10.8001,-10.7498,-10.7111,-10.6995,-10.6995,-10.6995,-10.6995,-10.6995,-10.6995,-10.6995,-10.6995,-10.6995,-10.6995,-10.6995,-10.6995,-10.6995,-10.6608,-10.5216,-10.3901,-10.2895,-10.2508,-10.1696,-10.1193,-10.1309,-10.1193,-10.069,-9.9375,-9.9916,-9.9994,-9.8756,-9.8176,-9.7402,-9.6164,-9.5623,-9.5545,-9.6048,-9.4888,-9.4191,-9.4191,-9.307,-9.2373,-9.2257,-9.2257,-9.2683,-9.3534,-9.4346,-9.5004,-9.5506,-9.6396,-9.6319,-12.0822,-12.5272,-12.8578,-12.869,-12.8504,-12.7501,-12.4603,-12.0888,-11.643,-11.1117,0.0,-10.1718,-9.9972,-10.0009,-10.2015,-10.7402,0.0,-11.721,-12.5495,-12.5272,-12.5383,-12.8392,-12.7606,-12.6299,-12.5095,-12.5004,-12.5398,-12.6499,-12.5675,-12.5902,-12.7404,-12.8118,-12.7893,-12.6804,-12.6203,-12.5114,-12.3499,-12.1209,-12.0495,-12.1171,-11.9406,-11.8092,-11.7191,-11.6403,-11.5088,-11.3286,-11.261,0.0,-10.9903,-11.0511,-11.0287,-10.9809,-11.0916,-11.1295,-11.1399,-11.1089,-11.0322,-10.9587,-11.0515,-10.92,-10.7305,-10.8194,-10.831,-10.8001,-10.7189,-10.6995,-10.6995,-10.6995,-10.6995,-10.6995,-10.6995,-10.6995,-10.6995,-10.6995,-10.6995,-10.6995,-10.6995,-10.6879,-10.6608,-10.5796,-10.5022,-10.421,-10.3514,-10.2701,-10.1889,-10.1077,-10.158,-10.1812,-10.0883,-10.1386,-10.1193,-9.9491,-9.9413,-9.8756,-9.6938,-9.6899,-9.6938,-9.6822,-9.5158,-9.4191,-9.4191,-9.2683,-9.2218,-9.2992,-9.3108,-9.3572,-9.4346,-9.512,-9.5545,-9.57,-9.6435,-9.6319,-12.5709,-12.8281,-12.9581,-13.0287,-12.8875,-12.6089,-12.0888,-11.7099,0.0,0.0,-10.131,-9.9006,-9.6666,-9.8486,-10.2796,-11.0411,0.0,0.0,0.0,0.0,-12.9098,0.0,0.0,0.0,0.0,0.0,0.0,0.0,0.0,-12.7292,-12.8306,-12.7817,-12.6503,-12.4325,-12.4814,-12.4288,-12.2598,-12.1509,-12.1096,-12.1171,-11.8806,-11.7191,-11.6403,-11.5614,-11.3887,-11.1709,-11.1596,0.0,-10.9111,-10.9604,-10.998,-11.0308,-11.0993,-11.1595,-11.2014,-11.1912,-11.0902,-10.9587,-11.0515,-10.9587,-10.8194,-10.9007,-10.8388,-10.7189,-10.6995,-10.6995,-10.6995,-10.6995,-10.6995,-10.6995,-10.6995,-10.6995,-10.6995,-10.6995,-10.6995,-10.6995,-10.6995,-10.6415,-10.5912,-10.5719,-10.5022,-10.4403,-10.421,-10.4094,-10.3707,-10.2895,-10.2895,-10.2701,-10.1812,-10.1812,-10.1193,-9.9491,-9.9955,-9.9413,-9.7015,-9.7479,-9.7557,-9.686,-9.5158,-9.4191,-9.4191,-9.3263,-9.2837,-9.2992,-9.365,-9.4423,-9.5274,-9.5429,-9.5855,-9.659,-9.6744,-9.6319,-12.8209,-13.0287,-13.1402,-13.0473,-12.7798,-12.3674,-11.7507,0.0,0.0,0.0,-9.7372,-9.6294,-9.5551,0.0,0.0,0.0,0.0,0.0,0.0,0.0,0.0,0.0,0.0,0.0,0.0,0.0,0.0,0.0,0.0,-12.8193,-12.8606,-12.8193,-12.6991,-12.5001,-12.5302,-12.4701,-12.3011,-12.1772,-12.1171,-12.1171,-11.8618,-11.7003,-11.6177,-11.4901,-11.3211,-11.1296,-11.0808,0.0,-10.8919,-10.9702,-11.0226,-11.05,-11.1414,-11.1902,-11.2024,-11.1095,-11.0206,-10.9509,-10.9509,-10.8697,-10.7807,-10.8581,-10.831,-10.7614,-10.7111,-10.6995,-10.6995,-10.6995,-10.6995,-10.6995,-10.6995,-10.6995,-10.6995,-10.6995,-10.6995,-10.6995,-10.6995,-10.6686,-10.6415,-10.6415,-10.5719,-10.51,-10.51,-10.4713,-10.4094,-10.3282,-10.3204,-10.2895,-10.2005,-10.1889,-10.1386,-10.011,-9.9955,-9.9413,-9.8214,-9.8098,-9.7905,-9.7518,-9.5855,-9.4888,-9.4888,-9.4075,-9.3843,-9.4307,-9.4694,-9.5313,-9.6164,-9.6164,-9.6396,-9.6783,-9.6783,-9.6087,-12.9906,-13.1699,-13.2776,-13.0473,-12.6386,-12.1297,-11.4795,-10.822,0.0,0.0,-9.4622,-9.4437,-9.5254,0.0,-10.1012,0.0,-10.7105,0.0,0.0,0.0,0.0,0.0,0.0,0.0,0.0,0.0,0.0,0.0,0.0,0.0,-12.8606,-12.8606,-12.7817,-12.6203,-12.6128,-12.5189,-12.3387,-12.1885,-12.1096,-12.0908,-11.8393,-11.6816,-11.6102,-11.4488,-11.2798,-11.1296,-11.062,0.0,0.0,-10.9979,-11.0423,-11.0487,-11.1713,-11.2101,-11.1908,-11.0399,-10.9703,-10.9393,-10.8813,-10.7885,-10.7111,-10.8001,-10.8194,-10.7885,-10.7189,-10.6995,-10.6995,-10.6995,-10.6995,-10.6995,-10.6995,-10.6995,-10.6995,-10.6995,-10.6995,-10.6995,-10.6995,-10.6995,-10.6995,-10.6995,-10.6415,-10.5989,-10.5989,-10.5409,-10.4597,-10.3591,-10.3514,-10.3088,-10.2005,-10.1696,-10.1386,-10.0883,-10.0303,-9.9723,-9.9336,-9.8911,-9.8485,-9.8137,-9.6628,-9.57,-9.5506,-9.4849,-9.481,-9.5468,-9.5661,-9.6125,-9.6783,-9.6783,-9.6783,-9.6783,-9.6783,-9.6087,-13.1564,-13.259,-13.2888,-13.1179,-12.5978,-11.9588,-11.3012,0.0,0.0,-9.5328,-9.4251,-9.4437,-9.5254,-9.57,-9.7483,-10.209,0.0,-10.7997,0.0,0.0,0.0,0.0,0.0,0.0,0.0,0.0,0.0,0.0,0.0,0.0,-12.8606,-12.8606,-12.7817,-12.6203,-12.6128,-12.4926,-12.2485,-12.1584,-12.0796,-12.0007,-11.7491,-11.629,-11.6102,-11.4488,-11.2798,-11.1296,-11.1183,0.0,0.0,-10.9979,-11.0423,-11.0487,-11.1713,-11.2101,-11.2024,-11.1018,-11.0206,-10.9509,-10.9393,-10.831,-10.7111,-10.8001,-10.7807,-10.7111,-10.6995,-10.6995,-10.6995,-10.6995,-10.6995,-10.6995,-10.6995,-10.6995,-10.6995,-10.6995,-10.6995,-10.6995,-10.6995,-10.6995,-10.6995,-10.6995,-10.6879,-10.6879,-10.6879,-10.6802,-10.6183,-10.4519,-10.4287,-10.3707,-10.2082,-10.1193,-10.0999,-10.1696,-10.1696,-10.0999,-9.9452,-9.9955,-9.9723,-9.8214,-9.7209,-9.6319,-9.5545,-9.5429,-9.5429,-9.5506,-9.628,-9.6706,-9.6783,-9.6783,-9.6783,-9.6783,-9.6783,-9.6706,-13.1011,-13.2999,-13.3482,-13.1402,-12.5197,-11.8102,-11.2603,0.0,0.0,-9.5626,-9.4548,-9.4437,-9.5254,-9.5811,-9.6443,-9.7409,0.0,0.0,0.0,0.0,0.0,0.0,0.0,0.0,0.0,0.0,0.0,0.0,0.0,0.0,-12.8606,-12.8606,-12.7817,-12.6203,-12.5602,-12.44,-12.241,-12.1096,-12.0195,-11.9895,-11.7379,-11.6177,-11.6102,-11.3999,-11.2385,-11.1296,-11.0695,0.0,0.0,-10.9979,-11.0423,-11.0487,-11.1713,-11.2101,-11.2024,-11.1095,-11.0593,-11.009,-10.9084,-10.831,-10.7807,-10.7614,-10.7305,-10.6995,-10.6995,-10.6995,-10.6995,-10.6995,-10.6995,-10.6995,-10.6995,-10.6995,-10.6995,-10.6995,-10.6995,-10.6995,-10.6995,-10.6995,-10.6995,-10.6995,-10.6995,-10.6995,-10.6995,-10.6995,-10.6415,-10.4713,-10.4403,-10.3784,-10.2082,-10.158,-10.1502,-10.1889,-10.1386,-10.0999,-10.0883,-10.069,-10.011,-9.8911,-9.806,-9.7209,-9.6319,-9.628,-9.628,-9.628,-9.6628,-9.6783,-9.6783,-9.6783,-9.6783,-9.6783,-9.6783,-9.6512,-12.8578,-13.181,-13.3185,-13.077,-12.4194,-11.7024,0.0,0.0,0.0,-9.5923,-9.4957,-9.466,-9.4994,-9.57,-9.5811,-9.44,0.0,-9.7966,0.0,0.0,0.0,0.0,0.0,0.0,0.0,0.0,0.0,0.0,0.0,0.0,-12.8193,-12.8193,-12.7592,-12.6128,-12.5114,-12.3687,-12.211,-12.0383,-11.9406,-11.9106,-11.6891,-11.5802,-11.5802,-11.3511,-11.2084,-11.1296,-11.0395,0.0,0.0,-11.0025,-11.0525,-11.0783,-11.1674,-11.2101,-11.2024,-11.0786,-11.0399,-11.0206,-10.8813,-10.8078,-10.7885,-10.7498,-10.7189,-10.6995,-10.6995,-10.6995,-10.6995,-10.6995,-10.6995,-10.6995,-10.6995,-10.6995,-10.6995,-10.6995,-10.6995,-10.6995,-10.6995,-10.6995,-10.6995,-10.6995,-10.6995,-10.6995,-10.6995,-10.6995,-10.6415,-10.4713,-10.4403,-10.3784,-10.2082,-10.1889,-10.1889,-10.1889,-10.1386,-10.1193,-10.1812,-10.1309,-10.0496,-9.9375,-9.8756,-9.7943,-9.686,-9.6783,-9.6783,-9.6783,-9.6783,-9.6783,-9.6783,-9.6783,-9.6783,-9.6783,-9.6783,-9.6474,-12.4194,-12.8392,-13.1513,-12.8987,-12.2894,-11.6133,0.0,0.0,0.0,-9.5923,-9.5403,-9.5143,-9.4362,-9.4883,-9.5143,-9.4325,-9.4883,0.0,0.0,0.0,0.0,0.0,0.0,0.0,0.0,0.0,0.0,0.0,0.0,0.0,0.0,-12.7292,-12.6916,-12.6128,-12.4513,-12.2786,-12.1171,-11.9482,-11.828,-11.7416,-11.5802,-11.5013,-11.5013,-11.3323,-11.2084,0.0,0.0,0.0,0.0,-11.0188,-11.0798,-11.1295,-11.1902,-11.2101,-11.1908,-11.0206,-10.9509,-10.9393,-10.8581,-10.7691,-10.7189,-10.8001,-10.7691,-10.6995,-10.6995,-10.6995,-10.6995,-10.6995,-10.6995,-10.6995,-10.6995,-10.6995,-10.6995,-10.6995,-10.6995,-10.6995,-10.6995,-10.6995,-10.6995,-10.6995,-10.6995,-10.6995,-10.6995,-10.6995,-10.6415,-10.4713,-10.4403,-10.3784,-10.2082,-10.1889,-10.1889,-10.1889,-10.1889,-10.1889,-10.1889,-10.1889,-10.1115,-9.9413,-9.9297,-9.8562,-9.686,-9.6783,-9.6783,-9.6783,-9.6783,-9.6783,-9.6783,-9.6783,-9.6783,-9.6783,-9.6783,-9.6783,-11.6318,-11.9996,-12.23,-11.9885,-11.4907,-11.0003,-10.7402,0.0,0.0,-9.726,-9.6629,-9.596,-9.518,-9.5663,-9.5774,-9.44,-9.4883,0.0,0.0,0.0,0.0,0.0,0.0,0.0,0.0,0.0,0.0,0.0,0.0,0.0,0.0,-12.5677,-12.4701,-12.44,-12.3312,-12.1997,-12.0308,-11.8618,-11.7717,-11.7416,-11.5802,-11.4713,-11.4112,-11.3023,-11.1709,0.0,0.0,0.0,0.0,-11.0188,-11.0822,-11.141,-11.1902,-11.1714,-11.1095,-11.0593,-11.0012,-10.9393,-10.8581,-10.8078,-10.7807,-10.7498,-10.7189,-10.6995,-10.6995,-10.6995,-10.6995,-10.6995,-10.6995,-10.6995,-10.6995,-10.6995,-10.6995,-10.6995,-10.6995,-10.6995,-10.6995,-10.6995,-10.6995,-10.6995,-10.6995,-10.6995,-10.6995,-10.6492,-10.5719,-10.4597,-10.3901,-10.3398,-10.2895,-10.2817,-10.2817,-10.2817,-10.2817,-10.2508,-10.2005,-10.1889,-10.1193,-9.9413,-9.9878,-9.9181,-9.6899,-9.7363,-9.7402,-9.6822,-9.6783,-9.6783,-9.6783,-9.6783,-9.6783,-9.6783,-9.6783,-9.6783,0.0,-11.3421,-11.591,-11.4089,-11.0597,0.0,0.0,0.0,0.0,-9.7966,-9.7483,-9.674,-9.5626,-9.5811,-9.5737,-9.44,0.0,0.0,0.0,0.0,0.0,0.0,0.0,0.0,0.0,0.0,0.0,0.0,0.0,0.0,-12.6391,-12.4588,-12.3199,-12.2185,-12.1697,-12.0796,-11.9482,-11.7792,-11.659,-11.5989,-11.4713,-11.3624,-11.2798,-11.1897,-11.0995,0.0,0.0,0.0,0.0,-10.9886,-11.0379,-11.1095,-11.1511,-11.1095,-11.0283,-11.0283,-10.9819,-10.8891,-10.8078,-10.7807,-10.7691,-10.7189,-10.6995,-10.6995,-10.6995,-10.6995,-10.6995,-10.6995,-10.6995,-10.6995,-10.6995,-10.6995,-10.6995,-10.6995,-10.6995,-10.6995,-10.6995,-10.6995,-10.6995,-10.6995,-10.6995,-10.6995,-10.6995,-10.6299,-10.5409,-10.4519,-10.4017,-10.3514,-10.3204,-10.3204,-10.3204,-10.3204,-10.2895,-10.2508,-10.1889,-10.1889,-10.1309,-9.9878,-9.9994,-9.9259,-9.7363,-9.7518,-9.7363,-9.6822,-9.6783,-9.6783,-9.6783,-9.6783,-9.6783,-9.6783,-9.6783,-9.6783,0.0,-10.7922,0.0,0.0,0.0,0.0,0.0,0.0,0.0,-9.7966,-9.7817,-9.7297,-9.5626,-9.5365,-9.5143,0.0,0.0,0.0,0.0,0.0,0.0,0.0,0.0,0.0,0.0,0.0,0.0,0.0,0.0,0.0,-12.4889,-12.3875,-12.2298,-11.9895,-11.9819,-11.9406,-11.858,-11.7003,-11.5389,-11.3699,-11.291,-11.2009,-11.1183,-11.0395,-11.0019,0.0,0.0,0.0,0.0,-10.9481,-10.9908,-11.0902,-11.0786,-11.0206,-10.9509,-10.9393,-10.8891,-10.8078,-10.7305,-10.6995,-10.6995,-10.6995,-10.6995,-10.6995,-10.6995,-10.6995,-10.6995,-10.6995,-10.6995,-10.6995,-10.6995,-10.6995,-10.6995,-10.6995,-10.6995,-10.6995,-10.6995,-10.6995,-10.6995,-10.6995,-10.6995,-10.6995,-10.6995,-10.6299,-10.5409,-10.4597,-10.4403,-10.4094,-10.3398,-10.3282,-10.3282,-10.3204,-10.2508,-10.2005,-10.1889,-10.1889,-10.1502,-10.0613,-9.9878,-9.9027,-9.806,-9.7325,-9.6938,-9.6783,-9.6783,-9.6783,-9.6783,-9.6783,-9.6783,-9.6783,-9.6783,-9.6783,-9.7409,0.0,-10.1087,-10.0307,-9.9638,-9.9229,0.0,-9.8226,-9.7149,-9.6926,-9.6926,-9.6406,-9.4771,0.0,0.0,0.0,0.0,0.0,0.0,0.0,0.0,0.0,0.0,0.0,0.0,0.0,0.0,0.0,0.0,-12.4603,-12.3912,-12.1885,-12.0195,-11.8993,-11.8318,-11.7904,-11.7717,-11.6703,-11.5389,-11.3699,-11.291,-11.1709,-11.032,-11.0094,-10.9719,0.0,0.0,0.0,-11.0309,-10.9481,-11.0216,-11.1714,-11.0322,-10.9703,-10.9393,-10.8813,-10.8001,-10.7305,-10.7111,-10.6995,-10.6995,-10.6995,-10.6995,-10.6995,-10.6995,-10.6995,-10.6995,-10.6995,-10.6995,-10.6995,-10.6995,-10.6995,-10.6995,-10.6995,-10.6995,-10.6995,-10.6995,-10.6995,-10.6995,-10.6995,-10.6995,-10.6995,-10.6995,-10.6299,-10.5603,-10.5409,-10.479,-10.4287,-10.4094,-10.4094,-10.3901,-10.3282,-10.3011,-10.2585,-10.2005,-10.1889,-10.1193,-9.9723,-10.069,-9.9994,-9.7209,-9.8137,-9.8098,-9.6822,-9.6783,-9.6783,-9.6783,-9.6783,-9.6783,-9.6783,-9.6783,-9.6783,-9.596,-9.6331,-9.674,-9.6629,-9.6591,-9.6814,-9.7706,-9.7557,-9.7074,-9.6703,-9.6926,-9.6591,0.0,0.0,0.0,0.0,0.0,0.0,0.0,0.0,0.0,0.0,0.0,0.0,0.0,0.0,0.0,0.0,0.0,-12.3926,-12.3124,-12.0683,-11.8993,-11.8092,-11.7304,-11.6515,-11.5689,-11.5314,-11.3999,-11.2009,-11.1596,-11.0695,-10.9418,-10.9418,-10.9193,0.0,0.0,0.0,-10.9812,-10.8908,-10.9294,-11.0283,-10.9316,-10.8697,-10.831,-10.831,-10.7691,-10.6995,-10.6995,-10.6995,-10.6995,-10.6995,-10.6995,-10.6995,-10.6995,-10.6995,-10.6995,-10.6995,-10.6995,-10.6995,-10.6995,-10.6995,-10.6995,-10.6995,-10.6995,-10.6995,-10.6995,-10.6995,-10.6995,-10.6995,-10.6995,-10.6995,-10.6995,-10.6299,-10.5719,-10.5719,-10.5293,-10.4906,-10.4519,-10.4403,-10.4094,-10.3282,-10.2817,-10.2392,-10.1889,-10.1889,-10.1502,-10.0613,-10.0613,-9.9878,-9.8021,-9.8098,-9.775,-9.6822,-9.6783,-9.6783,-9.6783,-9.6783,-9.6783,-9.6783,-9.6783,-9.6783,-9.6814,-9.6294,-9.5923,-9.648,-9.6591,-9.6814,-9.7706,-9.778,-9.7483,-9.674,-9.7074,0.0,0.0,-9.4845,0.0,0.0,0.0,0.0,0.0,0.0,0.0,0.0,0.0,0.0,0.0,0.0,0.0,0.0,0.0,-12.3175,-12.1884,-11.9707,-11.8092,-11.7116,-11.6215,-11.5013,-11.3286,-11.3586,-11.2497,-11.0019,-11.0019,-10.9606,-10.8818,-10.8818,-10.8818,-10.8818,0.0,0.0,-10.9099,-10.8106,-10.8004,-10.8504,-10.8194,-10.7691,-10.7305,-10.7885,-10.7614,-10.6995,-10.6995,-10.6995,-10.6995,-10.6995,-10.6995,-10.6995,-10.6995,-10.6995,-10.6995,-10.6995,-10.6995,-10.6995,-10.6995,-10.6995,-10.6995,-10.6995,-10.6995,-10.6995,-10.6995,-10.6995,-10.6995,-10.6995,-10.6995,-10.6995,-10.6995,-10.6415,-10.5912,-10.5912,-10.5796,-10.5409,-10.4519,-10.4287,-10.3901,-10.3088,-10.2315,-10.1889,-10.1889,-10.1889,-10.1889,-10.1889,-10.0419,-9.9375,-9.9143,-9.7634,-9.6783,-9.6783,-9.6783,-9.6783,-9.6783,-9.6783,-9.6783,-9.6783,-9.6783,-9.6783,-9.7706,-9.7595,-9.7372,-9.674,-9.6591,-9.6814,-9.7706,-9.7334,-9.6777,0.0,0.0,0.0,0.0,-9.4845,-9.5105,0.0,0.0,0.0,0.0,0.0,0.0,0.0,0.0,0.0,0.0,0.0,0.0,0.0,0.0,0.0,-11.9406,-11.8205,-11.6891,-11.5426,-11.4488,-11.3286,-11.1709,-11.2986,-11.2497,-11.0019,-11.0019,-10.9606,-10.8818,-10.8818,-10.8818,-10.878,0.0,-10.8311,-10.9099,-10.7495,-10.7795,-10.92,-10.7807,-10.7614,-10.8001,-10.7382,-10.7111,-10.6995,-10.6995,-10.6995,-10.6995,-10.6995,-10.6995,-10.6995,-10.6995,-10.6995,-10.6995,-10.6995,-10.6995,-10.6995,-10.6995,-10.6995,-10.6995,-10.6995,-10.6995,-10.6995,-10.6995,-10.6995,-10.6995,-10.6995,-10.6995,-10.6995,-10.6995,-10.6879,-10.6802,-10.6802,-10.6183,-10.5409,-10.4519,-10.3784,-10.3088,-10.2199,-10.2005,-10.1889,-10.1889,-10.1889,-10.1889,-10.1889,-10.0999,-9.9762,-9.833,-9.7325,-9.6783,-9.6783,-9.6783,-9.6783,-9.6783,-9.6783,-9.6783,-9.6783,-9.6783,-9.6783,-9.7892,-9.7892,-9.778,-9.7409,-9.7297,-9.7409,-9.7817,-9.7223,-9.6591,-9.6591,-9.596,0.0,0.0,0.0,0.0,0.0,0.0,0.0,0.0,0.0,0.0,0.0,0.0,0.0,0.0,0.0,0.0,0.0,0.0,0.0,-11.8806,-11.7003,-11.5501,-11.43,-11.3511,-11.231,-11.062,-11.1296,-11.092,-10.9418,-10.9418,-10.9193,-10.8818,-10.8818,-10.8592,-10.8104,0.0,-10.7706,-10.78,-10.6998,-10.7296,-10.8078,-10.7305,-10.7189,-10.7498,-10.7111,-10.6995,-10.6995,-10.6995,-10.6995,-10.6995,-10.6995,-10.6995,-10.6995,-10.6995,-10.6995,-10.6995,-10.6995,-10.6995,-10.6995,-10.6995,-10.6995,-10.6995,-10.6995,-10.6995,-10.6995,-10.6995,-10.6995,-10.6995,-10.6995,-10.6995,-10.6995,-10.6995,-10.6995,-10.6995,-10.6995,-10.6299,-10.5409,-10.4519,-10.3707,-10.3011,-10.2585,-10.2199,-10.2082,-10.2585,-10.2199,-10.1696,-10.1193,-10.038,-9.9375,-9.8137,-9.7247,-9.6783,-9.6783,-9.6783,-9.6783,-9.6783,-9.6783,-9.6783,-9.6783,-9.6783,-9.6783,-9.7892,-9.804,-9.8152,-9.7966,-9.7892,-9.8003,-9.8375,-9.7966,-9.7557,-9.7966,-9.726,0.0,0.0,0.0,0.0,0.0,0.0,0.0,0.0,0.0,0.0,0.0,0.0,0.0,0.0,0.0,0.0,0.0,0.0,0.0,-11.8205,-11.6102,-11.4525,-11.3511,-11.261,-11.1521,-11.0019,-10.9831,-10.9418,-10.8818,-10.8818,-10.8705,-10.8517,-10.8705,-10.8217,-10.7312,-10.7407,-10.7183,-10.6692,-10.661,-10.6689,-10.6995,-10.6995,-10.6995,-10.6995,-10.6995,-10.6995,-10.6995,-10.6995,-10.6995,-10.6995,-10.6995,-10.6995,-10.6995,-10.6995,-10.6995,-10.6995,-10.6995,-10.6995,-10.6995,-10.6995,-10.6995,-10.6995,-10.6995,-10.6995,-10.6995,-10.6995,-10.6995,-10.6995,-10.6995,-10.6995,-10.6995,-10.6995,-10.6995,-10.6879,-10.6686,-10.6105,-10.5409,-10.4519,-10.3901,-10.3514,-10.3514,-10.2701,-10.2392,-10.2895,-10.2315,-10.158,-10.0883,-9.9878,-9.8949,-9.8137,-9.7247,-9.6783,-9.6783,-9.6783,-9.6783,-9.6783,-9.6783,-9.6783,-9.6783,-9.6783,-9.6783,-9.7892,-9.8449,-9.882,-9.8077,-9.7892,-9.83,-9.9786,-10.0084,-10.0492,-10.2015,-10.1012,-9.9712,0.0,0.0,0.0,0.0,0.0,0.0,0.0,0.0,0.0,0.0,0.0,0.0,0.0,0.0,0.0,0.0,0.0,0.0,-11.6366,-11.5501,-11.43,-11.261,-11.1822,-11.092,-11.0019,-10.9306,-10.8893,-10.8818,-10.8818,-10.8405,-10.7691,-10.848,-10.7916,-10.641,-10.6904,-10.7016,-10.6704,-10.6403,-10.6507,-10.6995,-10.6995,-10.6995,-10.6995,-10.6995,-10.6995,-10.6995,-10.6995,-10.6995,-10.6995,-10.6995,-10.6995,-10.6995,-10.6995,-10.6995,-10.6995,-10.6995,-10.6995,-10.6995,-10.6995,-10.6995,-10.6995,-10.6995,-10.6995,-10.6995,-10.6995,-10.6995,-10.6995,-10.6995,-10.6995,-10.6995,-10.6995,-10.6995,-10.6686,-10.5912,-10.5719,-10.5409,-10.4519,-10.4287,-10.4287,-10.4287,-10.3591,-10.2817,-10.2082,-10.1889,-10.1889,-10.1812,-10.0187,-9.8949,-9.8137,-9.7247,-9.6783,-9.6783,-9.6783,-9.6783,-9.6783,-9.6783,-9.6783,-9.6783,-9.6783,-9.6783,-9.7743,-9.7743,-9.7483,-9.7186,-9.7074,-9.778,-10.0418,-10.1012,-10.1495,-10.3204,-10.3019,-10.2498,-10.2201,0.0,0.0,0.0,0.0,0.0,0.0,0.0,0.0,0.0,0.0,0.0,0.0,0.0,0.0,0.0,0.0,0.0,0.0,-11.4187,-11.291,-11.1784,-11.092,-11.032,-11.0019,-10.9193,-10.8818,-10.8818,-10.8292,-10.7879,-10.7578,-10.7391,-10.6602,-10.5584,-10.6095,-10.6197,-10.5901,-10.6101,-10.6506,-10.6995,-10.6995,-10.6995,-10.6995,-10.6995,-10.6995,-10.6995,-10.6995,-10.6995,-10.6995,-10.6995,-10.6995,-10.6995,-10.6995,-10.6995,-10.6995,-10.6995,-10.6995,-10.6995,-10.6995,-10.6995,-10.6995,-10.6995,-10.6995,-10.6995,-10.6995,-10.6995,-10.6995,-10.6995,-10.6995,-10.6995,-10.6995,-10.6608,-10.6299,-10.6492,-10.5603,-10.5022,-10.5216,-10.4713,-10.4403,-10.4403,-10.3707,-10.2817,-10.2005,-10.1889,-10.1889,-10.1889,-10.0806,-9.9955,-9.9684,-9.833,-9.7595,-9.7595,-9.7092,-9.6783,-9.6783,-9.6783,-9.6783,-9.6783,-9.6783,-9.6783,-9.7037,-9.6666,-9.622,-9.622,-9.6629,-9.7929,-10.1495,-10.2313,-10.3093,-10.6102,-10.5693,-10.4913,-10.5396,0.0,0.0,0.0,0.0,0.0,0.0,0.0,0.0,0.0,0.0,0.0,0.0,0.0,0.0,0.0,0.0,0.0,0.0,-11.3699,-11.2497,-11.1709,-11.1108,-11.0432,-10.9606,-10.9118,-10.8517,-10.7991,-10.7203,-10.679,-10.679,-10.649,-10.5701,-10.4715,-10.5727,-10.5901,-10.5505,-10.6192,-10.6694,-10.6995,-10.6995,-10.6995,-10.6995,-10.6995,-10.6995,-10.6995,-10.6995,-10.6995,-10.6995,-10.6995,-10.6995,-10.6995,-10.6995,-10.6995,-10.6995,-10.6995,-10.6995,-10.6995,-10.6995,-10.6995,-10.6995,-10.6995,-10.6995,-10.6995,-10.6995,-10.6995,-10.6995,-10.6995,-10.6995,-10.6995,-10.6995,-10.6299,-10.5796,-10.6105,-10.5409,-10.4906,-10.5216,-10.5022,-10.4597,-10.4094,-10.3514,-10.2817,-10.2005,-10.1889,-10.1889,-10.1889,-10.1309,-10.0883,-10.0613,-9.922,-9.8485,-9.8485,-9.7634,-9.7209,-9.7209,-9.6938,-9.6783,-9.6783,-9.6783,-9.6783,-9.5626,-9.5403,-9.5403,-9.5403,-9.6666,-9.8969,-10.3093,-10.4022,-10.5619,-11.1415,-10.9297,-10.6994,-10.8628,-10.8294,0.0,0.0,0.0,0.0,0.0,0.0,0.0,0.0,0.0,0.0,0.0,0.0,0.0,0.0,0.0,0.0,0.0,-11.4187,-11.3286,-11.2497,-11.2497,-11.1296,-10.8818,-10.878,-10.7916,-10.6302,-10.5476,-10.51,-10.51,-10.5889,-10.5401,-10.3888,-10.5806,-10.6196,-10.5491,-10.6621,-10.6995,-10.6995,-10.6995,-10.6995,-10.6995,-10.6995,-10.6995,-10.6995,-10.6995,-10.6995,-10.6995,-10.6995,-10.6995,-10.6995,-10.6995,-10.6995,-10.6995,-10.6995,-10.6995,-10.6995,-10.6995,-10.6995,-10.6995,-10.6995,-10.6995,-10.6995,-10.6995,-10.6995,-10.6995,-10.6995,-10.6995,-10.6995,-10.6995,-10.6299,-10.5409,-10.4597,-10.51,-10.5409,-10.4519,-10.5216,-10.5022,-10.3398,-10.3204,-10.2817,-10.2005,-10.1889,-10.1889,-10.1889,-10.1889,-10.1502,-10.0613,-9.98,-9.9297,-9.9297,-9.8524,-9.8098,-9.8098,-9.7247,-9.6783,-9.6783,-9.6783,-9.6783,-9.5477,-9.4994,-9.4845,-9.596,-9.7483,-9.9972,-10.4616,-10.5693,-10.7514,-11.3829,-11.3718,-11.2418,-11.2418,-11.3123,0.0,0.0,0.0,0.0,0.0,0.0,0.0,0.0,0.0,0.0,0.0,0.0,0.0,0.0,0.0,0.0,0.0,-11.2798,-11.1596,-11.0808,-11.0207,-10.9306,-10.7991,-10.7316,-10.679,-10.6302,-10.5476,-10.51,-10.51,-10.4687,-10.4312,-10.3888,-10.5197,-10.5609,-10.5491,-10.6621,-10.6995,-10.6995,-10.6995,-10.6995,-10.6995,-10.6995,-10.6995,-10.6995,-10.6995,-10.6995,-10.6995,-10.6995,-10.6995,-10.6995,-10.6995,-10.6995,-10.6995,-10.6995,-10.6995,-10.6995,-10.6995,-10.6995,-10.6995,-10.6995,-10.6995,-10.6995,-10.6995,-10.6995,-10.6995,-10.6995,-10.6995,-10.6995,-10.6995,-10.5796,-10.51,-10.6105,-10.5409,-10.4906,-10.5293,-10.5022,-10.4403,-10.3282,-10.2701,-10.2199,-10.1889,-10.1889,-10.1889,-10.1889,-10.1889,-10.1812,-10.1502,-10.069,-10.0187,-10.0187,-9.8833,-9.8098,-9.8098,-9.7247,-9.6783,-9.6783,-9.6783,-9.6783,-9.4994,-9.4808,-9.5143,-9.7112,-9.9081,-10.1904,-10.7217,-10.9891,-11.2492,0.0,-11.6504,-11.5501,-11.5724,-11.5724,0.0,0.0,0.0,0.0,0.0,0.0,0.0,0.0,0.0,0.0,0.0,0.0,0.0,0.0,0.0,0.0,0.0,-11.2012,-11.092,-10.9985,-10.9493,-10.8592,-10.709,-10.6602,-10.6001,-10.5288,-10.48,-10.4612,-10.4612,-10.4011,-10.3877,-10.4184,-10.5307,-10.5799,-10.6092,-10.6709,-10.6995,-10.6995,-10.6995,-10.6995,-10.6995,-10.6995,-10.6995,-10.6995,-10.6995,-10.6995,-10.6995,-10.6995,-10.6995,-10.6995,-10.6995,-10.6995,-10.6995,-10.6995,-10.6995,-10.6995,-10.6995,-10.6995,-10.6995,-10.6995,-10.6995,-10.6995,-10.6995,-10.6995,-10.6995,-10.6995,-10.6995,-10.6995,-10.6995,-10.5603,-10.4906,-10.6299,-10.5293,-10.4597,-10.51,-10.4403,-10.3591,-10.2779,-10.2199,-10.1889,-10.1889,-10.1889,-10.1889,-10.1889,-10.1889,-10.1889,-10.1889,-10.1386,-10.1077,-10.1077,-9.9762,-9.8911,-9.8601,-9.806,-9.7634,-9.7325,-9.7634,-9.7789,-9.4437,-9.4957,-9.6294,-9.8709,-10.1495,-10.5025,-11.0523,-11.5315,-11.8807,-11.9588,0.0,-11.7099,-11.8622,0.0,0.0,0.0,0.0,0.0,0.0,0.0,0.0,0.0,0.0,0.0,0.0,0.0,0.0,0.0,0.0,0.0,0.0,-11.1378,-11.0695,-10.9794,-10.9719,-10.8517,-10.6114,-10.6114,-10.5288,-10.3824,-10.3824,-10.3824,-10.3824,-10.3824,-10.4091,-10.4599,-10.5595,-10.6295,-10.6802,-10.6802,-10.6802,-10.6802,-10.6879,-10.6879,-10.6879,-10.6802,-10.6802,-10.6879,-10.6879,-10.6879,-10.6879,-10.6995,-10.6995,-10.6995,-10.6995,-10.6995,-10.6995,-10.6995,-10.6995,-10.6995,-10.6995,-10.6995,-10.6995,-10.6995,-10.6995,-10.6995,-10.6995,-10.6995,-10.6995,-10.6995,-10.6995,-10.6995,-10.6995,-10.5603,-10.479,-10.5487,-10.4906,-10.4403,-10.4287,-10.3707,-10.2895,-10.2005,-10.1889,-10.1889,-10.1889,-10.1889,-10.1889,-10.1889,-10.1889,-10.1889,-10.1889,-10.1889,-10.1889,-10.1889,-10.0999,-10.0187,-9.9297,-9.9297,-9.8911,-9.8137,-9.8949,-9.9259,-9.4585,-9.622,0.0,0.0,-10.5693,-11.1229,-11.4424,-11.6913,-11.8696,-11.8807,-11.9513,-12.0182,0.0,0.0,0.0,0.0,0.0,0.0,0.0,0.0,0.0,0.0,0.0,0.0,0.0,0.0,0.0,0.0,0.0,0.0,-11.1275,-10.999,-10.9005,-10.8104,-10.7503,-10.6189,-10.4424,-10.4312,-10.4199,0.0,-10.3824,-10.3824,-10.3824,-10.3824,-10.3882,-10.4201,-10.4906,-10.5099,-10.4984,-10.5719,-10.5603,-10.4984,-10.5719,-10.5989,-10.5912,-10.5216,-10.5409,-10.5989,-10.5989,-10.5989,-10.6105,-10.6802,-10.6995,-10.6995,-10.6995,-10.6995,-10.6995,-10.6995,-10.6995,-10.6995,-10.6995,-10.6995,-10.6995,-10.6995,-10.6995,-10.6995,-10.6995,-10.6995,-10.6995,-10.6995,-10.6995,-10.6995,-10.6995,-10.6105,-10.5293,-10.479,-10.4519,-10.421,-10.3514,-10.3282,-10.2895,-10.2005,-10.1889,-10.1889,-10.1889,-10.1889,-10.1889,-10.1889,-10.1889,-10.1889,-10.1889,-10.1889,-10.1889,-10.1889,-10.0999,-10.0187,-9.9297,-9.9297,-9.8911,-9.8137,-9.8949,-9.8949,-9.4994,0.0,0.0,-10.521,0.0,-11.4201,-11.6318,-11.773,-11.8622,-11.8622,0.0,0.0,0.0,0.0,0.0,0.0,0.0,0.0,0.0,0.0,0.0,0.0,0.0,0.0,0.0,0.0,0.0,0.0,0.0,0.0,0.0,-10.8118,-10.7203,-10.6377,-10.6001,-10.51,-10.3824,-10.3824,-10.3598,-10.3223,-10.3223,-10.3119,-10.3014,-10.3689,-10.3881,-10.3914,-10.4407,-10.4606,-10.4403,-10.4906,-10.479,-10.4403,-10.4906,-10.51,-10.5022,-10.4597,-10.4713,-10.51,-10.5603,-10.5719,-10.5796,-10.6686,-10.6995,-10.6995,-10.6995,-10.6995,-10.6995,-10.6995,-10.6995,-10.6995,-10.6995,-10.6995,-10.6995,-10.6995,-10.6995,-10.6995,-10.6995,-10.6995,-10.6879,-10.6492,-10.6415,-10.6415,-10.6415,-10.5989,-10.5293,-10.4017,-10.3784,-10.3707,-10.3282,-10.2817,-10.2392,-10.1889,-10.1889,-10.1889,-10.1889,-10.1889,-10.1889,-10.1889,-10.1889,-10.1889,-10.1889,-10.1889,-10.1889,-10.1889,-10.1502,-10.0806,-9.9916,-10.0303,-10.011,-9.9336,-10.0187,-10.011,-9.5403,0.0,-10.3613,-10.9817,-11.3123,0.0,-11.6801,-11.773,0.0,0.0,0.0,0.0,0.0,0.0,0.0,0.0,0.0,0.0,0.0,0.0,0.0,0.0,0.0,0.0,0.0,0.0,0.0,0.0,0.0,0.0,-10.68,-10.6287,-10.5814,-10.51,-10.48,-10.4387,-10.3824,-10.3523,-10.311,-10.2584,-10.2509,-10.2313,-10.2094,-10.321,-10.3611,-10.3482,-10.4005,-10.4094,-10.4017,-10.4094,-10.4094,-10.4017,-10.4094,-10.421,-10.421,-10.4017,-10.421,-10.4519,-10.5216,-10.5487,-10.5603,-10.6492,-10.6686,-10.6608,-10.6686,-10.6802,-10.6802,-10.6995,-10.6995,-10.6995,-10.6995,-10.6995,-10.6995,-10.6995,-10.6995,-10.6995,-10.6802,-10.6802,-10.6492,-10.5603,-10.5603,-10.5719,-10.5719,-10.5603,-10.4984,-10.3398,-10.3088,-10.3011,-10.3011,-10.2315,-10.1889,-10.1889,-10.1889,-10.1889,-10.1889,-10.1889,-10.1889,-10.1889,-10.1889,-10.1889,-10.1889,-10.1889,-10.1889,-10.1889,-10.1889,-10.1502,-10.0613,-10.1502,-10.1502,-10.0613,-10.1309,-10.1193,0.0,0.0,-10.5805,0.0,-11.2603,-11.4424,0.0,0.0,0.0,0.0,0.0,0.0,0.0,0.0,0.0,0.0,0.0,0.0,0.0,0.0,0.0,0.0,0.0,0.0,0.0,0.0,0.0,0.0,0.0,0.0,-10.5978,-10.55,-10.5175,-10.51,-10.3711,-10.3185,-10.3824,-10.2397,-10.2021,-10.2584,-10.1909,-10.1577,-10.1707,-10.1894,-10.2194,-10.2597,-10.3079,-10.2895,-10.2315,-10.3011,-10.2895,-10.2315,-10.3088,-10.3398,-10.3282,-10.2508,-10.3204,-10.4403,-10.4519,-10.4597,-10.4713,-10.5603,-10.5409,-10.4906,-10.5603,-10.5912,-10.5989,-10.6802,-10.6995,-10.6995,-10.6995,-10.6995,-10.6995,-10.6995,-10.6995,-10.6802,-10.5989,-10.5912,-10.5603,-10.4713,-10.5216,-10.5719,-10.5719,-10.51,-10.4287,-10.3282,-10.2585,-10.2082,-10.2082,-10.2005,-10.1889,-10.1889,-10.1889,-10.1889,-10.1889,-10.1889,-10.1889,-10.1889,-10.1889,-10.1889,-10.1889,-10.1889,-10.1889,-10.1889,-10.1889,-10.1502,-10.0613,-10.1502,-10.1502,-10.0613,-10.069,-10.0303,-9.8635,-10.131,-10.4616,0.0,0.0,0.0,0.0,0.0,0.0,0.0,0.0,0.0,0.0,0.0,0.0,0.0,0.0,0.0,0.0,0.0,0.0,0.0,0.0,0.0,0.0,0.0,0.0,0.0,0.0,-10.4894,-10.3774,-10.3701,-10.3711,-10.3711,-10.2997,-10.281,-10.311,-10.2021,-10.1308,-10.1195,-10.0699,-10.0609,-10.0909,-10.1182,-10.1576,-10.2083,-10.2405,-10.2315,-10.1889,-10.2315,-10.2199,-10.1889,-10.2315,-10.2508,-10.2392,-10.2005,-10.2392,-10.3088,-10.3591,-10.3707,-10.3901,-10.4713,-10.4713,-10.4519,-10.4906,-10.5022,-10.51,-10.5409,-10.5912,-10.6299,-10.6299,-10.6608,-10.6995,-10.6995,-10.6608,-10.5989,-10.5216,-10.5409,-10.5293,-10.4017,-10.4017,-10.4094,-10.3707,-10.3707,-10.3398,-10.2585,-10.2082,-10.1889,-10.1889,-10.1889,-10.1889,-10.1889,-10.1889,-10.1889,-10.1889,-10.1889,-10.1889,-10.1889,-10.1889,-10.1889,-10.1889,-10.1889,-10.1889,-10.1889,-10.1889,-10.1696,-10.1309,-10.1696,-10.1696,-10.1309,-10.0806,-10.011,0.0,0.0,0.0,0.0,0.0,0.0,0.0,0.0,0.0,0.0,0.0,0.0,0.0,0.0,0.0,0.0,0.0,0.0,0.0,0.0,0.0,0.0,0.0,0.0,0.0,0.0,0.0,0.0,0.0,-10.3213,-10.2205,-10.239,-10.2509,-10.2284,-10.2096,-10.2096,-10.2284,-10.1495,-10.0594,-9.9768,-9.967,-9.9859,-10.0398,-10.0917,-10.1398,-10.1889,-10.1889,-10.1889,-10.1889,-10.1889,-10.1889,-10.1889,-10.1889,-10.1889,-10.1889,-10.1889,-10.2005,-10.2315,-10.3011,-10.3204,-10.3282,-10.3901,-10.3901,-10.3784,-10.4017,-10.4094,-10.421,-10.4597,-10.5216,-10.5796,-10.5989,-10.6492,-10.6995,-10.6995,-10.6299,-10.5409,-10.4287,-10.4403,-10.4403,-10.3398,-10.3204,-10.3011,-10.2315,-10.2779,-10.2895,-10.2005,-10.1889,-10.1889,-10.1889,-10.1889,-10.1889,-10.1889,-10.1889,-10.1889,-10.1889,-10.1889,-10.1889,-10.1889,-10.1889,-10.1889,-10.1889,-10.1889,-10.1889,-10.1889,-10.1889,-10.1889,-10.1889,-10.1889,-10.1889,-10.1889,-10.0806,-9.9916,0.0,0.0,0.0,0.0,0.0,0.0,0.0,0.0,0.0,0.0,0.0,0.0,0.0,0.0,0.0,0.0,0.0,0.0,0.0,0.0,0.0,0.0,0.0,0.0,0.0,0.0,0.0,0.0,0.0,-10.3811,-10.2205,-10.239,-10.2284,-10.1495,-10.0707,-10.0594,-10.1495,-10.0594,-9.9768,-9.898,-9.9377,-9.9898,-10.0398,-10.0917,-10.1398,-10.1889,-10.1889,-10.1889,-10.1889,-10.1889,-10.1889,-10.1889,-10.1889,-10.1889,-10.1889,-10.1889,-10.2392,-10.3088,-10.3204,-10.3204,-10.3204,-10.3204,-10.2701,-10.2199,-10.3011,-10.3282,-10.3591,-10.5216,-10.5719,-10.5912,-10.6686,-10.6995,-10.6995,-10.6995,-10.6299,-10.5293,-10.3591,-10.2585,-10.2315,-10.3088,-10.3204,-10.3204,-10.3088,-10.3204,-10.2895,-10.2005,-10.1889,-10.1889,-10.1889,-10.1889,-10.1889,-10.1889,-10.1889,-10.1889,-10.1889,-10.1889,-10.1889,-10.1889,-10.1889,-10.1889,-10.1889,-10.1889,-10.1889,-10.1889,-10.1889,-10.1889,-10.1889,-10.1889,-10.1889,-10.1889,-10.0187,-9.9336,0.0,0.0,0.0,0.0,0.0,0.0,0.0,0.0,0.0,0.0,0.0,0.0,0.0,0.0,0.0,0.0,0.0,0.0,0.0,0.0,0.0,0.0,0.0,0.0,0.0,0.0,0.0,0.0,0.0,0.0,-10.069,-10.088,-10.0895,-10.0594,-10.0294,-9.9994,-9.9806,-9.9505,-9.8942,-9.8116,-9.8929,-9.9384,-9.9656,-10.0422,-10.1197,-10.1889,-10.1889,-10.1889,-10.1889,-10.1889,-10.1889,-10.1889,-10.1889,-10.1889,-10.1889,-10.1889,-10.2082,-10.2392,-10.2392,-10.2392,-10.2392,-10.2392,-10.2199,-10.2005,-10.2315,-10.2392,-10.2585,-10.3784,-10.4094,-10.4403,-10.5796,-10.6183,-10.5989,-10.5487,-10.51,-10.4403,-10.2701,-10.2082,-10.2005,-10.2315,-10.2392,-10.2392,-10.2392,-10.2392,-10.2392,-10.2701,-10.2315,-10.2082,-10.2701,-10.2199,-10.1889,-10.1889,-10.1889,-10.1889,-10.1889,-10.1889,-10.1889,-10.1889,-10.1889,-10.1889,-10.1889,-10.1889,-10.1889,-10.1889,-10.1889,-10.1889,-10.1889,-10.1889,-10.1889,-10.1889,-10.011,-9.9607,-9.4957,0.0,0.0,0.0,0.0,0.0,0.0,0.0,0.0,0.0,0.0,0.0,0.0,0.0,0.0,0.0,0.0,0.0,0.0,0.0,0.0,0.0,0.0,0.0,0.0,0.0,0.0,0.0,0.0,0.0,-9.9927,-10.0012,-9.9843,-9.9318,-9.9543,-9.9167,-9.8079,-9.8642,-9.8341,-9.7252,-9.8529,-9.8976,-9.8815,-9.9758,-10.0613,-10.1502,-10.1502,-10.158,-10.1889,-10.1889,-10.1889,-10.1889,-10.1889,-10.1889,-10.1889,-10.1889,-10.1889,-10.1889,-10.1889,-10.1889,-10.1889,-10.1889,-10.1889,-10.1889,-10.1889,-10.1889,-10.2082,-10.3011,-10.3204,-10.3514,-10.4906,-10.5293,-10.51,-10.4519,-10.421,-10.3707,-10.2585,-10.2315,-10.2199,-10.2005,-10.1889,-10.1889,-10.1889,-10.2082,-10.2508,-10.3088,-10.2701,-10.2508,-10.3088,-10.2392,-10.1889,-10.1889,-10.2199,-10.2199,-10.1889,-10.2199,-10.2199,-10.1889,-10.1889,-10.1889,-10.1889,-10.1889,-10.1889,-10.1889,-10.1889,-10.1889,-10.1889,-10.1889,-10.1889,-10.1889,-10.0419,-9.9994,0.0,0.0,0.0,0.0,0.0,0.0,0.0,0.0,0.0,0.0,0.0,0.0,0.0,0.0,0.0,0.0,0.0,0.0,0.0,0.0,0.0,0.0,0.0,0.0,0.0,0.0,0.0,0.0,0.0,-10.0512,-9.9889,-9.9974,-9.928,-9.7703,-9.8416,-9.8079,-9.6426,-9.8003,-9.8003,-9.6419,-9.8187,-9.8655,-9.7898,-9.8833,-9.9723,-10.0613,-10.0613,-10.1077,-10.1812,-10.1889,-10.1889,-10.1889,-10.1889,-10.1889,-10.1889,-10.1889,-10.1889,-10.1889,-10.1889,-10.1889,-10.1889,-10.1889,-10.1889,-10.1889,-10.1889,-10.1889,-10.2082,-10.3011,-10.3204,-10.3282,-10.421,-10.4403,-10.4403,-10.4403,-10.3784,-10.3204,-10.3204,-10.3204,-10.2895,-10.2082,-10.1889,-10.1889,-10.1889,-10.2585,-10.3204,-10.3204,-10.3204,-10.3204,-10.3204,-10.2392,-10.1889,-10.1889,-10.2701,-10.2817,-10.2005,-10.2701,-10.2817,-10.2005,-10.1889,-10.1889,-10.1889,-10.1889,-10.1889,-10.1889,-10.1889,-10.1889,-10.1889,-10.1889,-10.1889,-10.1889,-10.0999,-10.0613,-9.3136,0.0,0.0,0.0,0.0,0.0,0.0,0.0,0.0,0.0,0.0,0.0,0.0,0.0,0.0,0.0,0.0,0.0,0.0,0.0,0.0,0.0,0.0,0.0,0.0,0.0,0.0,0.0,-9.9482,-9.9086,-9.9186,-9.8648,-9.7853,-9.6802,-9.699,-9.6877,-9.6396,-9.6877,-9.6748,-9.6069,-9.6876,-9.738,-9.7557,-9.818,-9.8872,-9.9684,-10.0303,-10.038,-10.011,-10.1386,-10.1502,-10.0999,-10.1696,-10.1889,-10.1889,-10.1889,-10.1889,-10.1889,-10.1889,-10.1889,-10.1889,-10.1889,-10.1889,-10.1889,-10.1889,-10.1889,-10.2082,-10.3011,-10.2701,-10.2508,-10.3282,-10.3514,-10.3707,-10.4287,-10.3784,-10.3204,-10.3204,-10.3204,-10.2895,-10.2082,-10.1889,-10.1889,-10.1889,-10.2585,-10.3204,-10.3204,-10.3204,-10.3204,-10.3204,-10.2392,-10.1889,-10.1889,-10.2082,-10.2199,-10.1889,-10.2082,-10.2199,-10.1889,-10.1889,-10.1889,-10.1889,-10.1889,-10.1889,-10.1889,-10.1889,-10.1889,-10.1889,-10.1889,-10.1889,-10.1889,-10.1696,-10.1193,-9.3731,-9.3731,-9.3991,0.0,0.0,0.0,0.0,-9.6294,0.0,0.0,0.0,0.0,0.0,0.0,0.0,0.0,0.0,0.0,0.0,0.0,0.0,0.0,0.0,0.0,0.0,0.0,0.0,-9.9594,-9.8609,-9.7947,-9.786,-9.7403,-9.6764,-9.5938,-9.6239,-9.6088,-9.5413,-9.625,-9.6261,-9.54,-9.6394,-9.6881,-9.6883,-9.7324,-9.8021,-9.8833,-9.9336,-9.9259,-9.8911,-10.0303,-10.069,-10.069,-10.1193,-10.158,-10.1889,-10.1889,-10.1889,-10.1889,-10.1889,-10.1889,-10.1889,-10.1889,-10.1889,-10.1889,-10.1889,-10.1889,-10.2005,-10.2508,-10.2315,-10.2005,-10.2508,-10.2701,-10.2895,-10.3707,-10.3282,-10.2779,-10.3088,-10.2895,-10.2508,-10.2005,-10.1889,-10.1889,-10.1889,-10.2585,-10.3204,-10.3204,-10.3204,-10.3204,-10.3204,-10.2392,-10.1889,-10.1889,-10.2199,-10.2315,-10.1889,-10.2199,-10.2315,-10.1889,-10.1889,-10.1889,-10.1889,-10.1889,-10.1889,-10.1889,-10.1889,-10.1889,-10.1889,-10.1889,-10.1889,-10.1889,-10.1889,-10.158,-9.4548,-9.4845,-9.5403,-9.5403,0.0,0.0,-9.4214,-9.4697,-9.5143,0.0,0.0,0.0,0.0,0.0,0.0,0.0,0.0,0.0,0.0,0.0,0.0,0.0,0.0,0.0,0.0,-9.9478,-9.909,-9.9295,-9.8071,-9.6986,-9.6284,-9.6276,-9.5901,-9.5075,-9.575,-9.545,-9.4015,-9.5846,-9.6067,-9.4782,-9.6351,-9.675,-9.6186,-9.6606,-9.7209,-9.7943,-9.806,-9.806,-9.8021,-9.8833,-9.9607,-10.0303,-10.038,-10.0999,-10.1812,-10.1812,-10.1812,-10.1889,-10.1889,-10.1889,-10.1889,-10.1889,-10.1889,-10.1889,-10.1889,-10.1889,-10.1889,-10.1889,-10.1889,-10.1889,-10.1889,-10.2005,-10.2199,-10.3011,-10.2585,-10.2315,-10.3011,-10.2508,-10.1889,-10.1889,-10.1889,-10.1889,-10.1889,-10.2585,-10.3204,-10.3088,-10.3088,-10.3204,-10.3088,-10.2392,-10.1889,-10.1889,-10.2585,-10.2701,-10.2005,-10.2585,-10.2701,-10.1889,-10.1889,-10.1889,-10.1889,-10.1889,-10.1889,-10.1889,-10.1889,-10.1889,-10.1889,-10.1889,-10.1889,-10.1889,-10.1889,-10.1889,-9.5365,-9.5291,-9.5403,0.0,0.0,0.0,-9.4214,-9.3805,-9.3657,0.0,0.0,0.0,0.0,0.0,0.0,0.0,0.0,0.0,0.0,0.0,0.0,0.0,0.0,0.0,0.0,-9.8138,-9.7413,-9.7577,-9.6999,-9.6284,-9.5488,-9.545,-9.5075,-9.4248,-9.4399,-9.4324,-9.3986,-9.4394,-9.4848,-9.5273,-9.5604,-9.6059,-9.6653,-9.6753,-9.6899,-9.7092,-9.7789,-9.7711,-9.7131,-9.7982,-9.8446,-9.864,-9.9297,-10.011,-10.0883,-10.0883,-10.1309,-10.1889,-10.1889,-10.1889,-10.1889,-10.1889,-10.1889,-10.1889,-10.1889,-10.1889,-10.1889,-10.1889,-10.1889,-10.1889,-10.1889,-10.2392,-10.3011,-10.3204,-10.3088,-10.3011,-10.3204,-10.2508,-10.1889,-10.1889,-10.1889,-10.1889,-10.1889,-10.2585,-10.3011,-10.2315,-10.2779,-10.2895,-10.2199,-10.2005,-10.1889,-10.1889,-10.2082,-10.2082,-10.1889,-10.2082,-10.2082,-10.1889,-10.1889,-10.1889,-10.1889,-10.1889,-10.1889,-10.1889,-10.1889,-10.1889,-10.1889,-10.1889,-10.1889,-10.1889,-10.1889,-10.1889,0.0,0.0,0.0,-9.6108,0.0,0.0,0.0,-9.3879,-9.3582,0.0,0.0,0.0,0.0,0.0,0.0,0.0,0.0,0.0,0.0,0.0,0.0,0.0,0.0,0.0,0.0,-9.682,-9.6308,-9.615,-9.5923,-9.545,-9.4624,-9.4586,-9.4399,-9.4015,-9.3986,-9.3986,-9.3986,-9.4227,-9.4679,-9.5407,-9.5644,-9.6114,-9.6783,-9.6783,-9.6783,-9.6822,-9.7247,-9.7209,-9.6822,-9.7286,-9.7441,-9.7518,-9.8369,-9.9491,-10.0613,-10.0613,-10.1193,-10.1889,-10.1889,-10.1889,-10.1889,-10.1889,-10.1889,-10.1889,-10.1889,-10.1889,-10.1889,-10.1889,-10.1889,-10.1889,-10.1889,-10.2199,-10.2585,-10.2585,-10.2585,-10.2585,-10.2585,-10.2199,-10.1889,-10.1889,-10.1889,-10.1889,-10.1889,-10.2315,-10.2392,-10.2005,-10.2315,-10.2392,-10.2005,-10.1889,-10.1889,-10.1889,-10.1889,-10.1889,-10.1889,-10.1889,-10.1889,-10.1889,-10.1889,-10.1889,-10.1889,-10.1889,-10.1889,-10.1889,-10.1889,-10.1889,-10.1889,-10.1889,-10.1889,-10.1889,-10.1889,-10.1889,0.0,0.0,0.0,0.0,0.0,-9.6257,0.0,0.0,0.0,0.0,0.0,0.0,0.0,0.0,0.0,0.0,0.0,0.0,0.0,0.0,0.0,0.0,0.0,0.0,0.0,-9.5604,-9.552,-9.5007,-9.4962,-9.4699,-9.4023,-9.3986,-9.3986,-9.3986,-9.3986,-9.3986,-9.3986,-9.4356,-9.4807,-9.5273,-9.5747,-9.6186,-9.6653,-9.6753,-9.6783,-9.6783,-9.6783,-9.6783,-9.6783,-9.6783,-9.6783,-9.686,-9.7557,-9.8794,-10.011,-10.0303,-10.0883,-10.1696,-10.1812,-10.1889,-10.1889,-10.1889,-10.1889,-10.1889,-10.1889,-10.1889,-10.1889,-10.1889,-10.1889,-10.1889,-10.1889,-10.2005,-10.2082,-10.1889,-10.2005,-10.2082,-10.1889,-10.1889,-10.1889,-10.1889,-10.1889,-10.1889,-10.1889,-10.1889,-10.1889,-10.1889,-10.1889,-10.1889,-10.1889,-10.1889,-10.1889,-10.1889,-10.1889,-10.1889,-10.1889,-10.1889,-10.1889,-10.1889,-10.1889,-10.1889,-10.1889,-10.1889,-10.1889,-10.1889,-10.1889,-10.1889,-10.1889,-10.1889,-10.1889,-10.1889,-10.1889,-10.1889,0.0,0.0,0.0,0.0,-9.7186,0.0,0.0,0.0,-9.4177,0.0,0.0,0.0,0.0,0.0,0.0,0.0,0.0,0.0,0.0,0.0,0.0,0.0,0.0,0.0,0.0,0.0,-9.4751,-9.4173,-9.4136,-9.4098,-9.3986,-9.3986,-9.3986,-9.3986,-9.3986,-9.3986,-9.3986,-9.4036,-9.4339,-9.4782,-9.525,-9.5726,-9.6186,-9.6622,-9.6783,-9.6783,-9.6783,-9.6783,-9.6783,-9.6783,-9.6783,-9.6822,-9.6899,-9.7557,-9.8485,-9.9181,-9.9994,-10.0883,-10.158,-10.1889,-10.1889,-10.1889,-10.1889,-10.1889,-10.1889,-10.1889,-10.1889,-10.1889,-10.1889,-10.1889,-10.1889,-10.2508,-10.2895,-10.2082,-10.2508,-10.2817,-10.2082,-10.1889,-10.1889,-10.1889,-10.1889,-10.1889,-10.1889,-10.1889,-10.1889,-10.1889,-10.1889,-10.1889,-10.1889,-10.1889,-10.1889,-10.1889,-10.1889,-10.1889,-10.1889,-10.1889,-10.1889,-10.1889,-10.1889,-10.1889,-10.1889,-10.1889,-10.1889,-10.1889,-10.1889,-10.1889,-10.1889,-10.1889,-10.1889,-10.1889,-10.1889,-10.1889,0.0,0.0,0.0,0.0,0.0,0.0,-9.674,0.0,-9.5328,0.0,0.0,0.0,0.0,0.0,0.0,0.0,0.0,0.0,0.0,0.0,0.0,0.0,0.0,0.0,0.0,0.0,0.0,0.0,0.0,-9.3897,-9.3986,-9.3986,-9.3986,-9.3986,-9.3986,-9.3986,-9.3986,-9.3986,-9.4227,-9.4717,-9.518,-9.5644,-9.6114,-9.659,-9.6783,-9.6783,-9.6783,-9.6783,-9.6783,-9.6783,-9.6783,-9.6783,-9.6783,-9.7325,-9.8214,-9.8988,-9.9839,-10.069,-10.158,-10.1889,-10.1889,-10.1889,-10.1889,-10.1889,-10.1889,-10.1889,-10.1889,-10.1889,-10.1889,-10.1889,-10.1889,-10.2199,-10.2392,-10.2005,-10.2199,-10.2315,-10.2005,-10.1889,-10.1889,-10.1889,-10.1889,-10.1889,-10.1889,-10.1889,-10.1889,-10.1889,-10.1889,-10.1889,-10.1889,-10.1889,-10.1889,-10.1889,-10.1889,-10.1889,-10.1889,-10.1889,-10.1889,-10.1889,-10.1889,-10.1889,-10.1889,-10.1889,-10.1889,-10.1889,-10.1889,-10.1889,-10.1889,-10.1889,-10.1889,-10.1889,-10.1889,-10.1889,-9.6591,0.0,0.0,0.0,0.0,0.0,0.0,0.0,0.0,0.0,0.0,0.0,0.0,0.0,0.0,0.0,0.0,0.0,0.0,0.0,0.0,0.0,0.0,0.0,0.0,0.0,0.0,-9.331,-9.3155,-9.3267,-9.361,-9.3648,-9.3723,-9.3986,-9.3986,-9.3986,-9.3986,-9.4122,-9.4311,-9.4508,-9.525,-9.5706,-9.5906,-9.6519,-9.6783,-9.6783,-9.6783,-9.6783,-9.6783,-9.6783,-9.6783,-9.6783,-9.6783,-9.7209,-9.7866,-9.8911,-9.9684,-10.038,-10.1502,-10.1889,-10.1889,-10.1889,-10.1889,-10.1889,-10.1889,-10.1889,-10.1889,-10.1889,-10.1889,-10.1889,-10.1889,-10.1889,-10.1889,-10.1889,-10.1889,-10.1889,-10.1889,-10.1889,-10.1889,-10.1889,-10.1889,-10.1889,-10.1889,-10.1889,-10.1889,-10.1889,-10.1889,-10.1889,-10.1889,-10.1889,-10.1889,-10.1889,-10.1889,-10.1889,-10.1889,-10.1889,-10.1889,-10.1889,-10.1889,-10.1889,-10.1889,-10.1889,-10.1889,-10.1889,-10.1889,-10.1889,-10.1889,-10.1889,-10.1889,-10.1889,-10.1889,-10.1889,0.0,0.0,0.0,-9.7892,0.0,0.0,0.0,0.0,-9.6591,0.0,0.0,0.0,0.0,0.0,0.0,0.0,0.0,0.0,0.0,0.0,0.0,0.0,0.0,0.0,0.0,0.0,0.0,-9.162,-9.1582,-9.192,-9.2709,-9.2747,-9.3122,-9.3948,-9.3986,-9.3986,-9.3986,-9.4465,-9.4465,-9.4044,-9.5429,-9.5847,-9.5451,-9.6403,-9.6783,-9.6783,-9.6783,-9.6783,-9.6783,-9.6783,-9.6783,-9.6783,-9.6783,-9.6822,-9.7054,-9.8678,-9.9336,-9.9607,-10.1309,-10.1889,-10.1889,-10.1889,-10.1889,-10.1889,-10.1889,-10.1889,-10.1889,-10.1889,-10.1889,-10.1889,-10.1889,-10.1889,-10.1889,-10.1889,-10.1889,-10.1889,-10.1889,-10.1889,-10.1889,-10.1889,-10.1889,-10.1889,-10.1889,-10.1889,-10.1889,-10.1889,-10.1889,-10.1889,-10.1889,-10.1889,-10.1889,-10.1889,-10.1889,-10.1889,-10.1889,-10.1889,-10.1889,-10.1889,-10.1889,-10.1889,-10.1889,-10.1889,-10.1889,-10.1889,-10.1889,-10.1889,-10.1889,-10.1889,-10.1889,-10.1889,-10.1889,-10.1889,0.0,0.0,-9.7892,-9.7892,0.0,0.0,0.0,0.0,0.0,0.0,0.0,0.0,0.0,0.0,0.0,0.0,0.0,0.0,0.0,0.0,0.0,0.0,0.0,0.0,0.0,0.0,0.0,-9.1325,-9.1288,-9.1467,0.0,-9.2409,-9.2859,-9.3122,-9.3685,-9.3986,-9.3986,-9.418,-9.4301,-9.4492,-9.5273,-9.5726,-9.5867,-9.6503,-9.6783,-9.6783,-9.6783,-9.6783,-9.6783,-9.6783,-9.6783,-9.6783,-9.6783,-9.6783,-9.6938,-9.8098,-9.8833,-9.9568,-10.1309,-10.1889,-10.1889,-10.1889,-10.1889,-10.1889,-10.1889,-10.1889,-10.1889,-10.1889,-10.1889,-10.1889,-10.1889,-10.1889,-10.1889,-10.1889,-10.1889,-10.1889,-10.1889,-10.1889,-10.1889,-10.1889,-10.1889,-10.1889,-10.1889,-10.1889,-10.1889,-10.1889,-10.1889,-10.1889,-10.1889,-10.1889,-10.1889,-10.1889,-10.1889,-10.1889,-10.1889,-10.1889,-10.1889,-10.1889,-10.1889,-10.1889,-10.1889,-10.1889,-10.1889,-10.1889,-10.1889,-10.1889,-10.1889,-10.1889,-10.1889,-10.1889,-10.1889,-10.1889,-9.596,-9.6852,0.0,-9.7892,-9.7892,0.0,-9.752,0.0,0.0,0.0,0.0,0.0,0.0,0.0,0.0,0.0,0.0,0.0,0.0,0.0,0.0,0.0,0.0,0.0,0.0,0.0,0.0,-9.0426,-9.0368,-9.0547,0.0,0.0,-9.2409,-9.2709,-9.3535,-9.3986,-9.3986,-9.4301,-9.4561,-9.4705,-9.5517,-9.5983,-9.6114,-9.659,-9.6783,-9.6783,-9.6783,-9.6783,-9.6783,-9.6783,-9.6783,-9.6783,-9.6783,-9.6783,-9.6899,-9.7789,-9.8601,-9.9491,-10.0883,-10.1386,-10.1502,-10.1812,-10.1889,-10.1889,-10.1889,-10.1889,-10.1889,-10.1889,-10.1889,-10.1889,-10.1889,-10.1889,-10.1889,-10.1889,-10.1889,-10.1889,-10.1889,-10.1889,-10.1889,-10.1889,-10.1889,-10.1889,-10.1889,-10.1889,-10.1889,-10.1889,-10.1889,-10.1889,-10.1889,-10.1889,-10.1889,-10.1889,-10.1889,-10.1889,-10.1889,-10.1889,-10.1889,-10.1889,-10.1889,-10.1889,-10.1889,-10.1889,-10.2585,-10.4094,-10.2701,-10.2701,-10.421,-10.2585,-10.1889,-10.1889,-10.1889,-10.1889]},{"header":{"parameterUnit":"m.s-1","parameterCategory":1,"la1":30.6,"la2":29.2853,"lo1":-89.7004,"lo2":-87.6739,"dy":0.0162,"dx":0.0183,"nx":112,"ny":82,"refTime":"2023-03-22T06:00:00:Z","depth":0,"parameterNumber":3,"parameterNumberName":"V-component_of_WINDS"},"data":[0.0,0.0,0.0,0.0,0.0,0.0,0.0,0.0,0.0,0.0,0.0,0.0,0.0,0.0,0.0,0.0,0.0,0.0,0.0,0.0,0.0,0.0,0.0,0.0,0.0,0.0,0.0,0.0,0.0,0.0,0.0,0.0,0.0,0.0,0.0,0.0,0.0,0.0,0.0,0.0,0.0,0.0,0.0,0.0,0.0,0.0,0.0,0.0,0.0,0.0,0.0,0.0,0.0,0.0,0.0,0.0,0.0,0.0,0.0,0.0,0.0,0.0,0.0,0.0,0.0,0.0,0.0,0.0,0.0,0.0,0.0,0.0,0.0,0.0,0.0,0.0,0.0,0.0,0.0,0.0,0.0,0.0,0.0,0.0,0.0,0.0,0.0,0.0,0.0,0.0,-1.3238,-1.4015,-1.4983,-1.5488,-1.526,-1.5081,-1.4413,-1.3217,0.0,0.0,0.0,0.0,0.0,0.0,0.0,0.0,0.0,0.0,0.0,0.0,0.0,0.0,0.0,0.0,0.0,0.0,0.0,0.0,0.0,0.0,0.0,0.0,0.0,0.0,0.0,0.0,0.0,0.0,0.0,0.0,0.0,0.0,0.0,0.0,0.0,0.0,0.0,0.0,0.0,0.0,0.0,0.0,0.0,0.0,0.0,0.0,0.0,0.0,0.0,0.0,0.0,0.0,0.0,0.0,0.0,0.0,0.0,0.0,0.0,0.0,0.0,0.0,0.0,0.0,0.0,0.0,0.0,0.0,0.0,0.0,0.0,0.0,0.0,0.0,0.0,0.0,0.0,0.0,0.0,0.0,0.0,0.0,0.0,0.0,0.0,0.0,0.0,0.0,0.0,0.0,0.0,0.0,0.0,0.0,0.0,0.0,0.0,0.0,0.0,0.0,0.0,0.0,-1.358,-1.4602,-1.5233,-1.5516,-1.5374,-1.4967,-1.4504,-1.3858,0.0,0.0,0.0,0.0,0.0,0.0,0.0,0.0,0.0,0.0,0.0,0.0,0.0,0.0,0.0,0.0,0.0,0.0,0.0,0.0,0.0,0.0,0.0,0.0,0.0,0.0,0.0,0.0,0.0,0.0,0.0,0.0,0.0,0.0,0.0,0.0,0.0,0.0,0.0,0.0,0.0,0.0,0.0,0.0,0.0,0.0,0.0,0.0,0.0,0.0,0.0,0.0,0.0,0.0,0.0,0.0,0.0,0.0,0.0,0.0,0.0,0.0,0.0,0.0,0.0,0.0,0.0,0.0,0.0,0.0,0.0,0.0,0.0,0.0,0.0,0.0,0.0,0.0,0.0,0.0,0.0,0.0,0.0,0.0,0.0,0.0,0.0,0.0,0.0,0.0,0.0,0.0,0.0,0.0,0.0,0.0,0.0,0.0,0.0,0.0,0.0,0.0,0.0,-1.3597,-1.4108,-1.4869,-1.5391,-1.5603,-1.5401,-1.4956,-1.4359,-1.3662,-1.24,0.0,0.0,0.0,0.0,0.0,0.0,0.0,0.0,0.0,0.0,0.0,0.0,0.0,0.0,0.0,0.0,0.0,0.0,0.0,0.0,0.0,0.0,0.0,0.0,0.0,0.0,0.0,0.0,0.0,0.0,0.0,0.0,0.0,0.0,0.0,0.0,0.0,0.0,0.0,0.0,0.0,0.0,0.0,0.0,0.0,0.0,0.0,0.0,0.0,0.0,0.0,0.0,0.0,0.0,0.0,0.0,0.0,0.0,0.0,0.0,0.0,0.0,0.0,0.0,0.0,0.0,0.0,0.0,0.0,0.0,0.0,0.0,0.0,0.0,0.0,0.0,0.0,0.0,0.0,0.0,0.0,0.0,0.0,0.0,0.0,0.0,0.0,0.0,0.0,0.0,0.0,0.0,0.0,0.0,0.0,0.0,0.0,0.0,0.0,0.0,0.0,0.0,-1.4053,-1.4532,-1.5064,-1.5499,-1.5657,-1.5401,-1.4956,-1.4247,-1.3228,-1.214,0.0,0.0,0.0,0.0,0.0,0.0,0.0,0.0,0.0,0.0,0.0,0.0,0.0,0.0,0.0,0.0,0.0,0.0,0.0,0.0,0.0,0.0,0.0,0.0,0.0,0.0,0.0,0.0,0.0,0.0,0.0,0.0,0.0,0.0,0.0,0.0,0.0,0.0,0.0,0.0,0.0,0.0,0.0,0.0,0.0,0.0,0.0,0.0,0.0,0.0,0.0,0.0,0.0,0.0,0.0,0.0,0.0,0.0,0.0,0.0,0.0,0.0,0.0,0.0,0.0,0.0,0.0,0.0,0.0,0.0,0.0,0.0,0.0,0.0,0.0,0.0,0.0,0.0,0.0,0.0,0.0,0.0,0.0,0.0,0.0,0.0,0.0,0.0,0.0,0.0,0.0,0.0,0.0,0.0,0.0,0.0,0.0,0.0,0.0,0.0,0.0,0.0,-1.4151,-1.4586,-1.5293,-1.5603,-1.5657,-1.5401,-1.4956,-1.4247,-1.3228,-1.214,0.0,0.0,0.0,0.0,0.0,0.0,0.0,0.0,0.0,0.0,0.0,0.0,0.0,0.0,0.0,0.0,0.0,0.0,0.0,0.0,0.0,0.0,0.0,0.0,0.0,0.0,0.0,0.0,0.0,0.0,0.0,0.0,0.0,0.0,0.0,0.0,0.0,0.0,0.0,0.0,0.0,0.0,0.0,0.0,0.0,0.0,0.0,0.0,0.0,0.0,0.0,0.0,0.0,0.0,0.0,0.0,0.0,0.0,0.0,0.0,0.0,0.0,0.0,0.0,0.0,0.0,0.0,0.0,0.0,0.0,0.0,0.0,0.0,0.0,0.0,0.0,0.0,0.0,0.0,0.0,0.0,0.0,0.0,0.0,0.0,0.0,0.0,0.0,0.0,0.0,0.0,0.0,0.0,0.0,0.0,0.0,0.0,0.0,0.0,0.0,0.0,0.0,-1.4167,-1.4602,0.0,-1.5543,-1.557,-1.5401,-1.4956,-1.4247,-1.3228,0.0,0.0,0.0,0.0,0.0,0.0,0.0,0.0,0.0,0.0,0.0,0.0,0.0,0.0,0.0,0.0,0.0,0.0,0.0,0.0,0.0,0.0,0.0,0.0,0.0,0.0,0.0,0.0,0.0,0.0,0.0,0.0,0.0,0.0,0.0,0.0,0.0,0.0,0.0,0.0,0.0,0.0,0.0,0.0,0.0,0.0,0.0,0.0,0.0,0.0,0.0,0.0,0.0,0.0,0.0,0.0,0.0,0.0,0.0,0.0,0.0,0.0,0.0,0.0,0.0,0.0,0.0,0.0,0.0,0.0,0.0,0.0,0.0,0.0,0.0,0.0,0.0,0.0,0.0,0.0,0.0,0.0,0.0,0.0,0.0,0.0,0.0,0.0,0.0,0.0,0.0,0.0,0.0,0.0,0.0,0.0,0.0,0.0,0.0,0.0,0.0,0.0,-1.3863,-1.4167,-1.4586,0.0,-1.5472,-1.5505,-1.5347,-1.4825,-1.4007,-1.3,0.0,0.0,0.0,0.0,0.0,0.0,0.0,0.0,0.0,0.0,0.0,0.0,0.0,0.0,0.0,0.0,0.0,0.0,0.0,0.0,0.0,0.0,0.0,0.0,0.0,0.0,0.0,0.0,0.0,0.0,0.0,0.0,0.0,0.0,0.0,0.0,0.0,0.0,0.0,0.0,0.0,0.0,0.0,0.0,0.0,0.0,0.0,0.0,0.0,0.0,0.0,0.0,0.0,0.0,0.0,0.0,0.0,0.0,0.0,0.0,0.0,0.0,0.0,0.0,0.0,0.0,0.0,0.0,0.0,0.0,0.0,0.0,0.0,0.0,0.0,0.0,0.0,0.0,0.0,0.0,0.0,0.0,0.0,0.0,0.0,0.0,0.0,0.0,0.0,0.0,0.0,0.0,0.0,0.0,0.0,0.0,0.0,0.0,0.0,0.0,0.0,0.0,-1.3863,-1.4167,-1.4548,-1.5151,-1.5434,-1.5472,-1.5233,-1.4559,-1.3648,0.0,0.0,0.0,0.0,0.0,0.0,0.0,0.0,0.0,0.0,0.0,0.0,0.0,0.0,0.0,0.0,0.0,0.0,0.0,0.0,0.0,0.0,0.0,0.0,0.0,0.0,0.0,0.0,0.0,0.0,0.0,0.0,0.0,0.0,0.0,0.0,0.0,0.0,0.0,0.0,0.0,0.0,0.0,0.0,0.0,0.0,0.0,0.0,0.0,0.0,0.0,0.0,0.0,0.0,0.0,0.0,0.0,0.0,0.0,0.0,0.0,0.0,0.0,0.0,0.0,0.0,0.0,0.0,0.0,0.0,0.0,0.0,0.0,0.0,0.0,0.0,0.0,0.0,0.0,0.0,0.0,0.0,0.0,0.0,0.0,0.0,0.0,0.0,0.0,0.0,0.0,0.0,0.0,0.0,0.0,0.0,0.0,0.0,0.0,0.0,0.0,0.0,0.0,-1.3754,-1.4042,-1.4417,-1.5021,-1.5233,-1.526,-1.5108,-1.4172,-1.318,-1.234,0.0,0.0,0.0,0.0,0.0,0.0,0.0,0.0,0.0,0.0,0.0,0.0,0.0,0.0,0.0,0.0,0.0,0.0,0.0,0.0,0.0,0.0,0.0,0.0,0.0,0.0,0.0,0.0,0.0,0.0,0.0,0.0,0.0,0.0,0.0,0.0,0.0,0.0,0.0,0.0,0.0,0.0,0.0,0.0,0.0,0.0,0.0,0.0,0.0,0.0,0.0,0.0,0.0,0.0,0.0,0.0,0.0,0.0,0.0,0.0,0.0,0.0,0.0,0.0,0.0,0.0,0.0,0.0,0.0,0.0,0.0,0.0,0.0,0.0,0.0,0.0,0.0,0.0,0.0,0.0,0.0,0.0,0.0,0.0,0.0,0.0,0.0,0.0,0.0,0.0,0.0,0.0,0.0,0.0,0.0,0.0,0.0,0.0,0.0,0.0,0.0,0.0,-1.3711,-1.3993,-1.4347,-1.4912,-1.5081,-1.5092,-1.4983,-1.3922,-1.2851,-1.2185,0.0,0.0,0.0,0.0,0.0,0.0,0.0,0.0,0.0,0.0,0.0,0.0,0.0,0.0,0.0,0.0,0.0,0.0,0.0,0.0,0.0,0.0,0.0,0.0,0.0,0.0,0.0,0.0,0.0,0.0,0.0,0.0,0.0,0.0,0.0,0.0,0.0,0.0,0.0,0.0,0.0,0.0,0.0,0.0,0.0,0.0,0.0,0.0,0.0,0.0,0.0,0.0,0.0,0.0,0.0,0.0,0.0,0.0,0.0,0.0,0.0,0.0,0.0,0.0,0.0,0.0,0.0,0.0,0.0,0.0,0.0,0.0,0.0,0.0,0.0,0.0,0.0,0.0,0.0,0.0,0.0,0.0,0.0,0.0,0.0,0.0,0.0,0.0,0.0,0.0,0.0,0.0,0.0,0.0,0.0,0.0,0.0,0.0,0.0,0.0,0.0,0.0,-1.3711,-1.3993,-1.432,-1.4798,-1.4967,-1.4861,-1.4852,-1.3643,-1.2614,-1.2165,0.0,0.0,0.0,0.0,0.0,0.0,0.0,0.0,0.0,0.0,0.0,0.0,0.0,0.0,0.0,0.0,0.0,0.0,0.0,0.0,0.0,0.0,0.0,0.0,0.0,0.0,0.0,0.0,0.0,0.0,0.0,0.0,0.0,0.0,0.0,0.0,0.0,0.0,0.0,0.0,0.0,0.0,0.0,0.0,0.0,0.0,0.0,0.0,0.0,0.0,0.0,0.0,0.0,0.0,0.0,0.0,0.0,0.0,0.0,0.0,-2.8177,0.0,0.0,0.0,0.0,0.0,0.0,0.0,0.0,0.0,0.0,0.0,0.0,0.0,0.0,0.0,0.0,0.0,0.0,0.0,0.0,0.0,0.0,0.0,0.0,0.0,0.0,0.0,0.0,0.0,0.0,0.0,0.0,0.0,0.0,0.0,0.0,0.0,0.0,0.0,0.0,0.0,-1.3711,-1.3993,-1.432,-1.4798,-1.4496,-1.4243,-1.4041,-1.2574,-1.1586,-1.1316,-1.0475,0.0,0.0,0.0,0.0,0.0,0.0,0.0,0.0,0.0,0.0,0.0,0.0,0.0,0.0,0.0,0.0,0.0,0.0,0.0,0.0,0.0,0.0,0.0,0.0,0.0,0.0,0.0,0.0,0.0,0.0,0.0,0.0,0.0,0.0,0.0,0.0,0.0,0.0,0.0,0.0,0.0,0.0,0.0,0.0,0.0,0.0,0.0,0.0,0.0,0.0,0.0,0.0,0.0,0.0,0.0,0.0,0.0,0.0,0.0,0.0,-2.8597,0.0,0.0,0.0,0.0,0.0,0.0,0.0,0.0,0.0,0.0,0.0,0.0,0.0,0.0,0.0,0.0,0.0,0.0,0.0,0.0,0.0,0.0,0.0,0.0,0.0,0.0,0.0,0.0,0.0,0.0,0.0,0.0,0.0,0.0,0.0,0.0,0.0,0.0,0.0,0.0,-1.3629,-1.3857,-1.4151,-1.4629,-1.4509,-1.4275,-1.4154,-1.2947,-1.2082,-1.192,-1.0893,0.0,0.0,0.0,0.0,0.0,0.0,0.0,0.0,0.0,0.0,0.0,0.0,0.0,0.0,0.0,0.0,0.0,0.0,0.0,0.0,0.0,0.0,0.0,0.0,0.0,0.0,0.0,0.0,0.0,0.0,0.0,0.0,0.0,0.0,0.0,0.0,0.0,0.0,0.0,0.0,0.0,0.0,0.0,0.0,0.0,0.0,0.0,0.0,0.0,0.0,0.0,0.0,0.0,-2.9448,-2.962,-2.9997,-2.9588,-2.9739,-3.0277,-2.9652,-2.934,-2.9254,-2.9222,0.0,0.0,0.0,0.0,0.0,0.0,0.0,0.0,0.0,0.0,0.0,0.0,0.0,0.0,0.0,0.0,0.0,0.0,0.0,0.0,0.0,0.0,0.0,0.0,-1.4249,-1.414,-1.4015,0.0,0.0,0.0,0.0,0.0,0.0,0.0,0.0,0.0,0.0,0.0,-1.3542,-1.3727,-1.3993,-1.445,-1.4403,-1.4403,-1.4359,-1.3305,-1.2681,-1.2525,-1.1315,-1.0502,0.0,0.0,0.0,0.0,0.0,0.0,0.0,0.0,0.0,0.0,0.0,0.0,0.0,0.0,0.0,0.0,0.0,0.0,0.0,0.0,0.0,0.0,0.0,0.0,0.0,0.0,0.0,0.0,0.0,0.0,0.0,0.0,-2.7923,-2.7865,0.0,0.0,0.0,0.0,0.0,0.0,0.0,0.0,0.0,0.0,0.0,0.0,0.0,-2.9685,-2.9706,-2.9932,-3.0137,-3.0342,-3.0535,-3.0761,-3.0998,-3.074,-3.0761,-3.1052,-3.074,0.0,-2.9986,-2.976,0.0,0.0,0.0,0.0,0.0,0.0,0.0,0.0,0.0,0.0,0.0,0.0,0.0,0.0,0.0,0.0,0.0,0.0,0.0,0.0,0.0,0.0,-1.4195,-1.4292,-1.4309,-1.4265,0.0,-1.3939,-1.3749,-1.3629,-1.3406,0.0,0.0,0.0,0.0,0.0,0.0,0.0,-1.3542,-1.3798,-1.408,-1.4461,-1.4138,-1.3767,-1.3582,-1.2339,-1.1438,-1.1163,-1.041,-0.9959,-0.9786,-0.9782,0.0,0.0,0.0,0.0,0.0,0.0,0.0,0.0,0.0,0.0,0.0,0.0,0.0,0.0,0.0,0.0,0.0,0.0,0.0,0.0,0.0,0.0,0.0,0.0,0.0,0.0,0.0,0.0,0.0,-2.8082,-2.8457,-2.8274,-2.8771,-2.9021,0.0,0.0,0.0,0.0,0.0,0.0,0.0,0.0,0.0,-2.9997,-3.0105,-3.0309,-3.0568,-3.0794,-3.0912,-3.088,-3.0998,-3.1171,-3.1375,-3.1138,-3.1257,-3.1601,-3.1343,-3.1117,-3.088,-3.0374,-2.9879,-2.9304,0.0,0.0,0.0,0.0,-2.733,-2.6442,-2.6425,-2.4915,-2.2498,-1.9691,0.0,0.0,0.0,0.0,0.0,0.0,0.0,0.0,0.0,0.0,-1.4249,-1.4309,-1.432,-1.4292,-1.4167,-1.4004,-1.3825,0.0,-1.3406,-1.3216,-1.3156,0.0,0.0,0.0,0.0,-1.3037,-1.345,-1.3591,-1.3792,-1.4151,-1.4012,-1.3896,-1.379,-1.2816,-1.2069,-1.1868,-1.088,-1.0325,-1.0188,-0.9882,-0.9681,0.0,0.0,0.0,0.0,0.0,0.0,0.0,0.0,0.0,0.0,0.0,0.0,0.0,0.0,0.0,0.0,0.0,0.0,0.0,0.0,0.0,0.0,0.0,0.0,0.0,0.0,0.0,0.0,-2.864,-2.9178,-2.8544,-2.947,-2.98,0.0,0.0,0.0,0.0,0.0,0.0,-2.9674,-2.9652,-2.9965,-3.074,-3.074,-3.0912,-3.1289,-3.1461,-3.1483,-3.1375,-3.1429,-3.1601,-3.1806,-3.1569,-3.1687,-3.2086,-3.1827,-3.1687,-3.1601,-3.0945,-3.0309,-2.9668,-2.9143,-2.8389,-2.757,-2.7894,-2.7598,-2.696,-2.5918,-2.5051,-2.3769,-2.0139,-1.8247,-1.6903,-1.509,0.0,0.0,0.0,0.0,-1.432,-1.432,-1.432,-1.432,-1.432,-1.432,-1.4276,-1.4124,-1.4021,-1.3885,0.0,-1.3406,-1.32,-1.3091,0.0,0.0,0.0,0.0,-1.3004,-1.333,-1.3401,-1.3548,-1.3879,-1.3939,-1.3934,-1.3874,-1.3067,-1.2475,-1.2305,-1.112,-1.0384,-1.0284,-0.9882,-0.9681,-0.9681,0.0,0.0,0.0,0.0,0.0,0.0,0.0,0.0,0.0,0.0,0.0,0.0,0.0,0.0,0.0,0.0,0.0,0.0,0.0,0.0,0.0,0.0,0.0,0.0,0.0,0.0,0.0,0.0,0.0,-2.8825,-2.9854,0.0,0.0,0.0,0.0,-2.9394,-2.9814,-3.0191,-3.0428,-3.0858,-3.1224,-3.1494,-3.1494,-3.1515,-3.1635,-3.1547,-3.1655,-3.1881,-3.2086,-3.2323,-3.2549,-3.2323,-3.2344,-3.2549,-3.2323,-3.2086,-3.186,-3.1364,-3.102,-3.0485,-2.7705,-2.5104,-2.3099,-2.3124,-2.1728,-2.0228,-2.2647,-2.1861,-1.9697,-1.9427,-1.7258,-1.4873,-1.4532,-1.4417,0.0,0.0,-1.432,-1.432,-1.432,-1.432,-1.432,-1.432,-1.432,-1.4249,-1.4015,-1.3961,-1.3885,0.0,-1.3406,-1.32,-1.3091,0.0,-1.289,-1.289,-1.289,-1.2977,-1.3216,-1.3352,-1.3515,-1.377,-1.389,-1.3868,-1.364,-1.2656,-1.1887,-1.158,-1.0431,-0.9775,-0.9786,-0.9681,-0.9681,-0.9681,-0.9681,0.0,0.0,0.0,0.0,0.0,0.0,0.0,0.0,0.0,0.0,0.0,0.0,0.0,0.0,0.0,0.0,0.0,0.0,0.0,0.0,0.0,0.0,0.0,0.0,0.0,0.0,0.0,0.0,-3.0274,-3.1382,0.0,-3.0144,-3.0342,-3.0428,-3.0137,-3.0535,-3.0858,-3.0945,-3.1257,-3.1601,-3.2,-3.215,-3.2377,-3.2689,-3.2689,-3.2721,-3.2829,-3.2753,-3.2775,-3.2829,-3.2603,-3.2517,-3.2603,-3.2517,-3.243,-3.2344,-3.2,-3.1483,-3.072,-2.9603,-2.8622,-2.7542,-2.5885,-2.4771,-2.3649,-2.136,-1.9958,-1.8873,-1.7202,-1.5814,-1.4657,-1.4629,-1.4477,-1.4336,-1.4417,-1.4434,-1.4461,-1.4532,-1.4548,-1.4532,-1.4461,-1.4434,-1.439,-1.4222,-1.4069,-1.3912,-1.3754,-1.3526,-1.3319,-1.32,-1.3086,-1.2977,-1.2901,-1.2955,-1.3064,-1.3216,-1.3346,-1.3482,-1.3651,-1.3705,-1.3662,-1.3499,-1.237,-1.163,-1.1556,-1.0371,-0.9714,-0.9681,-0.9681,-0.9681,-0.9681,-0.9681,-0.9681,0.0,0.0,0.0,0.0,0.0,0.0,0.0,0.0,0.0,0.0,0.0,0.0,0.0,0.0,0.0,0.0,0.0,0.0,0.0,0.0,0.0,0.0,0.0,0.0,0.0,0.0,-3.233,-3.1468,-3.272,-3.2929,-3.1127,-3.1171,-3.1224,-3.0966,-3.1257,-3.1515,-3.1655,-3.1892,-3.2204,-3.2603,-3.2775,-3.3001,-3.3313,-3.3313,-3.3313,-3.3313,-3.3173,-3.3087,-3.3087,-3.2915,-3.2829,-3.2829,-3.2775,-3.2721,-3.2721,-3.2463,-3.1967,-3.1181,-3.0071,-2.9077,-2.7864,-2.5153,-2.4223,-2.379,-1.9451,-1.799,-1.7675,-1.579,-1.5064,-1.4798,-1.4798,-1.4629,-1.4461,-1.4532,-1.4559,-1.4575,-1.4602,-1.4619,-1.4586,-1.4477,-1.4445,-1.439,-1.4238,-1.4069,-1.3912,-1.3754,-1.3558,-1.3368,-1.3211,-1.3118,-1.3031,-1.2906,-1.2955,-1.3064,-1.3216,-1.3276,-1.3363,-1.3526,-1.3504,-1.3433,-1.3314,-1.2199,-1.1497,-1.1397,-1.0318,-0.9681,-0.9681,-0.9681,-0.9681,-0.9681,-0.9681,-0.9681,-0.9681,0.0,0.0,0.0,0.0,0.0,0.0,0.0,0.0,0.0,0.0,0.0,0.0,0.0,0.0,0.0,0.0,0.0,0.0,0.0,0.0,0.0,0.0,0.0,-3.1113,-3.2627,-3.3326,-3.2399,-3.3635,-3.3919,-3.21,-3.1741,-3.1687,-3.1946,-3.1967,-3.214,-3.2603,-3.2861,-3.3087,-3.3346,-3.3346,-3.3346,-3.3346,-3.3346,-3.3346,-3.3346,-3.3346,-3.3324,-3.3324,-3.3313,-3.3313,-3.3313,-3.3066,-3.298,-3.2947,-3.2721,-3.2484,-3.1858,-2.8682,-2.6075,-2.3609,-2.0536,-1.9603,-1.9459,-1.6767,-1.5673,-1.5559,-1.5434,-1.5233,-1.5037,-1.5037,-1.4869,-1.4673,-1.4673,-1.4673,-1.4657,-1.4548,-1.4515,-1.4488,-1.4363,-1.4336,-1.4265,-1.4021,-1.3966,-1.3896,-1.3662,-1.3515,-1.3357,-1.3124,-1.308,-1.3042,-1.2917,-1.2901,0.0,-1.3216,-1.3151,-1.3172,-1.3401,-1.3319,-1.32,-1.3086,-1.2161,-1.1498,-1.1292,-1.0279,-0.9681,-0.9681,-0.9681,-0.9681,-0.9681,-0.9681,-0.9681,-0.9681,0.0,0.0,0.0,0.0,0.0,0.0,0.0,0.0,0.0,0.0,0.0,0.0,0.0,0.0,0.0,0.0,0.0,0.0,0.0,0.0,0.0,0.0,-3.308,-3.2999,-3.3935,-3.4478,-3.3893,-3.4122,-3.4004,-3.2846,-3.2775,-3.2861,-3.2915,-3.2947,-3.3066,-3.3346,-3.3442,-3.3582,-3.383,-3.383,-3.3916,-3.4099,-3.3916,-3.383,-3.383,-3.3669,-3.3582,-3.3582,-3.3399,-3.3313,-3.3313,-3.3066,-3.298,-3.2947,-3.2721,-3.1422,-2.9459,-2.8455,-2.7501,-2.6263,-2.1544,-1.8669,-1.6888,-1.6032,-1.5673,-1.557,-1.5532,-1.5304,-1.5037,-1.5037,-1.4869,-1.4689,-1.4787,-1.4798,-1.4814,-1.4869,-1.4825,-1.4727,-1.4602,-1.4515,-1.4407,-1.4249,-1.4151,-1.4042,-1.389,-1.3765,-1.3607,-1.3368,-1.3325,-1.3281,-1.3162,-1.3216,0.0,-1.3363,-1.3423,-1.3482,-1.3548,-1.3444,-1.3325,-1.32,-1.2507,-1.1903,-1.1292,-1.0681,-1.0083,-0.9681,-0.9681,-0.9681,-0.9681,-0.9681,-0.9681,0.0,0.0,0.0,0.0,0.0,0.0,0.0,0.0,0.0,0.0,0.0,0.0,0.0,0.0,0.0,0.0,0.0,0.0,0.0,0.0,0.0,0.0,-3.4016,-3.4837,-3.5223,-3.5367,-3.5315,-3.5153,-3.5187,-3.4844,-3.3755,-3.3927,-3.4035,-3.3916,-3.383,-3.3862,-3.4099,-3.4121,-3.4175,-3.4325,-3.4325,-3.4412,-3.4519,-3.4412,-3.4325,-3.4325,-3.4089,-3.3949,-3.3949,-3.3722,-3.3604,-3.3604,-3.3378,-3.3259,-3.3238,-3.2893,-3.111,0.0,0.0,0.0,0.0,0.0,-1.9319,-1.5994,-1.5923,-1.5798,-1.5641,-1.5641,-1.5434,-1.5179,-1.5124,-1.4983,-1.4841,-1.4912,-1.4923,-1.4923,-1.4896,-1.4825,-1.4744,-1.4559,-1.4477,-1.439,-1.4265,-1.4195,-1.4097,-1.3983,-1.3863,0.0,-1.3597,-1.3488,-1.3379,-1.3254,-1.3298,-1.3346,-1.3346,-1.3363,-1.3379,-1.3379,-1.327,-1.3167,-1.3096,-1.2525,0.0,0.0,0.0,-1.0284,-0.9681,-0.9681,0.0,0.0,0.0,-0.9681,-0.9681,0.0,0.0,0.0,-0.9718,-0.9738,0.0,0.0,0.0,0.0,0.0,0.0,0.0,0.0,0.0,0.0,0.0,0.0,0.0,0.0,0.0,0.0,-3.5356,-3.6877,-3.7504,-3.6803,-3.629,-3.6135,-3.6365,-3.6077,-3.4875,-3.5014,-3.5068,-3.4896,-3.4638,-3.4605,-3.4864,0.0,0.0,0.0,0.0,-3.4778,-3.4778,-3.4778,-3.4778,-3.4745,-3.4519,-3.4412,-3.4379,-3.4175,-3.4067,-3.4035,-3.3776,-3.3669,-3.3636,-3.3173,-3.143,-2.8823,-2.8007,-2.7557,-2.6922,-2.4465,-2.0318,-1.6119,-1.6092,0.0,0.0,-1.5744,-1.557,-1.5363,-1.5249,-1.5135,-1.5037,-1.5037,-1.5021,-1.4967,-1.4744,-1.4673,-1.4602,-1.439,-1.4336,-1.4292,-1.4178,-1.4151,-1.4124,-1.3999,-1.3885,-1.3803,-1.3792,-1.3597,-1.3406,-1.3298,-1.3281,-1.3276,-1.3259,-1.3172,-1.3102,-1.3091,0.0,0.0,-1.2912,-1.2495,-1.1984,-1.1383,-1.0781,-1.0183,-0.9681,-0.9681,-0.9681,-0.9681,-0.9681,-0.9681,-0.9681,-0.9681,-0.9681,-0.9681,-0.9775,-0.9816,0.0,0.0,0.0,0.0,0.0,0.0,0.0,0.0,0.0,0.0,0.0,0.0,0.0,0.0,0.0,-3.5356,-3.6527,-3.7625,-3.8796,-3.8619,-3.811,-3.7026,-3.6701,-3.6231,-3.5439,-3.5359,-3.5434,-3.5585,-3.5381,-3.5359,-3.5585,-3.5241,-3.5122,-3.5294,-3.5122,-3.5036,-3.5036,-3.5036,-3.4928,-3.4745,0.0,0.0,-3.4379,-3.4325,-3.4207,-3.4035,-3.3776,-3.3669,-3.3636,-3.3173,-3.1317,-2.8248,-2.3803,-2.0766,-1.8727,-1.8086,-1.7149,-1.6233,-1.6037,-1.5934,-1.5853,-1.5673,-1.5505,-1.5363,-1.5249,-1.5135,0.0,-1.5037,-1.4967,-1.4885,-1.4825,-1.4673,-1.4532,-1.4477,-1.439,-1.432,-1.4292,-1.4276,-1.4249,-1.4124,-1.4004,-1.3896,-1.3803,-1.3667,-1.3558,-1.3537,-1.3531,-1.3499,-1.3401,-1.3368,-1.3314,-1.3216,-1.3102,-1.3037,-1.3037,-1.2844,-1.2284,-1.1383,-1.038,-0.9782,-0.9681,-0.9681,-0.9681,-0.9681,-0.9681,-0.9681,-0.9681,-0.9681,-0.9681,-0.9681,-0.9775,-0.9816,0.0,0.0,0.0,0.0,0.0,0.0,0.0,0.0,0.0,0.0,0.0,-3.2724,0.0,0.0,-3.5585,-3.678,-3.7854,-3.8893,-3.9798,-4.0022,-3.9439,-3.796,-3.7442,-3.6936,-3.6131,-3.607,-3.6102,-3.5984,-3.5876,-3.5844,-3.5984,-3.5639,-3.5553,-3.579,-3.5445,-3.5327,-3.5445,-3.5327,-3.5208,-3.509,-3.4982,-3.481,-3.4551,-3.4444,-3.4261,-3.4035,-3.3895,-3.3862,-3.3669,-3.1927,-3.0141,-2.8067,-2.2658,-1.9578,-1.8375,-1.8308,-1.7378,-1.6179,-1.6065,-1.594,-1.5809,-1.563,-1.5445,-1.5276,-1.5162,-1.5037,-1.4939,-1.4939,-1.4858,-1.4754,-1.47,-1.4586,-1.4488,-1.4434,-1.4363,-1.432,-1.432,-1.432,-1.4309,-1.4238,-1.4124,-1.401,-1.389,-1.3776,-1.3673,-1.3613,-1.3553,-1.3466,-1.3346,-1.3281,-1.32,-1.3075,-1.3069,-1.3047,-1.2988,-1.2722,-1.2184,-1.1383,-1.058,-0.9982,-0.9681,-0.9681,-0.9681,-0.9681,-0.9681,-0.9681,-0.9681,-0.9681,-0.9681,-0.9685,-0.982,-0.9885,0.0,0.0,0.0,0.0,0.0,0.0,0.0,0.0,-3.2338,-3.2881,-3.34,-3.3956,-3.4535,-3.6008,-3.7372,-3.8023,-3.9122,-4.0088,-4.0607,-4.0872,-4.0394,-3.8854,-3.846,-3.7909,-3.6865,-3.6909,-3.6705,-3.6328,-3.6307,-3.6307,-3.6307,-3.607,-3.6016,-3.6156,-3.579,-3.5639,-3.5811,-3.5607,-3.5521,-3.5499,-3.5241,-3.4982,-3.4745,-3.4498,-3.4261,-3.4035,-3.4035,-3.3981,-3.3723,-3.1156,-2.9461,-2.8067,-2.3148,-2.0901,-2.0241,-1.9647,-1.8084,-1.6135,-1.6065,-1.5912,-1.5728,-1.5559,-1.5374,-1.5189,-1.5081,-1.4956,-1.4858,-1.4858,-1.4754,-1.4619,-1.4532,-1.4488,-1.4445,-1.4347,-1.432,-1.432,-1.432,-1.432,-1.432,-1.432,-1.4222,-1.4108,-1.401,-1.3879,-1.3743,-1.3624,-1.352,-1.3412,-1.3287,-1.3194,-1.3091,-1.2971,-1.3042,-1.3053,-1.2933,-1.2421,-1.1909,-1.1488,-1.0886,-1.0279,-0.9882,-0.9782,-0.9681,-0.9681,-0.9681,-0.9681,-0.9681,-0.9681,-0.9689,-0.971,-0.9857,-0.9934,-4.6457,-4.4416,-4.25,-4.1725,-3.853,-3.5645,0.0,0.0,-3.3726,-3.4245,-3.4764,-3.5392,-3.6165,-3.7046,-3.8084,-3.9315,-4.0063,-4.0643,-4.1162,-4.1259,-4.1077,-4.0454,-3.9476,-3.8675,-3.7943,-3.7276,-3.6845,-3.6791,-3.6791,-3.6791,-3.6791,-3.6565,-3.6328,-3.6167,-3.6102,-3.5984,-3.5811,-3.579,-3.5779,-3.5757,-3.5327,-3.4982,-3.4745,-3.4498,-3.4261,-3.4035,-3.4035,-3.3809,-3.3399,-3.2965,-3.1114,-2.8327,-2.5298,-2.2463,-1.9863,-1.7618,-1.6535,-1.6217,-1.5912,-1.5782,-1.57,-1.5363,-1.5249,-1.5189,-1.5081,-1.4956,-1.4858,-1.4858,-1.47,-1.4515,-1.4504,-1.4417,-1.4336,-1.432,-1.432,-1.432,-1.432,-1.432,-1.432,-1.432,-1.4222,-1.414,-1.4124,-1.3934,-1.3743,-1.3624,-1.3591,-1.3542,-1.3417,-1.339,-1.3336,-1.3211,-1.3211,-1.3172,-1.3058,-1.2541,-1.2196,-1.1994,-1.1082,-1.048,-1.038,-0.9982,-0.9681,-0.9681,-0.9681,-0.9681,-0.9681,-0.9681,-0.9722,-0.9804,-0.982,-0.9877,-4.3933,-4.1636,-3.997,0.0,-3.7328,-3.5049,-3.6992,-3.604,-3.4861,-3.5392,-3.6165,-3.701,-3.7818,-3.8856,-3.9798,0.0,-4.1029,-4.1488,-4.1548,-4.156,-4.1337,-4.0867,-4.0067,-3.913,-3.8305,-3.7784,-3.7416,-3.6877,-3.6877,-3.6877,-3.6877,-3.65,-3.6328,-3.636,-3.5962,-3.5757,-3.5811,-3.5531,-3.5381,-3.5381,-3.5068,-3.4778,-3.4519,-3.4433,-3.4261,-3.4002,-3.3744,-3.3486,-3.3187,-3.1489,-2.9897,-2.8006,-2.3771,-2.1242,-1.9843,-1.7246,-1.6206,-1.6048,-1.5825,-1.5711,-1.5603,-1.532,-1.5179,-1.5108,-1.5053,-1.4956,-1.4858,-1.4858,-1.4689,-1.4504,-1.4504,-1.4417,-1.432,-1.432,-1.432,-1.432,-1.432,-1.432,-1.432,-1.432,-1.4276,-1.4195,-1.4053,-1.395,-1.3819,-1.3635,-1.3542,-1.3477,-1.3428,-1.3357,-1.3325,-1.3341,-1.3221,-1.3151,-1.3167,-1.284,-1.2542,-1.2089,-1.1683,-1.1282,-1.0982,-1.0781,-1.048,-1.0183,-1.048,-1.0279,-0.9681,-1.0037,-1.0084,-0.982,-0.9922,-0.9991,-4.2056,0.0,0.0,-3.8873,-3.6596,-3.5011,-3.7447,-3.6977,-3.6201,-3.6816,-3.7722,-3.8603,-3.9279,-4.0353,-4.1162,-4.1259,-4.1681,-4.2007,-4.1947,-4.1621,-4.1259,-4.0872,-3.9865,-3.8944,-3.8216,-3.8004,-3.7641,-3.6877,-3.6877,-3.6877,-3.6877,-3.6533,-3.6393,-3.65,-3.5876,-3.5671,-3.5897,-3.5359,-3.5122,-3.5187,-3.4896,-3.4605,-3.4379,-3.4239,-3.4099,-3.3916,-3.3486,-3.3292,-3.2964,-3.0084,-2.8671,-2.795,-2.2403,-2.0193,-1.9823,-1.716,-1.6076,-1.5896,-1.5711,-1.5603,-1.5488,-1.5249,-1.5108,-1.5037,-1.5037,-1.4956,-1.4858,-1.4858,-1.4716,-1.4548,-1.4515,-1.4434,-1.4363,-1.4336,-1.4347,-1.4379,-1.4379,-1.439,-1.4407,-1.4379,-1.4379,-1.4309,-1.4097,-1.4031,-1.395,-1.3776,-1.3618,-1.351,-1.3477,-1.3395,-1.3374,-1.3461,-1.3319,-1.3221,-1.3238,-1.308,-1.2754,-1.2389,-1.2215,-1.1934,-1.1632,-1.1431,-1.1129,-1.0827,-1.1101,-1.0881,-1.0183,-1.0582,-1.0644,-1.0262,-1.0319,-1.0303,0.0,0.0,-3.9504,-3.778,-3.6546,-3.5935,-3.6855,-3.7437,-3.7915,-3.8699,-3.9508,-4.016,-4.045,-4.1162,-4.1778,-4.2067,-4.1886,-4.191,-4.2429,-4.1391,-4.0583,-4.0546,-3.9108,-3.79,0.0,-3.7621,-3.7465,-3.6996,-3.6877,-3.6877,-3.6877,-3.6877,-3.6737,-3.65,-3.6048,-3.5897,-3.6156,-3.5445,-3.5208,-3.5413,-3.4982,-3.4605,-3.4358,-3.3895,-3.369,-3.3669,-3.3432,-3.3206,-3.2739,-3.0035,-2.8747,-2.8039,-2.2463,-2.0193,-1.9809,-1.6963,-1.5923,-1.5869,-1.5516,-1.5401,-1.5363,-1.5124,-1.5037,-1.5037,-1.5037,-1.4956,-1.4858,-1.4858,-1.4771,-1.4646,-1.4532,-1.4504,-1.4461,-1.4347,-1.4407,-1.4504,-1.4504,-1.4586,-1.4629,-1.4515,-1.4504,-1.4461,-1.4336,-1.4205,-1.4124,-1.4124,-1.3923,-1.3732,-1.3613,-1.3597,-1.3597,-1.3597,-1.3591,-1.3493,-1.3259,-1.3232,-1.3129,-1.2901,-1.2494,-1.2252,-1.2252,-1.1744,-1.144,-1.144,-1.1335,-1.1282,-1.1282,-1.1392,-1.1492,-1.1484,-1.1077,-1.0967,0.0,0.0,-3.8458,-3.7405,-3.7299,-3.7601,-3.8603,-3.9219,-3.9677,-3.9955,-3.9931,-3.9798,-3.9532,-3.9991,-4.0414,-4.051,-4.1355,-4.2067,-4.2236,-4.2043,-4.1331,-3.9931,-3.9224,0.0,0.0,0.0,0.0,-3.6565,-3.6479,-3.6533,-3.6845,-3.6565,-3.636,-3.6274,-3.5811,-3.5531,-3.5445,-3.5068,-3.481,-3.4724,-3.4433,-3.4239,-3.4121,-3.3658,-3.3518,-3.3636,-3.3087,-3.2893,-3.2707,-2.972,-2.7348,-2.5293,-2.1407,-1.8799,-1.7094,-1.6188,-1.5809,-1.5771,-1.5488,-1.5347,-1.5249,-1.5092,-1.5037,-1.5037,-1.5037,-1.501,-1.4983,-1.4983,-1.4885,-1.4787,-1.4744,-1.4673,-1.4602,-1.4559,-1.4586,-1.4619,-1.4619,-1.4646,-1.4646,-1.4532,-1.4504,-1.4434,-1.4238,-1.4167,-1.4108,-1.4031,-1.3885,-1.3743,-1.3618,-1.3602,-1.3602,-1.3602,-1.3461,-1.333,-1.3243,-1.3096,-1.3009,-1.3009,-1.2946,-1.2866,-1.2866,-1.2663,-1.2323,-1.1944,-1.2205,-1.1984,-1.1282,-1.1866,-1.1969,-1.1597,-1.1564,-1.1561,0.0,-3.8863,-3.8903,-3.7995,-3.841,-3.9219,-4.0088,-4.051,-4.0643,-4.057,-3.9894,-3.9146,-3.8627,-3.8567,-3.8699,-3.8989,-3.9894,-4.0872,-4.1717,-4.1427,-4.0739,-3.9738,-3.8783,-3.76,0.0,0.0,0.0,-3.6156,-3.6188,-3.6328,-3.6737,-3.6533,-3.6393,-3.6274,-3.5811,-3.5467,-3.5208,-3.4982,-3.4756,-3.4519,-3.4175,-3.4035,-3.4002,-3.355,-3.3399,-3.3496,-3.2893,-3.2656,-3.2451,-2.9504,-2.7156,-2.5098,-2.1355,-1.8806,-1.7146,-1.6127,-1.57,-1.5603,-1.5445,-1.5347,-1.5249,-1.5092,-1.5037,-1.5037,-1.5037,-1.5037,-1.5037,-1.5037,-1.4983,-1.4912,-1.4869,-1.4798,-1.4727,-1.4689,-1.47,-1.4744,-1.4744,-1.4771,-1.4771,-1.4657,-1.4586,-1.4504,-1.4309,-1.4238,-1.4151,-1.3983,-1.3934,-1.3868,-1.3749,-1.3727,-1.3716,-1.3673,-1.3526,-1.3401,-1.3314,-1.3167,-1.3091,-1.3129,-1.3129,-1.3129,-1.3129,-1.3091,-1.2935,-1.2452,-1.2711,-1.2584,-1.1884,-1.241,-1.2518,-1.2215,-1.223,-1.2228,-3.9059,-3.9556,-4.072,-3.9671,-3.9991,-4.0703,-4.1198,-4.1102,-4.0836,-4.051,-3.9351,-3.8253,0.0,0.0,-3.678,-3.7601,-3.783,-3.8736,-4.1065,-3.987,-3.9086,0.0,0.0,0.0,0.0,0.0,0.0,-3.5704,0.0,-3.622,-3.65,-3.6737,-3.6737,-3.65,-3.6016,-3.5671,-3.5413,-3.5187,-3.495,-3.4724,-3.4261,-3.4035,-3.4002,-3.3518,-3.3313,-3.3259,-3.2775,-3.2463,-3.2125,-2.948,-2.8123,-2.7173,-2.1961,-1.982,-1.9316,-1.6767,-1.5603,-1.5401,-1.5401,-1.5391,-1.5331,-1.5124,-1.5037,-1.5037,-1.5037,-1.5037,-1.5037,-1.5037,-1.5037,-1.501,-1.4896,-1.4869,-1.4841,-1.4716,-1.4787,-1.4869,-1.4869,-1.4956,-1.4994,-1.4869,-1.4744,-1.4619,-1.4515,-1.439,-1.4238,-1.401,-1.4069,-1.4097,-1.3966,-1.395,-1.3912,-1.3798,-1.3781,-1.3684,-1.3439,-1.3417,-1.3363,-1.3254,-1.3243,-1.3238,-1.3238,-1.3129,-1.3069,-1.3058,-1.2944,-1.289,-1.2895,-1.3124,-1.3243,-1.3151,-1.2969,-1.2863,-4.0321,-3.9946,-4.0048,-4.021,-4.0679,-4.1102,-4.1041,-4.0969,-4.0583,-3.9315,-3.783,-3.6297,0.0,0.0,0.0,-3.7046,-3.8832,0.0,-4.2007,-4.1814,0.0,-4.022,0.0,-3.8279,-3.6718,-3.592,0.0,0.0,-3.5531,-3.579,-3.6737,-3.65,-3.6307,-3.6242,-3.5617,-3.5241,-3.5187,-3.4778,-3.453,-3.4465,-3.4175,-3.3949,-3.3755,-3.3464,-3.3119,-3.2775,-3.2484,-3.2204,-3.2,-3.1069,-2.8371,-2.4642,-2.3132,-2.0165,-1.6767,-1.6005,-1.5657,-1.5532,-1.5532,-1.5347,-1.5135,-1.5162,-1.5108,-1.5037,-1.5037,-1.5037,-1.5037,-1.5037,-1.5037,-1.5021,-1.4994,-1.4994,-1.4983,-1.4956,-1.4967,-1.4994,-1.4994,-1.501,-1.4983,-1.4754,-1.4548,-1.4407,-1.4379,-1.4265,-1.4195,-1.4222,-1.4178,-1.4069,-1.3857,-1.3906,-1.3912,-1.3798,-1.3705,-1.3591,-1.3433,-1.3336,-1.3308,-1.3368,-1.3287,-1.3238,-1.3238,-1.3129,-1.3026,-1.2933,-1.2901,-1.2933,-1.3026,-1.3167,-1.3287,-1.3379,-1.3426,-1.3343,-4.0678,-4.03,-4.0679,-4.0969,-4.1295,-4.1355,-4.0872,-4.0317,-3.9448,-3.783,-3.614,0.0,-3.3268,0.0,0.0,0.0,0.0,0.0,-4.1584,-4.1621,-4.1331,0.0,-4.0323,0.0,-3.7426,-3.6925,-3.6375,0.0,-3.5617,-3.579,-3.6673,-3.6565,-3.6414,-3.6307,-3.5811,-3.5467,-3.5241,-3.467,-3.4433,-3.4551,-3.4207,-3.3895,-3.3669,-3.3432,-3.3055,-3.2603,0.0,-3.2064,-3.1621,-3.0387,-2.8067,-2.507,-2.2667,-1.9981,-1.7319,-1.6182,-1.5603,-1.5499,-1.5559,-1.5331,-1.5053,-1.5179,-1.5179,-1.5108,-1.5053,-1.5037,-1.5037,-1.5037,-1.5037,-1.5037,-1.5037,-1.5037,-1.5037,-1.5037,-1.5037,-1.5037,-1.5037,-1.5037,-1.4983,-1.4787,-1.4602,-1.4461,-1.4407,-1.4292,-1.4222,-1.4238,-1.4222,-1.4151,-1.3966,-1.4042,-1.4053,-1.3879,-1.3798,-1.3689,-1.3515,-1.3439,-1.3428,-1.3499,-1.3336,-1.3238,-1.3238,-1.308,-1.2982,-1.2966,-1.2966,-1.3026,-1.3145,-1.3259,-1.3352,-1.3423,-1.3548,-1.3537,-4.072,-4.0703,-4.1778,-4.1814,-4.1753,-4.1427,-4.0486,-3.9279,-3.783,-3.6104,0.0,-3.305,-3.2483,-3.2495,-3.3147,-3.4897,0.0,-3.8084,-4.0776,-4.0703,-4.0739,-4.1717,-4.0847,-3.967,-3.8544,-3.7771,-3.6996,-3.6572,-3.6185,-3.6102,-3.6533,-3.6737,-3.6673,-3.636,-3.6188,-3.5876,-3.5413,-3.4756,-3.4551,-3.4745,-3.4239,-3.3862,-3.3604,-3.3378,-3.3001,-3.2484,-3.229,0.0,-3.1385,-2.8709,-2.737,-2.6363,-2.1434,-1.9374,-1.8767,-1.6478,-1.5505,-1.5401,-1.5532,-1.5347,-1.5081,-1.5206,-1.5222,-1.5179,-1.5064,-1.5037,-1.5037,-1.5037,-1.5037,-1.5037,-1.5037,-1.5037,-1.5037,-1.5037,-1.5037,-1.5037,-1.5037,-1.5021,-1.4983,-1.4869,-1.476,-1.4646,-1.4548,-1.4434,-1.432,-1.4205,-1.4276,-1.4309,-1.4178,-1.4249,-1.4222,-1.3983,-1.3972,-1.3879,-1.3624,-1.3618,-1.3624,-1.3607,-1.3374,-1.3238,-1.3238,-1.3026,-1.296,-1.3069,-1.3086,-1.3151,-1.3259,-1.3368,-1.3428,-1.345,-1.3553,-1.3537,-4.2367,-4.1681,-4.2103,-4.2333,-4.1874,-4.0969,-3.9279,-3.8048,0.0,0.0,-3.2917,-3.2169,-3.1409,-3.2,-3.34,-3.5875,0.0,0.0,0.0,0.0,-4.1947,0.0,0.0,0.0,0.0,0.0,0.0,0.0,0.0,-3.65,-3.6791,-3.6651,-3.6274,-3.565,-3.579,-3.5639,-3.5154,-3.4842,-3.4724,-3.4745,-3.4067,-3.3604,-3.3378,-3.3152,-3.2656,-3.2032,-3.2,0.0,-3.103,-2.8473,-2.615,-2.3824,-2.0822,-1.8299,-1.6366,-1.5977,-1.5586,-1.5401,-1.5532,-1.5401,-1.5206,-1.532,-1.5233,-1.5064,-1.5037,-1.5037,-1.5037,-1.5037,-1.5037,-1.5037,-1.5037,-1.5037,-1.5037,-1.5037,-1.5037,-1.5037,-1.5037,-1.4956,-1.4885,-1.4858,-1.476,-1.4673,-1.4646,-1.4629,-1.4575,-1.4461,-1.4461,-1.4434,-1.4309,-1.4309,-1.4222,-1.3983,-1.4048,-1.3972,-1.3635,-1.37,-1.3711,-1.3613,-1.3374,-1.3238,-1.3238,-1.3107,-1.3047,-1.3069,-1.3162,-1.327,-1.339,-1.3412,-1.3471,-1.3575,-1.3597,-1.3537,-4.2898,-4.2333,-4.2695,-4.2393,-4.1524,-4.0184,-3.818,0.0,0.0,0.0,-3.1638,-3.1288,-3.1046,0.0,0.0,0.0,0.0,0.0,0.0,0.0,0.0,0.0,0.0,0.0,0.0,0.0,0.0,0.0,0.0,-3.6759,-3.6877,-3.6759,-3.6414,-3.5844,-3.593,-3.5757,-3.5273,-3.4918,-3.4745,-3.4745,-3.4013,-3.355,-3.3313,-3.2947,-3.2463,-3.1914,-3.1774,0.0,-3.0847,-2.6971,-2.4563,-2.311,-1.9144,-1.6849,-1.5744,-1.5613,-1.5488,-1.5391,-1.5391,-1.5276,-1.5151,-1.526,-1.5222,-1.5124,-1.5053,-1.5037,-1.5037,-1.5037,-1.5037,-1.5037,-1.5037,-1.5037,-1.5037,-1.5037,-1.5037,-1.5037,-1.5037,-1.4994,-1.4956,-1.4956,-1.4858,-1.4771,-1.4771,-1.4716,-1.4629,-1.4515,-1.4504,-1.4461,-1.4336,-1.432,-1.4249,-1.4069,-1.4048,-1.3972,-1.3803,-1.3787,-1.376,-1.3705,-1.3471,-1.3336,-1.3336,-1.3221,-1.3189,-1.3254,-1.3308,-1.3395,-1.3515,-1.3515,-1.3548,-1.3602,-1.3602,-1.3504,-4.2994,-4.2792,-4.3142,-4.2393,-4.1065,-3.9412,-3.7299,-3.5163,0.0,0.0,-3.0745,-3.0684,-3.095,0.0,-3.2821,0.0,-3.4801,0.0,0.0,0.0,0.0,0.0,0.0,0.0,0.0,0.0,0.0,0.0,0.0,0.0,-3.6877,-3.6877,-3.6651,-3.6188,-3.6167,-3.5897,-3.5381,-3.495,-3.4724,-3.467,-3.3949,-3.3496,-3.3292,-3.2829,-3.2344,-3.1914,-3.172,0.0,0.0,-2.5644,-2.3471,-2.2981,-1.7818,-1.5755,-1.5728,-1.5516,-1.5418,-1.5374,-1.5293,-1.5162,-1.5053,-1.5179,-1.5206,-1.5162,-1.5064,-1.5037,-1.5037,-1.5037,-1.5037,-1.5037,-1.5037,-1.5037,-1.5037,-1.5037,-1.5037,-1.5037,-1.5037,-1.5037,-1.5037,-1.5037,-1.4956,-1.4896,-1.4896,-1.4814,-1.47,-1.4559,-1.4548,-1.4488,-1.4336,-1.4292,-1.4249,-1.4178,-1.4097,-1.4015,-1.3961,-1.3901,-1.3841,-1.3792,-1.358,-1.345,-1.3423,-1.333,-1.3325,-1.3417,-1.3444,-1.351,-1.3602,-1.3602,-1.3602,-1.3602,-1.3602,-1.3504,-4.3702,-4.3081,-4.3178,-4.2623,-4.0933,-3.8856,-3.672,0.0,0.0,-3.0974,-3.0624,-3.0684,-3.095,-3.1095,-3.1674,-3.3171,0.0,-3.509,0.0,0.0,0.0,0.0,0.0,0.0,0.0,0.0,0.0,0.0,0.0,0.0,-3.6877,-3.6877,-3.6651,-3.6188,-3.6167,-3.5822,-3.5122,-3.4864,-3.4638,-3.4412,-3.369,-3.3346,-3.3292,-3.2829,-3.2344,-3.1914,-3.1881,0.0,0.0,-2.5644,-2.3471,-2.2981,-1.7818,-1.5755,-1.5744,-1.5603,-1.5488,-1.5391,-1.5374,-1.5222,-1.5053,-1.5179,-1.5151,-1.5053,-1.5037,-1.5037,-1.5037,-1.5037,-1.5037,-1.5037,-1.5037,-1.5037,-1.5037,-1.5037,-1.5037,-1.5037,-1.5037,-1.5037,-1.5037,-1.5037,-1.5021,-1.5021,-1.5021,-1.501,-1.4923,-1.4689,-1.4657,-1.4575,-1.4347,-1.4222,-1.4195,-1.4292,-1.4292,-1.4195,-1.3977,-1.4048,-1.4015,-1.3803,-1.3662,-1.3537,-1.3428,-1.3412,-1.3412,-1.3423,-1.3531,-1.3591,-1.3602,-1.3602,-1.3602,-1.3602,-1.3602,-1.3591,-4.2884,-4.3214,-4.3371,-4.2695,-4.0679,-3.8374,-3.6587,0.0,0.0,-3.1071,-3.0721,-3.0684,-3.095,-3.1131,-3.1336,-3.165,0.0,0.0,0.0,0.0,0.0,0.0,0.0,0.0,0.0,0.0,0.0,0.0,0.0,0.0,-3.6877,-3.6877,-3.6651,-3.6188,-3.6016,-3.5671,-3.5101,-3.4724,-3.4465,-3.4379,-3.3658,-3.3313,-3.3292,-3.2689,-3.2226,-3.1914,-3.1741,0.0,0.0,-2.5644,-2.3471,-2.2981,-1.7818,-1.5755,-1.5744,-1.5613,-1.5543,-1.5472,-1.5331,-1.5222,-1.5151,-1.5124,-1.5081,-1.5037,-1.5037,-1.5037,-1.5037,-1.5037,-1.5037,-1.5037,-1.5037,-1.5037,-1.5037,-1.5037,-1.5037,-1.5037,-1.5037,-1.5037,-1.5037,-1.5037,-1.5037,-1.5037,-1.5037,-1.5037,-1.4956,-1.4716,-1.4673,-1.4586,-1.4347,-1.4276,-1.4265,-1.432,-1.4249,-1.4195,-1.4178,-1.4151,-1.4069,-1.3901,-1.3781,-1.3662,-1.3537,-1.3531,-1.3531,-1.3531,-1.358,-1.3602,-1.3602,-1.3602,-1.3602,-1.3602,-1.3602,-1.3564,-4.1778,-4.2828,-4.3274,-4.249,-4.0353,-3.8023,0.0,0.0,0.0,-3.1167,-3.0853,-3.0757,-3.0865,-3.1095,-3.1131,-3.0672,0.0,-3.1831,0.0,0.0,0.0,0.0,0.0,0.0,0.0,0.0,0.0,0.0,0.0,0.0,-3.6759,-3.6759,-3.6586,-3.6167,-3.5876,-3.5467,-3.5014,-3.4519,-3.4239,-3.4153,-3.3518,-3.3206,-3.3206,-3.2549,-3.214,-3.1914,-3.1655,0.0,0.0,-2.5275,-2.2989,-2.1911,-1.7563,-1.5755,-1.5744,-1.557,-1.5516,-1.5488,-1.5293,-1.5189,-1.5162,-1.5108,-1.5064,-1.5037,-1.5037,-1.5037,-1.5037,-1.5037,-1.5037,-1.5037,-1.5037,-1.5037,-1.5037,-1.5037,-1.5037,-1.5037,-1.5037,-1.5037,-1.5037,-1.5037,-1.5037,-1.5037,-1.5037,-1.5037,-1.4956,-1.4716,-1.4673,-1.4586,-1.4347,-1.432,-1.432,-1.432,-1.4249,-1.4222,-1.4309,-1.4238,-1.4124,-1.3966,-1.3879,-1.3765,-1.3613,-1.3602,-1.3602,-1.3602,-1.3602,-1.3602,-1.3602,-1.3602,-1.3602,-1.3602,-1.3602,-1.3558,-4.0353,-4.1717,-4.2731,-4.191,-3.9931,-3.7734,0.0,0.0,0.0,-3.1167,-3.0998,-3.0914,-3.066,-3.0829,-3.0914,-3.0648,-3.0829,0.0,0.0,0.0,0.0,0.0,0.0,0.0,0.0,0.0,0.0,0.0,0.0,0.0,0.0,-3.65,-3.6393,-3.6167,-3.5704,-3.5208,-3.4745,-3.4261,-3.3916,-3.3669,-3.3206,-3.298,-3.298,-3.2495,-3.214,0.0,0.0,0.0,0.0,-2.4554,-2.2039,-1.9374,-1.6849,-1.5755,-1.5728,-1.5488,-1.5391,-1.5374,-1.526,-1.5135,-1.5064,-1.5179,-1.5135,-1.5037,-1.5037,-1.5037,-1.5037,-1.5037,-1.5037,-1.5037,-1.5037,-1.5037,-1.5037,-1.5037,-1.5037,-1.5037,-1.5037,-1.5037,-1.5037,-1.5037,-1.5037,-1.5037,-1.5037,-1.5037,-1.4956,-1.4716,-1.4673,-1.4586,-1.4347,-1.432,-1.432,-1.432,-1.432,-1.432,-1.432,-1.432,-1.4211,-1.3972,-1.3955,-1.3852,-1.3613,-1.3602,-1.3602,-1.3602,-1.3602,-1.3602,-1.3602,-1.3602,-1.3602,-1.3602,-1.3602,-1.3602,-3.7794,-3.8989,-3.9738,-3.8953,-3.7335,-3.5742,-3.4897,0.0,0.0,-3.1602,-3.1397,-3.1179,-3.0926,-3.1083,-3.1119,-3.0672,-3.0829,0.0,0.0,0.0,0.0,0.0,0.0,0.0,0.0,0.0,0.0,0.0,0.0,0.0,0.0,-3.6037,-3.5757,-3.5671,-3.5359,-3.4982,-3.4498,-3.4013,-3.3755,-3.3669,-3.3206,-3.2893,-3.2721,-3.2409,-3.2032,0.0,0.0,0.0,0.0,-2.4554,-2.1918,-1.9394,-1.6849,-1.57,-1.5613,-1.5543,-1.5461,-1.5374,-1.526,-1.5189,-1.5151,-1.5108,-1.5064,-1.5037,-1.5037,-1.5037,-1.5037,-1.5037,-1.5037,-1.5037,-1.5037,-1.5037,-1.5037,-1.5037,-1.5037,-1.5037,-1.5037,-1.5037,-1.5037,-1.5037,-1.5037,-1.5037,-1.5037,-1.4967,-1.4858,-1.47,-1.4602,-1.4532,-1.4461,-1.445,-1.445,-1.445,-1.445,-1.4407,-1.4336,-1.432,-1.4222,-1.3972,-1.4037,-1.3939,-1.3618,-1.3684,-1.3689,-1.3607,-1.3602,-1.3602,-1.3602,-1.3602,-1.3602,-1.3602,-1.3602,-1.3602,0.0,-3.6853,-3.7661,-3.707,-3.5935,0.0,0.0,0.0,0.0,-3.1831,-3.1674,-3.1433,-3.1071,-3.1131,-3.1107,-3.0672,0.0,0.0,0.0,0.0,0.0,0.0,0.0,0.0,0.0,0.0,0.0,0.0,0.0,0.0,-3.6242,-3.5725,-3.5327,-3.5036,-3.4896,-3.4638,-3.4261,-3.3776,-3.3432,-3.3259,-3.2893,-3.2581,-3.2344,-3.2086,-3.1827,0.0,0.0,0.0,0.0,-2.411,-2.1331,-1.7969,-1.6293,-1.5613,-1.5499,-1.5499,-1.5434,-1.5304,-1.5189,-1.5151,-1.5135,-1.5064,-1.5037,-1.5037,-1.5037,-1.5037,-1.5037,-1.5037,-1.5037,-1.5037,-1.5037,-1.5037,-1.5037,-1.5037,-1.5037,-1.5037,-1.5037,-1.5037,-1.5037,-1.5037,-1.5037,-1.5037,-1.5037,-1.4939,-1.4814,-1.4689,-1.4619,-1.4548,-1.4504,-1.4504,-1.4504,-1.4504,-1.4461,-1.4407,-1.432,-1.432,-1.4238,-1.4037,-1.4053,-1.395,-1.3684,-1.3705,-1.3684,-1.3607,-1.3602,-1.3602,-1.3602,-1.3602,-1.3602,-1.3602,-1.3602,-1.3602,0.0,-3.5066,0.0,0.0,0.0,0.0,0.0,0.0,0.0,-3.1831,-3.1783,-3.1614,-3.1071,-3.0986,-3.0914,0.0,0.0,0.0,0.0,0.0,0.0,0.0,0.0,0.0,0.0,0.0,0.0,0.0,0.0,0.0,-3.5811,-3.5521,-3.5068,-3.4379,-3.4358,-3.4239,-3.4002,-3.355,-3.3087,-3.2603,-3.2377,-3.2118,-3.1881,-3.1655,-3.1547,0.0,0.0,0.0,0.0,-2.3396,-2.0246,-1.5586,-1.557,-1.5488,-1.5391,-1.5374,-1.5304,-1.5189,-1.5081,-1.5037,-1.5037,-1.5037,-1.5037,-1.5037,-1.5037,-1.5037,-1.5037,-1.5037,-1.5037,-1.5037,-1.5037,-1.5037,-1.5037,-1.5037,-1.5037,-1.5037,-1.5037,-1.5037,-1.5037,-1.5037,-1.5037,-1.5037,-1.5037,-1.4939,-1.4814,-1.47,-1.4673,-1.4629,-1.4532,-1.4515,-1.4515,-1.4504,-1.4407,-1.4336,-1.432,-1.432,-1.4265,-1.414,-1.4037,-1.3917,-1.3781,-1.3678,-1.3624,-1.3602,-1.3602,-1.3602,-1.3602,-1.3602,-1.3602,-1.3602,-1.3602,-1.3602,-3.165,0.0,-3.2845,-3.2592,-3.2374,-3.2242,0.0,-3.1916,-3.1566,-3.1493,-3.1493,-3.1324,-3.0793,0.0,0.0,0.0,0.0,0.0,0.0,0.0,0.0,0.0,0.0,0.0,0.0,0.0,0.0,0.0,0.0,-3.7205,-3.5531,-3.495,-3.4465,-3.4121,-3.3927,-3.3809,-3.3755,-3.3464,-3.3087,-3.2603,-3.2377,-3.2032,-3.1634,-3.1569,-3.1461,0.0,0.0,0.0,-2.3447,-2.3396,-2.0303,-1.57,-1.5505,-1.5418,-1.5374,-1.5293,-1.5179,-1.5081,-1.5053,-1.5037,-1.5037,-1.5037,-1.5037,-1.5037,-1.5037,-1.5037,-1.5037,-1.5037,-1.5037,-1.5037,-1.5037,-1.5037,-1.5037,-1.5037,-1.5037,-1.5037,-1.5037,-1.5037,-1.5037,-1.5037,-1.5037,-1.5037,-1.5037,-1.4939,-1.4841,-1.4814,-1.4727,-1.4657,-1.4629,-1.4629,-1.4602,-1.4515,-1.4477,-1.4417,-1.4336,-1.432,-1.4222,-1.4015,-1.4151,-1.4053,-1.3662,-1.3792,-1.3787,-1.3607,-1.3602,-1.3602,-1.3602,-1.3602,-1.3602,-1.3602,-1.3602,-1.3602,-3.1179,-3.13,-3.1433,-3.1397,-3.1384,-3.1457,-3.1747,-3.1698,-3.1541,-3.1421,-3.1493,-3.1384,0.0,0.0,0.0,0.0,0.0,0.0,0.0,0.0,0.0,0.0,0.0,0.0,0.0,0.0,0.0,0.0,0.0,-3.715,-3.5305,-3.4605,-3.4121,-3.3862,-3.3636,-3.341,-3.3173,-3.3066,-3.2689,-3.2118,-3.2,-3.1741,-3.1375,-3.1375,-3.1311,0.0,0.0,0.0,-2.3341,-2.3273,-2.0133,-1.5499,-1.5363,-1.5276,-1.5222,-1.5222,-1.5135,-1.5037,-1.5037,-1.5037,-1.5037,-1.5037,-1.5037,-1.5037,-1.5037,-1.5037,-1.5037,-1.5037,-1.5037,-1.5037,-1.5037,-1.5037,-1.5037,-1.5037,-1.5037,-1.5037,-1.5037,-1.5037,-1.5037,-1.5037,-1.5037,-1.5037,-1.5037,-1.4939,-1.4858,-1.4858,-1.4798,-1.4744,-1.4689,-1.4673,-1.4629,-1.4515,-1.445,-1.439,-1.432,-1.432,-1.4265,-1.414,-1.414,-1.4037,-1.3776,-1.3787,-1.3738,-1.3607,-1.3602,-1.3602,-1.3602,-1.3602,-1.3602,-1.3602,-1.3602,-1.3602,-3.1457,-3.1288,-3.1167,-3.1348,-3.1384,-3.1457,-3.1747,-3.1771,-3.1674,-3.1433,-3.1541,0.0,0.0,-3.0817,0.0,0.0,0.0,0.0,0.0,0.0,0.0,0.0,0.0,0.0,0.0,0.0,0.0,0.0,0.0,-3.7071,-3.5094,-3.4325,-3.3862,-3.3582,-3.3324,-3.298,-3.2484,-3.257,-3.2258,-3.1547,-3.1547,-3.1429,-3.1203,-3.1203,-3.1203,-3.1203,0.0,0.0,-2.3314,-2.3102,-2.0017,-1.5249,-1.5206,-1.5135,-1.5081,-1.5162,-1.5124,-1.5037,-1.5037,-1.5037,-1.5037,-1.5037,-1.5037,-1.5037,-1.5037,-1.5037,-1.5037,-1.5037,-1.5037,-1.5037,-1.5037,-1.5037,-1.5037,-1.5037,-1.5037,-1.5037,-1.5037,-1.5037,-1.5037,-1.5037,-1.5037,-1.5037,-1.5037,-1.4956,-1.4885,-1.4885,-1.4869,-1.4814,-1.4689,-1.4657,-1.4602,-1.4488,-1.4379,-1.432,-1.432,-1.432,-1.432,-1.432,-1.4113,-1.3966,-1.3934,-1.3722,-1.3602,-1.3602,-1.3602,-1.3602,-1.3602,-1.3602,-1.3602,-1.3602,-1.3602,-1.3602,-3.1747,-3.171,-3.1638,-3.1433,-3.1384,-3.1457,-3.1747,-3.1626,-3.1445,0.0,0.0,0.0,0.0,-3.0817,-3.0902,0.0,0.0,0.0,0.0,0.0,0.0,0.0,0.0,0.0,0.0,0.0,0.0,0.0,0.0,0.0,-3.4239,-3.3895,-3.3518,-3.3098,-3.2829,-3.2484,-3.2032,-3.2398,-3.2258,-3.1547,-3.1547,-3.1429,-3.1203,-3.1203,-3.1203,-3.1192,0.0,-2.8011,-2.3314,-2.2971,-1.9857,-1.5347,-1.5151,-1.5124,-1.5179,-1.5092,-1.5053,-1.5037,-1.5037,-1.5037,-1.5037,-1.5037,-1.5037,-1.5037,-1.5037,-1.5037,-1.5037,-1.5037,-1.5037,-1.5037,-1.5037,-1.5037,-1.5037,-1.5037,-1.5037,-1.5037,-1.5037,-1.5037,-1.5037,-1.5037,-1.5037,-1.5037,-1.5037,-1.5021,-1.501,-1.501,-1.4923,-1.4814,-1.4689,-1.4586,-1.4488,-1.4363,-1.4336,-1.432,-1.432,-1.432,-1.432,-1.432,-1.4195,-1.4021,-1.3819,-1.3678,-1.3602,-1.3602,-1.3602,-1.3602,-1.3602,-1.3602,-1.3602,-1.3602,-1.3602,-1.3602,-3.1807,-3.1807,-3.1771,-3.165,-3.1614,-3.165,-3.1783,-3.159,-3.1384,-3.1384,-3.1179,0.0,0.0,0.0,0.0,0.0,0.0,0.0,0.0,0.0,0.0,0.0,0.0,0.0,0.0,0.0,0.0,0.0,0.0,0.0,-3.4067,-3.355,-3.3119,-3.2775,-3.2549,-3.2204,-3.172,-3.1914,-3.1806,-3.1375,-3.1375,-3.1311,-3.1203,-3.1203,-3.1138,-3.0998,0.0,-2.7855,-2.3037,-2.2865,-1.9765,-1.5189,-1.5081,-1.5064,-1.5108,-1.5053,-1.5037,-1.5037,-1.5037,-1.5037,-1.5037,-1.5037,-1.5037,-1.5037,-1.5037,-1.5037,-1.5037,-1.5037,-1.5037,-1.5037,-1.5037,-1.5037,-1.5037,-1.5037,-1.5037,-1.5037,-1.5037,-1.5037,-1.5037,-1.5037,-1.5037,-1.5037,-1.5037,-1.5037,-1.5037,-1.5037,-1.4939,-1.4814,-1.4689,-1.4575,-1.4477,-1.4417,-1.4363,-1.4347,-1.4417,-1.4363,-1.4292,-1.4222,-1.4108,-1.3966,-1.3792,-1.3667,-1.3602,-1.3602,-1.3602,-1.3602,-1.3602,-1.3602,-1.3602,-1.3602,-1.3602,-1.3602,-3.1807,-3.1855,-3.1891,-3.1831,-3.1807,-3.1843,-3.1964,-3.1831,-3.1698,-3.1831,-3.1602,0.0,0.0,0.0,0.0,0.0,0.0,0.0,0.0,0.0,0.0,0.0,0.0,0.0,0.0,0.0,0.0,0.0,0.0,0.0,-3.3895,-3.3292,-3.284,-3.2549,-3.229,-3.1978,-3.1547,-3.1494,-3.1375,-3.1203,-3.1203,-3.1171,-3.1117,-3.1171,-3.1031,-3.0644,-3.0165,-2.7221,-2.28,-2.2054,-1.9172,-1.5037,-1.5037,-1.5037,-1.5037,-1.5037,-1.5037,-1.5037,-1.5037,-1.5037,-1.5037,-1.5037,-1.5037,-1.5037,-1.5037,-1.5037,-1.5037,-1.5037,-1.5037,-1.5037,-1.5037,-1.5037,-1.5037,-1.5037,-1.5037,-1.5037,-1.5037,-1.5037,-1.5037,-1.5037,-1.5037,-1.5037,-1.5037,-1.5037,-1.5021,-1.4994,-1.4912,-1.4814,-1.4689,-1.4602,-1.4548,-1.4548,-1.4434,-1.439,-1.4461,-1.4379,-1.4276,-1.4178,-1.4037,-1.3906,-1.3792,-1.3667,-1.3602,-1.3602,-1.3602,-1.3602,-1.3602,-1.3602,-1.3602,-1.3602,-1.3602,-1.3602,-3.1807,-3.1988,-3.2109,-3.1867,-3.1807,-3.194,-3.2423,-3.2519,-3.2652,-3.3147,-3.2821,-3.2398,0.0,0.0,0.0,0.0,0.0,0.0,0.0,0.0,0.0,0.0,0.0,0.0,0.0,0.0,0.0,0.0,0.0,0.0,-3.3505,-3.3119,-3.2775,-3.229,-3.2064,-3.1806,-3.1547,-3.1343,-3.1224,-3.1203,-3.1203,-3.1085,-3.088,-3.1106,-3.0945,-3.0387,-2.8145,-2.5446,-2.2559,-2.0081,-1.7465,-1.5037,-1.5037,-1.5037,-1.5037,-1.5037,-1.5037,-1.5037,-1.5037,-1.5037,-1.5037,-1.5037,-1.5037,-1.5037,-1.5037,-1.5037,-1.5037,-1.5037,-1.5037,-1.5037,-1.5037,-1.5037,-1.5037,-1.5037,-1.5037,-1.5037,-1.5037,-1.5037,-1.5037,-1.5037,-1.5037,-1.5037,-1.5037,-1.5037,-1.4994,-1.4885,-1.4858,-1.4814,-1.4689,-1.4657,-1.4657,-1.4657,-1.4559,-1.445,-1.4347,-1.432,-1.432,-1.4309,-1.408,-1.3906,-1.3792,-1.3667,-1.3602,-1.3602,-1.3602,-1.3602,-1.3602,-1.3602,-1.3602,-1.3602,-1.3602,-1.3602,-3.1759,-3.1759,-3.1674,-3.1578,-3.1541,-3.1771,-3.2628,-3.2821,-3.2978,-3.3533,-3.3473,-3.3304,-3.3207,0.0,0.0,0.0,0.0,0.0,0.0,0.0,0.0,0.0,0.0,0.0,0.0,0.0,0.0,0.0,0.0,0.0,0.0,-3.2743,-3.2377,-3.2054,-3.1806,-3.1634,-3.1547,-3.1311,-3.1203,-3.1203,-3.1052,-3.0934,-3.0848,-3.0794,-3.0568,-3.0151,-2.7685,-2.5006,-2.2389,-1.9784,-1.7226,-1.5037,-1.5037,-1.5037,-1.5037,-1.5037,-1.5037,-1.5037,-1.5037,-1.5037,-1.5037,-1.5037,-1.5037,-1.5037,-1.5037,-1.5037,-1.5037,-1.5037,-1.5037,-1.5037,-1.5037,-1.5037,-1.5037,-1.5037,-1.5037,-1.5037,-1.5037,-1.5037,-1.5037,-1.5037,-1.5037,-1.5037,-1.5037,-1.4983,-1.4939,-1.4967,-1.4841,-1.476,-1.4787,-1.4716,-1.4673,-1.4673,-1.4575,-1.445,-1.4336,-1.432,-1.432,-1.432,-1.4167,-1.4048,-1.401,-1.3819,-1.3716,-1.3716,-1.3645,-1.3602,-1.3602,-1.3602,-1.3602,-1.3602,-1.3602,-1.3602,-3.1529,-3.1409,-3.1264,-3.1264,-3.1397,-3.1819,-3.2978,-3.3243,-3.3497,-3.4475,-3.4342,-3.4088,-3.4245,0.0,0.0,0.0,0.0,0.0,0.0,0.0,0.0,0.0,0.0,0.0,0.0,0.0,0.0,0.0,0.0,0.0,0.0,-3.2603,-3.2258,-3.2032,-3.186,-3.1666,-3.1429,-3.1289,-3.1117,-3.0966,-3.074,-3.0622,-3.0622,-3.0535,-3.0309,-2.9779,-2.6606,-2.4206,-2.2185,-1.8844,-1.6541,-1.5037,-1.5037,-1.5037,-1.5037,-1.5037,-1.5037,-1.5037,-1.5037,-1.5037,-1.5037,-1.5037,-1.5037,-1.5037,-1.5037,-1.5037,-1.5037,-1.5037,-1.5037,-1.5037,-1.5037,-1.5037,-1.5037,-1.5037,-1.5037,-1.5037,-1.5037,-1.5037,-1.5037,-1.5037,-1.5037,-1.5037,-1.5037,-1.4939,-1.4869,-1.4912,-1.4814,-1.4744,-1.4787,-1.476,-1.47,-1.4629,-1.4548,-1.445,-1.4336,-1.432,-1.432,-1.432,-1.4238,-1.4178,-1.414,-1.3944,-1.3841,-1.3841,-1.3722,-1.3662,-1.3662,-1.3624,-1.3602,-1.3602,-1.3602,-1.3602,-3.1071,-3.0998,-3.0998,-3.0998,-3.1409,-3.2157,-3.3497,-3.3799,-3.4318,-3.6201,-3.5513,-3.4764,-3.5295,-3.5187,0.0,0.0,0.0,0.0,0.0,0.0,0.0,0.0,0.0,0.0,0.0,0.0,0.0,0.0,0.0,0.0,0.0,-3.2743,-3.2484,-3.2258,-3.2258,-3.1914,-3.1203,-3.1192,-3.0945,-3.0482,-3.0245,-3.0137,-3.0137,-3.0363,-3.0223,-2.9544,-2.4792,-2.2694,-2.2062,-1.7006,-1.5037,-1.5037,-1.5037,-1.5037,-1.5037,-1.5037,-1.5037,-1.5037,-1.5037,-1.5037,-1.5037,-1.5037,-1.5037,-1.5037,-1.5037,-1.5037,-1.5037,-1.5037,-1.5037,-1.5037,-1.5037,-1.5037,-1.5037,-1.5037,-1.5037,-1.5037,-1.5037,-1.5037,-1.5037,-1.5037,-1.5037,-1.5037,-1.5037,-1.4939,-1.4814,-1.47,-1.4771,-1.4814,-1.4689,-1.4787,-1.476,-1.4532,-1.4504,-1.445,-1.4336,-1.432,-1.432,-1.432,-1.432,-1.4265,-1.414,-1.4026,-1.3955,-1.3955,-1.3847,-1.3787,-1.3787,-1.3667,-1.3602,-1.3602,-1.3602,-1.3602,-3.1022,-3.0865,-3.0817,-3.1179,-3.1674,-3.2483,-3.3992,-3.4342,-3.4933,-3.6985,-3.6949,-3.6527,-3.6527,-3.6756,0.0,0.0,0.0,0.0,0.0,0.0,0.0,0.0,0.0,0.0,0.0,0.0,0.0,0.0,0.0,0.0,0.0,-3.2344,-3.2,-3.1774,-3.1601,-3.1343,-3.0966,-3.0772,-3.0622,-3.0482,-3.0245,-3.0137,-3.0137,-3.0019,-2.9911,-2.9544,-2.465,-2.2448,-2.2062,-1.7006,-1.5037,-1.5037,-1.5037,-1.5037,-1.5037,-1.5037,-1.5037,-1.5037,-1.5037,-1.5037,-1.5037,-1.5037,-1.5037,-1.5037,-1.5037,-1.5037,-1.5037,-1.5037,-1.5037,-1.5037,-1.5037,-1.5037,-1.5037,-1.5037,-1.5037,-1.5037,-1.5037,-1.5037,-1.5037,-1.5037,-1.5037,-1.5037,-1.5037,-1.4869,-1.4771,-1.4912,-1.4814,-1.4744,-1.4798,-1.476,-1.4673,-1.4515,-1.4434,-1.4363,-1.432,-1.432,-1.432,-1.432,-1.432,-1.4309,-1.4265,-1.4151,-1.408,-1.408,-1.389,-1.3787,-1.3787,-1.3667,-1.3602,-1.3602,-1.3602,-1.3602,-3.0865,-3.0805,-3.0914,-3.1553,-3.2193,-3.3111,-3.4837,-3.5706,-3.6551,0.0,-3.7854,-3.7529,-3.7601,-3.7601,0.0,0.0,0.0,0.0,0.0,0.0,0.0,0.0,0.0,0.0,0.0,0.0,0.0,0.0,0.0,0.0,0.0,-3.2251,-3.1806,-3.1667,-3.1397,-3.1138,-3.0708,-3.0568,-3.0395,-3.0191,-3.0051,-2.9997,-2.9997,-2.9825,-2.9296,-2.8038,-2.3105,-2.0326,-1.9184,-1.6186,-1.5037,-1.5037,-1.5037,-1.5037,-1.5037,-1.5037,-1.5037,-1.5037,-1.5037,-1.5037,-1.5037,-1.5037,-1.5037,-1.5037,-1.5037,-1.5037,-1.5037,-1.5037,-1.5037,-1.5037,-1.5037,-1.5037,-1.5037,-1.5037,-1.5037,-1.5037,-1.5037,-1.5037,-1.5037,-1.5037,-1.5037,-1.5037,-1.5037,-1.4841,-1.4744,-1.4939,-1.4798,-1.47,-1.4771,-1.4673,-1.4559,-1.4445,-1.4363,-1.432,-1.432,-1.432,-1.432,-1.432,-1.432,-1.432,-1.432,-1.4249,-1.4205,-1.4205,-1.4021,-1.3901,-1.3857,-1.3781,-1.3722,-1.3678,-1.3722,-1.3743,-3.0684,-3.0853,-3.1288,-3.2073,-3.2978,-3.4125,-3.5911,-3.7468,-3.8603,-3.8856,0.0,-3.8048,-3.8543,0.0,0.0,0.0,0.0,0.0,0.0,0.0,0.0,0.0,0.0,0.0,0.0,0.0,0.0,0.0,0.0,0.0,0.0,-3.2332,-3.1741,-3.1483,-3.1461,-3.1117,-3.0428,-3.0428,-3.0191,-2.9771,-2.9771,-2.9771,-2.9771,-2.9771,-2.8379,-2.5474,-2.0765,-1.7311,-1.501,-1.501,-1.501,-1.501,-1.5021,-1.5021,-1.5021,-1.501,-1.501,-1.5021,-1.5021,-1.5021,-1.5021,-1.5037,-1.5037,-1.5037,-1.5037,-1.5037,-1.5037,-1.5037,-1.5037,-1.5037,-1.5037,-1.5037,-1.5037,-1.5037,-1.5037,-1.5037,-1.5037,-1.5037,-1.5037,-1.5037,-1.5037,-1.5037,-1.5037,-1.4841,-1.4727,-1.4825,-1.4744,-1.4673,-1.4657,-1.4575,-1.4461,-1.4336,-1.432,-1.432,-1.432,-1.432,-1.432,-1.432,-1.432,-1.432,-1.432,-1.432,-1.432,-1.432,-1.4195,-1.408,-1.3955,-1.3955,-1.3901,-1.3792,-1.3906,-1.395,-3.0733,-3.1264,0.0,0.0,-3.4342,-3.614,-3.7179,-3.7987,-3.8567,-3.8603,-3.8832,-3.905,0.0,0.0,0.0,0.0,0.0,0.0,0.0,0.0,0.0,0.0,0.0,0.0,0.0,0.0,0.0,0.0,0.0,0.0,-3.2961,-3.1929,-3.1257,-3.0998,-3.0826,-3.0449,-2.9943,-2.9911,-2.9879,0.0,-2.9771,-2.9771,-2.9771,-2.9771,-2.735,-2.2862,-1.9798,-1.7117,-1.4754,-1.4858,-1.4841,-1.4754,-1.4858,-1.4896,-1.4885,-1.4787,-1.4814,-1.4896,-1.4896,-1.4896,-1.4912,-1.501,-1.5037,-1.5037,-1.5037,-1.5037,-1.5037,-1.5037,-1.5037,-1.5037,-1.5037,-1.5037,-1.5037,-1.5037,-1.5037,-1.5037,-1.5037,-1.5037,-1.5037,-1.5037,-1.5037,-1.5037,-1.5037,-1.4912,-1.4798,-1.4727,-1.4689,-1.4646,-1.4548,-1.4515,-1.4461,-1.4336,-1.432,-1.432,-1.432,-1.432,-1.432,-1.432,-1.432,-1.432,-1.432,-1.432,-1.432,-1.432,-1.4195,-1.408,-1.3955,-1.3955,-1.3901,-1.3792,-1.3906,-1.3906,-3.0865,0.0,0.0,-3.4185,0.0,-3.7106,-3.7794,-3.8253,-3.8543,-3.8543,0.0,0.0,0.0,0.0,0.0,0.0,0.0,0.0,0.0,0.0,0.0,0.0,0.0,0.0,0.0,0.0,0.0,0.0,0.0,0.0,0.0,-3.1513,-3.074,-3.0503,-3.0395,-3.0137,-2.9771,-2.9771,-2.9706,-2.9599,-2.9599,-2.8961,-2.7723,-2.6695,-2.4102,-2.0199,-1.7706,-1.5984,-1.4673,-1.4744,-1.4727,-1.4673,-1.4744,-1.4771,-1.476,-1.47,-1.4716,-1.4771,-1.4841,-1.4858,-1.4869,-1.4994,-1.5037,-1.5037,-1.5037,-1.5037,-1.5037,-1.5037,-1.5037,-1.5037,-1.5037,-1.5037,-1.5037,-1.5037,-1.5037,-1.5037,-1.5037,-1.5037,-1.5021,-1.4967,-1.4956,-1.4956,-1.4956,-1.4896,-1.4798,-1.4619,-1.4586,-1.4575,-1.4515,-1.445,-1.439,-1.432,-1.432,-1.432,-1.432,-1.432,-1.432,-1.432,-1.432,-1.432,-1.432,-1.432,-1.432,-1.432,-1.4265,-1.4167,-1.4042,-1.4097,-1.4069,-1.3961,-1.408,-1.4069,-3.0998,0.0,-3.3666,-3.5682,-3.6756,0.0,-3.7951,-3.8253,0.0,0.0,0.0,0.0,0.0,0.0,0.0,0.0,0.0,0.0,0.0,0.0,0.0,0.0,0.0,0.0,0.0,0.0,0.0,0.0,0.0,0.0,-3.2652,-3.1232,-3.0342,-3.0137,-3.0051,-2.9932,-2.9771,-2.9685,-2.9566,-2.9416,-2.9394,-2.7774,-2.4864,-2.2999,-2.0727,-1.8247,-1.5776,-1.4629,-1.4619,-1.4629,-1.4629,-1.4619,-1.4629,-1.4646,-1.4646,-1.4619,-1.4646,-1.4689,-1.4787,-1.4825,-1.4841,-1.4967,-1.4994,-1.4983,-1.4994,-1.501,-1.501,-1.5037,-1.5037,-1.5037,-1.5037,-1.5037,-1.5037,-1.5037,-1.5037,-1.5037,-1.501,-1.501,-1.4967,-1.4841,-1.4841,-1.4858,-1.4858,-1.4841,-1.4754,-1.4532,-1.4488,-1.4477,-1.4477,-1.4379,-1.432,-1.432,-1.432,-1.432,-1.432,-1.432,-1.432,-1.432,-1.432,-1.432,-1.432,-1.432,-1.432,-1.432,-1.432,-1.4265,-1.414,-1.4265,-1.4265,-1.414,-1.4238,-1.4222,0.0,0.0,-3.4378,0.0,-3.6587,-3.7179,0.0,0.0,0.0,0.0,0.0,0.0,0.0,0.0,0.0,0.0,0.0,0.0,0.0,0.0,0.0,0.0,0.0,0.0,0.0,0.0,0.0,0.0,0.0,0.0,-3.2401,-3.1,-3.0159,-3.0137,-2.9739,-2.9588,-2.9771,-2.9362,-2.9254,-2.9416,-2.9222,-2.6743,-2.2199,-2.1891,-2.0444,-1.8091,-1.5635,-1.4461,-1.4379,-1.4477,-1.4461,-1.4379,-1.4488,-1.4532,-1.4515,-1.4407,-1.4504,-1.4673,-1.4689,-1.47,-1.4716,-1.4841,-1.4814,-1.4744,-1.4841,-1.4885,-1.4896,-1.501,-1.5037,-1.5037,-1.5037,-1.5037,-1.5037,-1.5037,-1.5037,-1.501,-1.4896,-1.4885,-1.4841,-1.4716,-1.4787,-1.4858,-1.4858,-1.4771,-1.4657,-1.4515,-1.4417,-1.4347,-1.4347,-1.4336,-1.432,-1.432,-1.432,-1.432,-1.432,-1.432,-1.432,-1.432,-1.432,-1.432,-1.432,-1.432,-1.432,-1.432,-1.432,-1.4265,-1.414,-1.4265,-1.4265,-1.414,-1.4151,-1.4097,-3.2048,-3.2917,-3.3992,0.0,0.0,0.0,0.0,0.0,0.0,0.0,0.0,0.0,0.0,0.0,0.0,0.0,0.0,0.0,0.0,0.0,0.0,0.0,0.0,0.0,0.0,0.0,0.0,0.0,0.0,-3.2069,-3.1727,-3.0472,-2.9739,-2.9739,-2.9534,-2.948,-2.9566,-2.9254,-2.905,-2.9017,-2.7454,-2.4852,-2.1449,-2.0126,-1.8253,-1.594,-1.4848,-1.4379,-1.432,-1.4379,-1.4363,-1.432,-1.4379,-1.4407,-1.439,-1.4336,-1.439,-1.4488,-1.4559,-1.4575,-1.4602,-1.4716,-1.4716,-1.4689,-1.4744,-1.476,-1.4771,-1.4814,-1.4885,-1.4939,-1.4939,-1.4983,-1.5037,-1.5037,-1.4983,-1.4896,-1.4787,-1.4814,-1.4798,-1.4619,-1.4619,-1.4629,-1.4575,-1.4575,-1.4532,-1.4417,-1.4347,-1.432,-1.432,-1.432,-1.432,-1.432,-1.432,-1.432,-1.432,-1.432,-1.432,-1.432,-1.432,-1.432,-1.432,-1.432,-1.432,-1.432,-1.432,-1.4292,-1.4238,-1.4292,-1.4292,-1.4238,-1.4167,-1.4069,0.0,0.0,0.0,0.0,0.0,0.0,0.0,0.0,0.0,0.0,0.0,0.0,0.0,0.0,0.0,0.0,0.0,0.0,0.0,0.0,0.0,0.0,0.0,0.0,0.0,0.0,0.0,0.0,0.0,-3.1556,-3.1247,-3.0086,-2.9394,-2.9329,-2.9276,-2.9276,-2.9329,-2.9103,-2.8845,-2.8608,-2.6009,-2.3629,-2.1226,-1.8818,-1.6514,-1.432,-1.432,-1.432,-1.432,-1.432,-1.432,-1.432,-1.432,-1.432,-1.432,-1.432,-1.4336,-1.4379,-1.4477,-1.4504,-1.4515,-1.4602,-1.4602,-1.4586,-1.4619,-1.4629,-1.4646,-1.47,-1.4787,-1.4869,-1.4896,-1.4967,-1.5037,-1.5037,-1.4939,-1.4814,-1.4657,-1.4673,-1.4673,-1.4532,-1.4504,-1.4477,-1.4379,-1.4445,-1.4461,-1.4336,-1.432,-1.432,-1.432,-1.432,-1.432,-1.432,-1.432,-1.432,-1.432,-1.432,-1.432,-1.432,-1.432,-1.432,-1.432,-1.432,-1.432,-1.432,-1.432,-1.432,-1.432,-1.432,-1.432,-1.432,-1.4167,-1.4042,0.0,0.0,0.0,0.0,0.0,0.0,0.0,0.0,0.0,0.0,0.0,0.0,0.0,0.0,0.0,0.0,0.0,0.0,0.0,0.0,0.0,0.0,0.0,0.0,0.0,0.0,0.0,0.0,0.0,-3.1738,-3.1247,-3.0086,-2.9329,-2.9103,-2.8877,-2.8845,-2.9103,-2.8845,-2.8608,-2.8382,-2.6048,-2.3638,-2.1226,-1.8818,-1.6514,-1.432,-1.432,-1.432,-1.432,-1.432,-1.432,-1.432,-1.432,-1.432,-1.432,-1.432,-1.439,-1.4488,-1.4504,-1.4504,-1.4504,-1.4504,-1.4434,-1.4363,-1.4477,-1.4515,-1.4559,-1.4787,-1.4858,-1.4885,-1.4994,-1.5037,-1.5037,-1.5037,-1.4939,-1.4798,-1.4559,-1.4417,-1.4379,-1.4488,-1.4504,-1.4504,-1.4488,-1.4504,-1.4461,-1.4336,-1.432,-1.432,-1.432,-1.432,-1.432,-1.432,-1.432,-1.432,-1.432,-1.432,-1.432,-1.432,-1.432,-1.432,-1.432,-1.432,-1.432,-1.432,-1.432,-1.432,-1.432,-1.432,-1.432,-1.432,-1.408,-1.3961,0.0,0.0,0.0,0.0,0.0,0.0,0.0,0.0,0.0,0.0,0.0,0.0,0.0,0.0,0.0,0.0,0.0,0.0,0.0,0.0,0.0,0.0,0.0,0.0,0.0,0.0,0.0,0.0,0.0,0.0,-3.0184,-2.9404,-2.8931,-2.8845,-2.8759,-2.8673,-2.8619,-2.8533,-2.8371,-2.8134,-2.4322,-2.2033,-2.0955,-1.7143,-1.5011,-1.432,-1.432,-1.432,-1.432,-1.432,-1.432,-1.432,-1.432,-1.432,-1.432,-1.432,-1.4347,-1.439,-1.439,-1.439,-1.439,-1.439,-1.4363,-1.4336,-1.4379,-1.439,-1.4417,-1.4586,-1.4629,-1.4673,-1.4869,-1.4923,-1.4896,-1.4825,-1.4771,-1.4673,-1.4434,-1.4347,-1.4336,-1.4379,-1.439,-1.439,-1.439,-1.439,-1.439,-1.4434,-1.4379,-1.4347,-1.4434,-1.4363,-1.432,-1.432,-1.432,-1.432,-1.432,-1.432,-1.432,-1.432,-1.432,-1.432,-1.432,-1.432,-1.432,-1.432,-1.432,-1.432,-1.432,-1.432,-1.432,-1.432,-1.4069,-1.3999,-3.0853,0.0,0.0,0.0,0.0,0.0,0.0,0.0,0.0,0.0,0.0,0.0,0.0,0.0,0.0,0.0,0.0,0.0,0.0,0.0,0.0,0.0,0.0,0.0,0.0,0.0,0.0,0.0,0.0,0.0,-2.96,-2.9032,-2.863,-2.8479,-2.8543,-2.8436,-2.8124,-2.8285,-2.8199,-2.7887,-2.3314,-2.1151,-2.0779,-1.6135,-1.414,-1.4265,-1.4265,-1.4276,-1.432,-1.432,-1.432,-1.432,-1.432,-1.432,-1.432,-1.432,-1.432,-1.432,-1.432,-1.432,-1.432,-1.432,-1.432,-1.432,-1.432,-1.432,-1.4347,-1.4477,-1.4504,-1.4548,-1.4744,-1.4798,-1.4771,-1.4689,-1.4646,-1.4575,-1.4417,-1.4379,-1.4363,-1.4336,-1.432,-1.432,-1.432,-1.4347,-1.4407,-1.4488,-1.4434,-1.4407,-1.4488,-1.439,-1.432,-1.432,-1.4363,-1.4363,-1.432,-1.4363,-1.4363,-1.432,-1.432,-1.432,-1.432,-1.432,-1.432,-1.432,-1.432,-1.432,-1.432,-1.432,-1.432,-1.432,-1.4113,-1.4053,0.0,0.0,0.0,0.0,0.0,0.0,0.0,0.0,0.0,0.0,0.0,0.0,0.0,0.0,0.0,0.0,0.0,0.0,0.0,0.0,0.0,0.0,0.0,0.0,0.0,0.0,0.0,0.0,0.0,-3.037,-2.9589,-2.9022,-2.8468,-2.8016,-2.822,-2.8124,-2.765,-2.8102,-2.8102,-2.7534,-2.3233,-2.097,-2.0586,-1.5985,-1.4015,-1.414,-1.414,-1.4205,-1.4309,-1.432,-1.432,-1.432,-1.432,-1.432,-1.432,-1.432,-1.432,-1.432,-1.432,-1.432,-1.432,-1.432,-1.432,-1.432,-1.432,-1.432,-1.4347,-1.4477,-1.4504,-1.4515,-1.4646,-1.4673,-1.4673,-1.4673,-1.4586,-1.4504,-1.4504,-1.4504,-1.4461,-1.4347,-1.432,-1.432,-1.432,-1.4417,-1.4504,-1.4504,-1.4504,-1.4504,-1.4504,-1.439,-1.432,-1.432,-1.4434,-1.445,-1.4336,-1.4434,-1.445,-1.4336,-1.432,-1.432,-1.432,-1.432,-1.432,-1.432,-1.432,-1.432,-1.432,-1.432,-1.432,-1.432,-1.4195,-1.414,-3.0262,0.0,0.0,0.0,0.0,0.0,0.0,0.0,0.0,0.0,0.0,0.0,0.0,0.0,0.0,0.0,0.0,0.0,0.0,0.0,0.0,0.0,0.0,0.0,0.0,0.0,0.0,0.0,-3.0533,-2.9821,-2.8793,-2.8403,-2.8059,-2.7757,-2.7811,-2.7779,-2.7755,-2.7779,-2.6944,-2.4957,-2.2143,-1.9812,-1.8081,-1.5111,-1.3896,-1.401,-1.4097,-1.4108,-1.4069,-1.4249,-1.4265,-1.4195,-1.4292,-1.432,-1.432,-1.432,-1.432,-1.432,-1.432,-1.432,-1.432,-1.432,-1.432,-1.432,-1.432,-1.432,-1.4347,-1.4477,-1.4434,-1.4407,-1.4515,-1.4548,-1.4575,-1.4657,-1.4586,-1.4504,-1.4504,-1.4504,-1.4461,-1.4347,-1.432,-1.432,-1.432,-1.4417,-1.4504,-1.4504,-1.4504,-1.4504,-1.4504,-1.439,-1.432,-1.432,-1.4347,-1.4363,-1.432,-1.4347,-1.4363,-1.432,-1.432,-1.432,-1.432,-1.432,-1.432,-1.432,-1.432,-1.432,-1.432,-1.432,-1.432,-1.432,-1.4292,-1.4222,-3.0455,-3.0455,-3.0539,0.0,0.0,0.0,0.0,-3.1288,0.0,0.0,0.0,0.0,0.0,0.0,0.0,0.0,0.0,0.0,0.0,0.0,0.0,0.0,0.0,0.0,0.0,0.0,0.0,-3.0568,-2.9913,-2.913,-2.8176,-2.793,-2.7747,-2.751,-2.7596,-2.7553,-2.7359,-2.6692,-2.5456,-2.3786,-2.0709,-1.8503,-1.6974,-1.4762,-1.3776,-1.389,-1.3961,-1.395,-1.3901,-1.4097,-1.4151,-1.4151,-1.4222,-1.4276,-1.432,-1.432,-1.432,-1.432,-1.432,-1.432,-1.432,-1.432,-1.432,-1.432,-1.432,-1.432,-1.4336,-1.4407,-1.4379,-1.4336,-1.4407,-1.4434,-1.4461,-1.4575,-1.4515,-1.4445,-1.4488,-1.4461,-1.4407,-1.4336,-1.432,-1.432,-1.432,-1.4417,-1.4504,-1.4504,-1.4504,-1.4504,-1.4504,-1.439,-1.432,-1.432,-1.4363,-1.4379,-1.432,-1.4363,-1.4379,-1.432,-1.432,-1.432,-1.432,-1.432,-1.432,-1.432,-1.432,-1.432,-1.432,-1.432,-1.432,-1.432,-1.432,-1.4276,-3.0721,-3.0817,-3.0998,-3.0998,0.0,0.0,-3.0612,-3.0769,-3.0914,0.0,0.0,0.0,0.0,0.0,0.0,0.0,0.0,0.0,0.0,0.0,0.0,0.0,0.0,0.0,0.0,-3.1724,-3.1006,-3.0476,-2.9399,-2.8384,-2.7723,-2.7607,-2.7499,-2.7262,-2.7456,-2.737,-2.6847,-2.5346,-2.4175,-2.3193,-1.9384,-1.7277,-1.642,-1.4546,-1.3662,-1.3765,-1.3781,-1.3781,-1.3776,-1.389,-1.3999,-1.4097,-1.4108,-1.4195,-1.4309,-1.4309,-1.4309,-1.432,-1.432,-1.432,-1.432,-1.432,-1.432,-1.432,-1.432,-1.432,-1.432,-1.432,-1.432,-1.432,-1.432,-1.4336,-1.4363,-1.4477,-1.4417,-1.4379,-1.4477,-1.4407,-1.432,-1.432,-1.432,-1.432,-1.432,-1.4417,-1.4504,-1.4488,-1.4488,-1.4504,-1.4488,-1.439,-1.432,-1.432,-1.4417,-1.4434,-1.4336,-1.4417,-1.4434,-1.432,-1.432,-1.432,-1.432,-1.432,-1.432,-1.432,-1.432,-1.432,-1.432,-1.432,-1.432,-1.432,-1.432,-1.432,-3.0986,-3.0962,-3.0998,0.0,0.0,0.0,-3.0612,-3.0479,-3.0431,0.0,0.0,0.0,0.0,0.0,0.0,0.0,0.0,0.0,0.0,0.0,0.0,0.0,0.0,0.0,0.0,-3.1296,-3.0481,-2.9949,-2.8617,-2.7723,-2.7381,-2.737,-2.7262,-2.7025,-2.7068,-2.7047,-2.695,-2.6511,-2.4529,-2.0903,-2.0103,-1.7804,-1.4229,-1.3813,-1.3618,-1.3645,-1.3743,-1.3732,-1.3651,-1.377,-1.3836,-1.3863,-1.3955,-1.4069,-1.4178,-1.4178,-1.4238,-1.432,-1.432,-1.432,-1.432,-1.432,-1.432,-1.432,-1.432,-1.432,-1.432,-1.432,-1.432,-1.432,-1.432,-1.439,-1.4477,-1.4504,-1.4488,-1.4477,-1.4504,-1.4407,-1.432,-1.432,-1.432,-1.432,-1.432,-1.4417,-1.4477,-1.4379,-1.4445,-1.4461,-1.4363,-1.4336,-1.432,-1.432,-1.4347,-1.4347,-1.432,-1.4347,-1.4347,-1.432,-1.432,-1.432,-1.432,-1.432,-1.432,-1.432,-1.432,-1.432,-1.432,-1.432,-1.432,-1.432,-1.432,-1.432,0.0,0.0,0.0,-3.1228,0.0,0.0,0.0,-3.0503,-3.0407,0.0,0.0,0.0,0.0,0.0,0.0,0.0,0.0,0.0,0.0,0.0,0.0,0.0,0.0,0.0,0.0,-3.0411,-2.9559,-2.8595,-2.7845,-2.737,-2.7133,-2.7122,-2.7068,-2.6847,-2.695,-2.695,-2.695,-2.58,-2.3606,-2.0279,-1.9133,-1.6839,-1.3602,-1.3602,-1.3602,-1.3607,-1.3667,-1.3662,-1.3607,-1.3673,-1.3694,-1.3705,-1.3825,-1.3983,-1.414,-1.414,-1.4222,-1.432,-1.432,-1.432,-1.432,-1.432,-1.432,-1.432,-1.432,-1.432,-1.432,-1.432,-1.432,-1.432,-1.432,-1.4363,-1.4417,-1.4417,-1.4417,-1.4417,-1.4417,-1.4363,-1.432,-1.432,-1.432,-1.432,-1.432,-1.4379,-1.439,-1.4336,-1.4379,-1.439,-1.4336,-1.432,-1.432,-1.432,-1.432,-1.432,-1.432,-1.432,-1.432,-1.432,-1.432,-1.432,-1.432,-1.432,-1.432,-1.432,-1.432,-1.432,-1.432,-1.432,-1.432,-1.432,-1.432,-1.432,0.0,0.0,0.0,0.0,0.0,-3.1276,0.0,0.0,0.0,0.0,0.0,0.0,0.0,0.0,0.0,0.0,0.0,0.0,0.0,0.0,0.0,0.0,0.0,0.0,0.0,-2.9457,-2.8521,-2.7355,-2.723,-2.7155,-2.6961,-2.695,-2.695,-2.695,-2.695,-2.695,-2.695,-2.5172,-2.3089,-2.0903,-1.8611,-1.642,-1.4229,-1.3813,-1.3602,-1.3602,-1.3602,-1.3602,-1.3602,-1.3602,-1.3602,-1.3613,-1.3711,-1.3885,-1.4069,-1.4097,-1.4178,-1.4292,-1.4309,-1.432,-1.432,-1.432,-1.432,-1.432,-1.432,-1.432,-1.432,-1.432,-1.432,-1.432,-1.432,-1.4336,-1.4347,-1.432,-1.4336,-1.4347,-1.432,-1.432,-1.432,-1.432,-1.432,-1.432,-1.432,-1.432,-1.432,-1.432,-1.432,-1.432,-1.432,-1.432,-1.432,-1.432,-1.432,-1.432,-1.432,-1.432,-1.432,-1.432,-1.432,-1.432,-1.432,-1.432,-1.432,-1.432,-1.432,-1.432,-1.432,-1.432,-1.432,-1.432,-1.432,-1.432,0.0,0.0,0.0,0.0,-3.1578,0.0,0.0,0.0,-3.06,0.0,0.0,0.0,0.0,0.0,0.0,0.0,0.0,0.0,0.0,0.0,0.0,0.0,0.0,0.0,0.0,0.0,-2.7954,-2.7004,-2.6993,-2.6982,-2.695,-2.695,-2.695,-2.695,-2.695,-2.695,-2.695,-2.6632,-2.5388,-2.3193,-2.1007,-1.8716,-1.642,-1.444,-1.3602,-1.3602,-1.3602,-1.3602,-1.3602,-1.3602,-1.3602,-1.3607,-1.3618,-1.3711,-1.3841,-1.3939,-1.4053,-1.4178,-1.4276,-1.432,-1.432,-1.432,-1.432,-1.432,-1.432,-1.432,-1.432,-1.432,-1.432,-1.432,-1.432,-1.4407,-1.4461,-1.4347,-1.4407,-1.445,-1.4347,-1.432,-1.432,-1.432,-1.432,-1.432,-1.432,-1.432,-1.432,-1.432,-1.432,-1.432,-1.432,-1.432,-1.432,-1.432,-1.432,-1.432,-1.432,-1.432,-1.432,-1.432,-1.432,-1.432,-1.432,-1.432,-1.432,-1.432,-1.432,-1.432,-1.432,-1.432,-1.432,-1.432,-1.432,-1.432,0.0,0.0,0.0,0.0,0.0,0.0,-3.1433,0.0,-3.0974,0.0,0.0,0.0,0.0,0.0,0.0,0.0,0.0,0.0,0.0,0.0,0.0,0.0,0.0,0.0,0.0,0.0,0.0,0.0,0.0,-2.7257,-2.695,-2.695,-2.695,-2.695,-2.695,-2.695,-2.695,-2.695,-2.58,-2.3616,-2.1319,-1.9133,-1.6839,-1.4651,-1.3602,-1.3602,-1.3602,-1.3602,-1.3602,-1.3602,-1.3602,-1.3602,-1.3602,-1.3678,-1.3803,-1.3912,-1.4031,-1.4151,-1.4276,-1.432,-1.432,-1.432,-1.432,-1.432,-1.432,-1.432,-1.432,-1.432,-1.432,-1.432,-1.432,-1.4363,-1.439,-1.4336,-1.4363,-1.4379,-1.4336,-1.432,-1.432,-1.432,-1.432,-1.432,-1.432,-1.432,-1.432,-1.432,-1.432,-1.432,-1.432,-1.432,-1.432,-1.432,-1.432,-1.432,-1.432,-1.432,-1.432,-1.432,-1.432,-1.432,-1.432,-1.432,-1.432,-1.432,-1.432,-1.432,-1.432,-1.432,-1.432,-1.432,-1.432,-1.432,-3.1384,0.0,0.0,0.0,0.0,0.0,0.0,0.0,0.0,0.0,0.0,0.0,0.0,0.0,0.0,0.0,0.0,0.0,0.0,0.0,0.0,0.0,0.0,0.0,0.0,0.0,0.0,-2.6756,-2.7152,-2.7185,-2.6842,-2.6853,-2.6875,-2.695,-2.695,-2.695,-2.695,-2.6324,-2.5491,-2.4441,-2.1007,-1.882,-1.7775,-1.4856,-1.3602,-1.3602,-1.3602,-1.3602,-1.3602,-1.3602,-1.3602,-1.3602,-1.3602,-1.3662,-1.3754,-1.3901,-1.401,-1.4108,-1.4265,-1.432,-1.432,-1.432,-1.432,-1.432,-1.432,-1.432,-1.432,-1.432,-1.432,-1.432,-1.432,-1.432,-1.432,-1.432,-1.432,-1.432,-1.432,-1.432,-1.432,-1.432,-1.432,-1.432,-1.432,-1.432,-1.432,-1.432,-1.432,-1.432,-1.432,-1.432,-1.432,-1.432,-1.432,-1.432,-1.432,-1.432,-1.432,-1.432,-1.432,-1.432,-1.432,-1.432,-1.432,-1.432,-1.432,-1.432,-1.432,-1.432,-1.432,-1.432,-1.432,-1.432,0.0,0.0,0.0,-3.1807,0.0,0.0,0.0,0.0,-3.1384,0.0,0.0,0.0,0.0,0.0,0.0,0.0,0.0,0.0,0.0,0.0,0.0,0.0,0.0,0.0,0.0,0.0,0.0,-2.6272,-2.6261,-2.6358,-2.6584,-2.6595,-2.6702,-2.6939,-2.695,-2.695,-2.695,-2.476,-2.476,-2.6745,-2.0175,-1.8089,-2.0071,-1.5592,-1.3602,-1.3602,-1.3602,-1.3602,-1.3602,-1.3602,-1.3602,-1.3602,-1.3602,-1.3607,-1.364,-1.3868,-1.3961,-1.3999,-1.4238,-1.432,-1.432,-1.432,-1.432,-1.432,-1.432,-1.432,-1.432,-1.432,-1.432,-1.432,-1.432,-1.432,-1.432,-1.432,-1.432,-1.432,-1.432,-1.432,-1.432,-1.432,-1.432,-1.432,-1.432,-1.432,-1.432,-1.432,-1.432,-1.432,-1.432,-1.432,-1.432,-1.432,-1.432,-1.432,-1.432,-1.432,-1.432,-1.432,-1.432,-1.432,-1.432,-1.432,-1.432,-1.432,-1.432,-1.432,-1.432,-1.432,-1.432,-1.432,-1.432,-1.432,0.0,0.0,-3.1807,-3.1807,0.0,0.0,0.0,0.0,0.0,0.0,0.0,0.0,0.0,0.0,0.0,0.0,0.0,0.0,0.0,0.0,0.0,0.0,0.0,0.0,0.0,0.0,0.0,-2.6727,-2.6716,-2.666,0.0,-2.6498,-2.6627,-2.6702,-2.6864,-2.695,-2.695,-2.6118,-2.5378,-2.4657,-2.0903,-1.8716,-1.7984,-1.4961,-1.3602,-1.3602,-1.3602,-1.3602,-1.3602,-1.3602,-1.3602,-1.3602,-1.3602,-1.3602,-1.3624,-1.3787,-1.389,-1.3993,-1.4238,-1.432,-1.432,-1.432,-1.432,-1.432,-1.432,-1.432,-1.432,-1.432,-1.432,-1.432,-1.432,-1.432,-1.432,-1.432,-1.432,-1.432,-1.432,-1.432,-1.432,-1.432,-1.432,-1.432,-1.432,-1.432,-1.432,-1.432,-1.432,-1.432,-1.432,-1.432,-1.432,-1.432,-1.432,-1.432,-1.432,-1.432,-1.432,-1.432,-1.432,-1.432,-1.432,-1.432,-1.432,-1.432,-1.432,-1.432,-1.432,-1.432,-1.432,-1.432,-1.432,-1.432,-3.1179,-3.1469,0.0,-3.1807,-3.1807,0.0,-3.1686,0.0,0.0,0.0,0.0,0.0,0.0,0.0,0.0,0.0,0.0,0.0,0.0,0.0,0.0,0.0,0.0,0.0,0.0,0.0,0.0,-2.6464,-2.6661,-2.6606,0.0,0.0,-2.6498,-2.6584,-2.6821,-2.695,-2.695,-2.5378,-2.4235,-2.3503,-1.9759,-1.7573,-1.6839,-1.4651,-1.3602,-1.3602,-1.3602,-1.3602,-1.3602,-1.3602,-1.3602,-1.3602,-1.3602,-1.3602,-1.3618,-1.3743,-1.3857,-1.3983,-1.4178,-1.4249,-1.4265,-1.4309,-1.432,-1.432,-1.432,-1.432,-1.432,-1.432,-1.432,-1.432,-1.432,-1.432,-1.432,-1.432,-1.432,-1.432,-1.432,-1.432,-1.432,-1.432,-1.432,-1.432,-1.432,-1.432,-1.432,-1.432,-1.432,-1.432,-1.432,-1.432,-1.432,-1.432,-1.432,-1.432,-1.432,-1.432,-1.432,-1.432,-1.432,-1.432,-1.432,-1.432,-1.4417,-1.4629,-1.4434,-1.4434,-1.4646,-1.4417,-1.432,-1.432,-1.432,-1.432]}]]